[[{"header":{"parameterUnit":"m.s-1","parameterCategory":1,"la1":30.6,"la2":29.2853,"lo1":-89.7004,"lo2":-87.6739,"dy":0.0162,"dx":0.0183,"nx":112,"ny":82,"refTime":"2024-09-28T06:00:00:Z","depth":0,"parameterNumber":2,"parameterNumberName":"U-component_of_WINDS"},"data":[0.0,0.0,0.0,0.0,0.0,0.0,0.0,0.0,0.0,0.0,0.0,0.0,0.0,0.0,0.0,0.0,0.0,0.0,0.0,0.0,0.0,0.0,0.0,0.0,0.0,0.0,0.0,0.0,0.0,0.0,0.0,0.0,0.0,0.0,0.0,0.0,0.0,0.0,0.0,0.0,0.0,0.0,0.0,0.0,0.0,0.0,0.0,0.0,0.0,0.0,0.0,0.0,0.0,0.0,0.0,0.0,0.0,0.0,0.0,0.0,0.0,0.0,0.0,0.0,0.0,0.0,0.0,0.0,0.0,0.0,0.0,0.0,0.0,0.0,0.0,0.0,0.0,0.0,0.0,0.0,0.0,0.0,0.0,0.0,0.0,0.0,0.0,0.0,0.0,0.0,-1.5051,-1.5531,-1.589,-1.6065,-1.6007,-1.5625,-1.5025,-1.4153,0.0,0.0,0.0,0.0,0.0,0.0,0.0,0.0,0.0,0.0,0.0,0.0,0.0,0.0,0.0,0.0,0.0,0.0,0.0,0.0,0.0,0.0,0.0,0.0,0.0,0.0,0.0,0.0,0.0,0.0,0.0,0.0,0.0,0.0,0.0,0.0,0.0,0.0,0.0,0.0,0.0,0.0,0.0,0.0,0.0,0.0,0.0,0.0,0.0,0.0,0.0,0.0,0.0,0.0,0.0,0.0,0.0,0.0,0.0,0.0,0.0,0.0,0.0,0.0,0.0,0.0,0.0,0.0,0.0,0.0,0.0,0.0,0.0,0.0,0.0,0.0,0.0,0.0,0.0,0.0,0.0,0.0,0.0,0.0,0.0,0.0,0.0,0.0,0.0,0.0,0.0,0.0,0.0,0.0,0.0,0.0,0.0,0.0,0.0,0.0,0.0,0.0,0.0,0.0,-1.4531,-1.5346,-1.5831,-1.5948,-1.5547,-1.5435,-1.5025,-1.4153,0.0,0.0,0.0,0.0,0.0,0.0,0.0,0.0,0.0,0.0,0.0,0.0,0.0,0.0,0.0,0.0,0.0,0.0,0.0,0.0,0.0,0.0,0.0,0.0,0.0,0.0,0.0,0.0,0.0,0.0,0.0,0.0,0.0,0.0,0.0,0.0,0.0,0.0,0.0,0.0,0.0,0.0,0.0,0.0,0.0,0.0,0.0,0.0,0.0,0.0,0.0,0.0,0.0,0.0,0.0,0.0,0.0,0.0,0.0,0.0,0.0,0.0,0.0,0.0,0.0,0.0,0.0,0.0,0.0,0.0,0.0,0.0,0.0,0.0,0.0,0.0,0.0,0.0,0.0,0.0,0.0,0.0,0.0,0.0,0.0,0.0,0.0,0.0,0.0,0.0,0.0,0.0,0.0,0.0,0.0,0.0,0.0,0.0,0.0,0.0,0.0,0.0,0.0,-1.4258,-1.4727,-1.5337,-1.5586,-1.5625,-1.5415,-1.5396,-1.5025,-1.4153,-1.334,0.0,0.0,0.0,0.0,0.0,0.0,0.0,0.0,0.0,0.0,0.0,0.0,0.0,0.0,0.0,0.0,0.0,0.0,0.0,0.0,0.0,0.0,0.0,0.0,0.0,0.0,0.0,0.0,0.0,0.0,0.0,0.0,0.0,0.0,0.0,0.0,0.0,0.0,0.0,0.0,0.0,0.0,0.0,0.0,0.0,0.0,0.0,0.0,0.0,0.0,0.0,0.0,0.0,0.0,0.0,0.0,0.0,0.0,0.0,0.0,0.0,0.0,0.0,0.0,0.0,0.0,0.0,0.0,0.0,0.0,0.0,0.0,0.0,0.0,0.0,0.0,0.0,0.0,0.0,0.0,0.0,0.0,0.0,0.0,0.0,0.0,0.0,0.0,0.0,0.0,0.0,0.0,0.0,0.0,0.0,0.0,0.0,0.0,0.0,0.0,0.0,0.0,-1.4805,-1.5059,-1.5357,-1.5396,-1.5396,-1.5396,-1.522,-1.4771,-1.4016,-1.3105,0.0,0.0,0.0,0.0,0.0,0.0,0.0,0.0,0.0,0.0,0.0,0.0,0.0,0.0,0.0,0.0,0.0,0.0,0.0,0.0,0.0,0.0,0.0,0.0,0.0,0.0,0.0,0.0,0.0,0.0,0.0,0.0,0.0,0.0,0.0,0.0,0.0,0.0,0.0,0.0,0.0,0.0,0.0,0.0,0.0,0.0,0.0,0.0,0.0,0.0,0.0,0.0,0.0,0.0,0.0,0.0,0.0,0.0,0.0,0.0,0.0,0.0,0.0,0.0,0.0,0.0,0.0,0.0,0.0,0.0,0.0,0.0,0.0,0.0,0.0,0.0,0.0,0.0,0.0,0.0,0.0,0.0,0.0,0.0,0.0,0.0,0.0,0.0,0.0,0.0,0.0,0.0,0.0,0.0,0.0,0.0,0.0,0.0,0.0,0.0,0.0,0.0,-1.4869,-1.5357,-1.541,-1.5396,-1.5396,-1.5396,-1.466,-1.4016,-1.3561,-1.2387,0.0,0.0,0.0,0.0,0.0,0.0,0.0,0.0,0.0,0.0,0.0,0.0,0.0,0.0,0.0,0.0,0.0,0.0,0.0,0.0,0.0,0.0,0.0,0.0,0.0,0.0,0.0,0.0,0.0,0.0,0.0,0.0,0.0,0.0,0.0,0.0,0.0,0.0,0.0,0.0,0.0,0.0,0.0,0.0,0.0,0.0,0.0,0.0,0.0,0.0,0.0,0.0,0.0,0.0,0.0,0.0,0.0,0.0,0.0,0.0,0.0,0.0,0.0,0.0,0.0,0.0,0.0,0.0,0.0,0.0,0.0,0.0,0.0,0.0,0.0,0.0,0.0,0.0,0.0,0.0,0.0,0.0,0.0,0.0,0.0,0.0,0.0,0.0,0.0,0.0,0.0,0.0,0.0,0.0,0.0,0.0,0.0,0.0,0.0,0.0,0.0,0.0,-1.4635,-1.5117,0.0,-1.5396,-1.5396,-1.5396,-1.5103,-1.4517,-1.3574,0.0,0.0,0.0,0.0,0.0,0.0,0.0,0.0,0.0,0.0,0.0,0.0,0.0,0.0,0.0,0.0,0.0,0.0,0.0,0.0,0.0,0.0,0.0,0.0,0.0,0.0,0.0,0.0,0.0,0.0,0.0,0.0,0.0,0.0,0.0,0.0,0.0,0.0,0.0,0.0,0.0,0.0,0.0,0.0,0.0,0.0,0.0,0.0,0.0,0.0,0.0,0.0,0.0,0.0,0.0,0.0,0.0,0.0,0.0,0.0,0.0,0.0,0.0,0.0,0.0,0.0,0.0,0.0,0.0,0.0,0.0,0.0,0.0,0.0,0.0,0.0,0.0,0.0,0.0,0.0,0.0,0.0,0.0,0.0,0.0,0.0,0.0,0.0,0.0,0.0,0.0,0.0,0.0,0.0,0.0,0.0,0.0,0.0,0.0,0.0,0.0,0.0,-1.3945,-1.4593,-1.5041,0.0,-1.5396,-1.5396,-1.5396,-1.5099,-1.4457,-1.3379,0.0,0.0,0.0,0.0,0.0,0.0,0.0,0.0,0.0,0.0,0.0,0.0,0.0,0.0,0.0,0.0,0.0,0.0,0.0,0.0,0.0,0.0,0.0,0.0,0.0,0.0,0.0,0.0,0.0,0.0,0.0,0.0,0.0,0.0,0.0,0.0,0.0,0.0,0.0,0.0,0.0,0.0,0.0,0.0,0.0,0.0,0.0,0.0,0.0,0.0,0.0,0.0,0.0,0.0,0.0,0.0,0.0,0.0,0.0,0.0,0.0,0.0,0.0,0.0,0.0,0.0,0.0,0.0,0.0,0.0,0.0,0.0,0.0,0.0,0.0,0.0,0.0,0.0,0.0,0.0,0.0,0.0,0.0,0.0,0.0,0.0,0.0,0.0,0.0,0.0,0.0,0.0,0.0,0.0,0.0,0.0,0.0,0.0,0.0,0.0,0.0,0.0,-1.3957,-1.4719,-1.5225,-1.5366,-1.5381,-1.5381,-1.5381,-1.4463,-1.3619,0.0,0.0,0.0,0.0,0.0,0.0,0.0,0.0,0.0,0.0,0.0,0.0,0.0,0.0,0.0,0.0,0.0,0.0,0.0,0.0,0.0,0.0,0.0,0.0,0.0,0.0,0.0,0.0,0.0,0.0,0.0,0.0,0.0,0.0,0.0,0.0,0.0,0.0,0.0,0.0,0.0,0.0,0.0,0.0,0.0,0.0,0.0,0.0,0.0,0.0,0.0,0.0,0.0,0.0,0.0,0.0,0.0,0.0,0.0,0.0,0.0,0.0,0.0,0.0,0.0,0.0,0.0,0.0,0.0,0.0,0.0,0.0,0.0,0.0,0.0,0.0,0.0,0.0,0.0,0.0,0.0,0.0,0.0,0.0,0.0,0.0,0.0,0.0,0.0,0.0,0.0,0.0,0.0,0.0,0.0,0.0,0.0,0.0,0.0,0.0,0.0,0.0,0.0,-1.3,-1.3423,-1.384,-1.4362,-1.4421,-1.4421,-1.4421,-1.4143,-1.3391,-1.2003,0.0,0.0,0.0,0.0,0.0,0.0,0.0,0.0,0.0,0.0,0.0,0.0,0.0,0.0,0.0,0.0,0.0,0.0,0.0,0.0,0.0,0.0,0.0,0.0,0.0,0.0,0.0,0.0,0.0,0.0,0.0,0.0,0.0,0.0,0.0,0.0,0.0,0.0,0.0,0.0,0.0,0.0,0.0,0.0,0.0,0.0,0.0,0.0,0.0,0.0,0.0,0.0,0.0,0.0,0.0,0.0,0.0,0.0,0.0,0.0,0.0,0.0,0.0,0.0,0.0,0.0,0.0,0.0,0.0,0.0,0.0,0.0,0.0,0.0,0.0,0.0,0.0,0.0,0.0,0.0,0.0,0.0,0.0,0.0,0.0,0.0,0.0,0.0,0.0,0.0,0.0,0.0,0.0,0.0,0.0,0.0,0.0,0.0,0.0,0.0,0.0,0.0,-1.2593,-1.2841,-1.31,-1.3554,-1.3599,-1.3599,-1.3599,-1.3554,-1.2926,-1.1516,0.0,0.0,0.0,0.0,0.0,0.0,0.0,0.0,0.0,0.0,0.0,0.0,0.0,0.0,0.0,0.0,0.0,0.0,0.0,0.0,0.0,0.0,0.0,0.0,0.0,0.0,0.0,0.0,0.0,0.0,0.0,0.0,0.0,0.0,0.0,0.0,0.0,0.0,0.0,0.0,0.0,0.0,0.0,0.0,0.0,0.0,0.0,0.0,0.0,0.0,0.0,0.0,0.0,0.0,0.0,0.0,0.0,0.0,0.0,0.0,0.0,0.0,0.0,0.0,0.0,0.0,0.0,0.0,0.0,0.0,0.0,0.0,0.0,0.0,0.0,0.0,0.0,0.0,0.0,0.0,0.0,0.0,0.0,0.0,0.0,0.0,0.0,0.0,0.0,0.0,0.0,0.0,0.0,0.0,0.0,0.0,0.0,0.0,0.0,0.0,0.0,0.0,-1.2442,-1.2592,-1.2658,-1.2841,-1.2856,-1.2856,-1.2856,-1.2749,-1.2268,-1.1258,0.0,0.0,0.0,0.0,0.0,0.0,0.0,0.0,0.0,0.0,0.0,0.0,0.0,0.0,0.0,0.0,0.0,0.0,0.0,0.0,0.0,0.0,0.0,0.0,0.0,0.0,0.0,0.0,0.0,0.0,0.0,0.0,0.0,0.0,0.0,0.0,0.0,0.0,0.0,0.0,0.0,0.0,0.0,0.0,0.0,0.0,0.0,0.0,0.0,0.0,0.0,0.0,0.0,0.0,0.0,0.0,0.0,0.0,0.0,0.0,-1.2496,0.0,0.0,0.0,0.0,0.0,0.0,0.0,0.0,0.0,0.0,0.0,0.0,0.0,0.0,0.0,0.0,0.0,0.0,0.0,0.0,0.0,0.0,0.0,0.0,0.0,0.0,0.0,0.0,0.0,0.0,0.0,0.0,0.0,0.0,0.0,0.0,0.0,0.0,0.0,0.0,0.0,-1.1481,-1.1301,-1.1249,-1.1779,-1.1825,-1.1825,-1.1825,-1.1794,-1.142,-1.0578,-1.0293,0.0,0.0,0.0,0.0,0.0,0.0,0.0,0.0,0.0,0.0,0.0,0.0,0.0,0.0,0.0,0.0,0.0,0.0,0.0,0.0,0.0,0.0,0.0,0.0,0.0,0.0,0.0,0.0,0.0,0.0,0.0,0.0,0.0,0.0,0.0,0.0,0.0,0.0,0.0,0.0,0.0,0.0,0.0,0.0,0.0,0.0,0.0,0.0,0.0,0.0,0.0,0.0,0.0,0.0,0.0,0.0,0.0,0.0,0.0,0.0,-1.3011,0.0,0.0,0.0,0.0,0.0,0.0,0.0,0.0,0.0,0.0,0.0,0.0,0.0,0.0,0.0,0.0,0.0,0.0,0.0,0.0,0.0,0.0,0.0,0.0,0.0,0.0,0.0,0.0,0.0,0.0,0.0,0.0,0.0,0.0,0.0,0.0,0.0,0.0,0.0,0.0,-1.1001,-1.0811,-1.0713,-1.1028,-1.1075,-1.1075,-1.1075,-1.1075,-1.0818,-1.0239,-1.0137,0.0,0.0,0.0,0.0,0.0,0.0,0.0,0.0,0.0,0.0,0.0,0.0,0.0,0.0,0.0,0.0,0.0,0.0,0.0,0.0,0.0,0.0,0.0,0.0,0.0,0.0,0.0,0.0,0.0,0.0,0.0,0.0,0.0,0.0,0.0,0.0,0.0,0.0,0.0,0.0,0.0,0.0,0.0,0.0,0.0,0.0,0.0,0.0,0.0,0.0,0.0,0.0,0.0,-1.4657,-1.4907,-1.5162,-1.5162,-1.4864,-1.4323,-1.4047,-1.3585,-1.3023,-1.2755,0.0,0.0,0.0,0.0,0.0,0.0,0.0,0.0,0.0,0.0,0.0,0.0,0.0,0.0,0.0,0.0,0.0,0.0,0.0,0.0,0.0,0.0,0.0,0.0,-0.9977,-1.0213,-1.0386,0.0,0.0,0.0,0.0,0.0,0.0,0.0,0.0,0.0,0.0,0.0,-1.0812,-1.0724,-1.0602,-1.0602,-1.0602,-1.0602,-1.0602,-1.0602,-1.0492,-1.0192,-1.0239,-0.9993,0.0,0.0,0.0,0.0,0.0,0.0,0.0,0.0,0.0,0.0,0.0,0.0,0.0,0.0,0.0,0.0,0.0,0.0,0.0,0.0,0.0,0.0,0.0,0.0,0.0,0.0,0.0,0.0,0.0,0.0,0.0,0.0,-1.2472,-1.2238,0.0,0.0,0.0,0.0,0.0,0.0,0.0,0.0,0.0,0.0,0.0,0.0,0.0,-1.4683,-1.5153,-1.5123,-1.5066,-1.4987,-1.4969,-1.4968,-1.5031,-1.5031,-1.4965,-1.4899,-1.4843,0.0,-1.3509,-1.245,0.0,0.0,0.0,0.0,0.0,0.0,0.0,0.0,0.0,0.0,0.0,0.0,0.0,0.0,0.0,0.0,0.0,0.0,0.0,0.0,0.0,0.0,-1.0967,-1.1457,-1.1589,-1.1625,0.0,-1.0835,-1.0072,-0.9952,-0.9766,0.0,0.0,0.0,0.0,0.0,0.0,0.0,-1.0824,-1.0724,-1.0602,-1.0602,-1.0602,-1.0602,-1.0602,-1.0602,-1.0573,-1.0533,-1.0282,-1.0079,-0.9992,-0.9501,0.0,0.0,0.0,0.0,0.0,0.0,0.0,0.0,0.0,0.0,0.0,0.0,0.0,0.0,0.0,0.0,0.0,0.0,0.0,0.0,0.0,0.0,0.0,0.0,0.0,0.0,0.0,0.0,0.0,-1.1934,-1.2413,-1.2181,-1.2865,-1.3183,0.0,0.0,0.0,0.0,0.0,0.0,0.0,0.0,0.0,-1.4868,-1.5023,-1.5198,-1.5405,-1.5371,-1.5395,-1.5493,-1.5309,-1.5297,-1.5444,-1.5444,-1.5444,-1.5444,-1.5307,-1.5007,-1.455,-1.3339,-1.2844,-1.276,0.0,0.0,0.0,0.0,-1.1792,-1.1757,-1.1971,-1.2042,-1.1966,-1.1631,0.0,0.0,0.0,0.0,0.0,0.0,0.0,0.0,0.0,0.0,-0.9736,-1.0172,-1.0178,-1.0225,-1.0686,-1.0594,-1.0466,0.0,-1.0501,-1.0314,-0.998,0.0,0.0,0.0,0.0,-1.0083,-1.0669,-1.0647,-1.0602,-1.0602,-1.0602,-1.0602,-1.0602,-1.0602,-1.0602,-1.0602,-1.045,-1.0383,-1.0383,-0.9938,-0.9615,0.0,0.0,0.0,0.0,0.0,0.0,0.0,0.0,0.0,0.0,0.0,0.0,0.0,0.0,0.0,0.0,0.0,0.0,0.0,0.0,0.0,0.0,0.0,0.0,0.0,0.0,0.0,0.0,-1.1744,-1.2271,-1.2031,-1.2875,-1.3164,0.0,0.0,0.0,0.0,0.0,0.0,-1.5081,-1.5223,-1.5294,-1.5409,-1.5605,-1.5713,-1.5725,-1.5725,-1.5845,-1.6021,-1.5832,-1.5845,-1.6021,-1.6021,-1.6021,-1.6008,-1.5752,-1.5618,-1.5524,-1.4327,-1.3714,-1.3474,-1.2959,-1.2759,-1.2772,-1.2939,-1.2898,-1.2799,-1.3106,-1.3106,-1.2887,-1.2134,-1.1236,-1.0302,-0.9535,0.0,0.0,0.0,0.0,-0.8761,-0.9047,-0.8909,-0.8777,-0.9213,-0.9203,-0.9238,-0.9774,-1.0173,-1.0485,0.0,-1.0916,-1.0848,-1.0421,0.0,0.0,0.0,0.0,-1.0196,-1.064,-1.064,-1.0602,-1.0602,-1.0602,-1.0602,-1.0602,-1.0602,-1.0602,-1.0602,-1.0539,-1.0507,-1.0507,-1.0279,-1.0041,-0.9823,0.0,0.0,0.0,0.0,0.0,0.0,0.0,0.0,0.0,0.0,0.0,0.0,0.0,0.0,0.0,0.0,0.0,0.0,0.0,0.0,0.0,0.0,0.0,0.0,0.0,0.0,0.0,0.0,0.0,-1.1497,-1.3051,0.0,0.0,0.0,0.0,-1.4606,-1.488,-1.5159,-1.5468,-1.5419,-1.5644,-1.6212,-1.6252,-1.6375,-1.6633,-1.6633,-1.6647,-1.666,-1.6647,-1.6647,-1.666,-1.666,-1.666,-1.6647,-1.6377,-1.6257,-1.6163,-1.4941,-1.4447,-1.4407,-1.4122,-1.4022,-1.3961,-1.3674,-1.374,-1.3921,-1.34,-1.3367,-1.3383,-1.2257,-1.0928,-0.9697,-0.9399,-0.9086,0.0,0.0,-0.8861,-0.866,-0.9757,-0.9614,-0.9343,-0.9981,-1.0133,-1.0078,-0.993,-0.9767,-0.9763,0.0,-1.0661,-1.0982,-1.0955,0.0,-1.1009,-1.1299,-1.1116,-1.0958,-1.0985,-1.076,-1.0602,-1.0602,-1.0602,-1.0602,-1.0602,-1.0602,-1.0602,-1.0602,-1.0412,-1.0317,-1.0317,-1.0304,-1.0079,-0.9625,-0.9089,0.0,0.0,0.0,0.0,0.0,0.0,0.0,0.0,0.0,0.0,0.0,0.0,0.0,0.0,0.0,0.0,0.0,0.0,0.0,0.0,0.0,0.0,0.0,0.0,0.0,0.0,0.0,0.0,-1.258,-1.3499,0.0,-1.3163,-1.3828,-1.4396,-1.4572,-1.518,-1.5691,-1.5992,-1.6163,-1.6339,-1.654,-1.6765,-1.6938,-1.702,-1.702,-1.702,-1.7006,-1.6632,-1.6458,-1.6458,-1.6458,-1.6458,-1.6444,-1.6337,-1.6297,-1.6208,-1.4901,-1.4557,-1.4727,-1.3783,-1.3282,-1.3049,-1.2258,-1.206,-1.2115,-1.1792,-1.1715,-1.1597,-1.0415,-0.9531,-0.8821,-0.8199,-0.7951,-0.7922,-0.8135,-0.8048,-0.8004,-0.8543,-0.8522,-0.8422,-0.8666,-0.8559,-0.8436,-0.8521,-0.8533,-0.8555,-0.8694,-0.9219,-0.9702,-0.9827,-0.9952,-1.0175,-1.0557,-1.0691,-1.0798,-1.0985,-1.0774,-1.0602,-1.0602,-1.0602,-1.0667,-1.0838,-1.0707,-1.0619,-1.0659,-1.0437,-1.0063,-0.948,-0.9464,-0.9113,-0.8398,-0.8017,-0.7952,0.0,0.0,0.0,0.0,0.0,0.0,0.0,0.0,0.0,0.0,0.0,0.0,0.0,0.0,0.0,0.0,0.0,0.0,0.0,0.0,0.0,0.0,0.0,0.0,0.0,-1.2228,-1.3006,-1.33,-1.4055,-1.4295,-1.3707,-1.4362,-1.4932,-1.5097,-1.5832,-1.6366,-1.6578,-1.6872,-1.7007,-1.7007,-1.722,-1.7314,-1.7314,-1.7314,-1.7314,-1.734,-1.6857,-1.6591,-1.6591,-1.6591,-1.6538,-1.642,-1.5988,-1.5726,-1.5512,-1.4074,-1.3623,-1.3779,-1.3042,-1.2672,-1.2405,-1.1543,-1.1235,-1.1205,-1.0973,-1.0606,-1.0098,-0.9305,-0.8581,-0.7934,-0.7394,-0.7232,-0.7254,-0.7397,-0.749,-0.7606,-0.7738,-0.7839,-0.7885,-0.777,-0.7563,-0.7424,-0.7474,-0.748,-0.7462,-0.7462,-0.8187,-0.8862,-0.9041,-0.9182,-0.9513,-1.0284,-1.0166,-1.0163,-1.0631,-1.0171,-0.9766,-0.9728,-0.9757,-0.986,-1.0031,-1.0162,-1.012,-0.9865,-0.9863,-0.9464,-0.8586,-0.8779,-0.849,-0.7609,-0.741,-0.7314,-0.7323,0.0,0.0,0.0,0.0,0.0,0.0,0.0,0.0,0.0,0.0,0.0,0.0,0.0,0.0,0.0,0.0,0.0,0.0,0.0,0.0,0.0,0.0,0.0,-1.091,-1.1774,-1.2609,-1.3481,-1.4612,-1.509,-1.4511,-1.5548,-1.6251,-1.6226,-1.6809,-1.7142,-1.7116,-1.7409,-1.7556,-1.7556,-1.7582,-1.7608,-1.7608,-1.7608,-1.7608,-1.7608,-1.734,-1.7167,-1.7141,-1.7141,-1.6942,-1.6512,-1.528,-1.4545,-1.4138,-1.252,-1.1731,-1.1609,-1.2047,-1.2217,-1.2138,-1.1592,-1.1384,-1.1354,-1.1099,-1.0131,-0.9052,-0.9052,-0.8177,-0.7105,-0.7105,-0.7098,-0.7098,-0.7098,-0.7275,-0.7481,-0.7481,-0.768,-0.7796,-0.7474,-0.7392,-0.7295,-0.6978,-0.6745,-0.6589,-0.6596,-0.7645,-0.8563,-0.8707,-0.8755,-0.922,-1.0525,-0.9614,0.0,-0.9945,-0.8973,-0.8153,-0.804,-0.8146,-0.8209,-0.8236,-0.8991,-0.9108,-0.826,-0.8679,-0.857,-0.77,-0.8291,-0.8236,-0.7377,-0.7293,-0.6917,-0.6202,0.0,0.0,0.0,0.0,0.0,0.0,0.0,0.0,0.0,0.0,0.0,0.0,0.0,0.0,0.0,0.0,0.0,0.0,0.0,0.0,0.0,-0.8655,-0.9441,-1.0585,-1.1553,-1.2323,-1.2824,-1.3484,-1.3813,-1.3652,-1.4855,-1.5297,-1.4476,-1.5559,-1.5885,-1.4999,-1.5839,-1.6366,-1.6366,-1.7173,-1.7608,-1.7608,-1.7608,-1.7608,-1.7608,-1.734,-1.6702,-1.5757,-1.5757,-1.5167,-1.4129,-1.3604,-1.3286,-1.3085,-1.1476,-1.0779,-1.073,-1.0656,-1.0509,-1.023,-0.9306,-0.8895,-0.8797,-0.8734,-0.84,-0.8018,-0.8018,-0.7703,-0.7305,-0.7305,-0.7208,-0.7098,-0.7098,-0.7165,-0.7209,-0.7209,-0.7415,-0.7563,-0.7382,-0.7258,-0.7161,-0.7068,-0.6571,-0.6252,-0.6554,-0.6663,-0.6817,-0.714,-0.7693,-0.8254,-0.876,-0.8811,0.0,-0.9137,-0.8682,-0.8381,-0.8486,-0.8537,-0.8656,-0.8908,-0.8827,-0.865,-0.8359,-0.8162,-0.771,-0.6924,-0.7085,-0.6873,-0.6249,-0.6557,-0.6629,0.0,0.0,0.0,0.0,0.0,0.0,0.0,0.0,0.0,0.0,0.0,0.0,0.0,0.0,0.0,0.0,0.0,0.0,0.0,0.0,0.0,0.0,-0.845,-0.8963,-0.9782,-1.0725,-1.1652,-1.2406,-1.281,-1.3033,-1.3101,-1.3976,-1.425,-1.3588,-1.4318,-1.4513,-1.3804,-1.4433,-1.4808,-1.4808,-1.5556,-1.5968,-1.5968,-1.6074,-1.6074,-1.5956,-1.57,-1.5068,-1.4196,-1.4146,-1.3637,-1.2748,-1.2074,-1.1725,-1.1514,-1.0019,-0.9386,0.0,0.0,0.0,0.0,0.0,-0.7959,-0.7885,-0.7885,-0.779,-0.7685,-0.7685,-0.7543,-0.7396,-0.7396,-0.7265,-0.7098,-0.7098,-0.7098,-0.7098,-0.7098,-0.7209,-0.7293,-0.7091,-0.6993,-0.6908,-0.6788,-0.6421,-0.619,-0.6433,-0.6282,0.0,-0.6428,-0.6855,-0.735,-0.7895,-0.7855,-0.7873,-0.8208,-0.7753,-0.7422,-0.7469,-0.7539,-0.7653,-0.7841,-0.7932,0.0,0.0,0.0,-0.724,-0.6747,-0.6441,0.0,0.0,0.0,0.0,0.0,0.0,0.0,0.0,-0.6979,-0.7242,0.0,0.0,0.0,0.0,0.0,0.0,0.0,0.0,0.0,0.0,0.0,0.0,0.0,0.0,0.0,0.0,-0.8492,-0.8414,-0.8832,-0.9595,-1.0606,-1.1929,-1.2193,-1.2333,-1.2449,-1.2858,-1.3048,-1.2913,-1.3021,-1.3048,-1.2913,0.0,0.0,0.0,0.0,-1.3642,-1.3642,-1.3884,-1.3884,-1.3642,-1.3418,-1.3067,-1.2641,-1.2491,-1.2222,-1.1789,-1.065,-1.0046,-0.9731,-0.8503,-0.7988,-0.8013,-0.8262,-0.8361,-0.8336,-0.8088,-0.7988,-0.7988,-0.7988,0.0,0.0,-0.7814,-0.7611,-0.7396,-0.7396,-0.7265,-0.7098,-0.7098,-0.7098,-0.7098,-0.7098,-0.7098,-0.7024,-0.677,-0.6702,-0.662,-0.6361,-0.63,-0.63,-0.63,-0.63,-0.63,-0.63,-0.63,-0.6602,-0.7499,-0.6872,-0.6552,-0.7271,-0.6593,-0.6003,-0.5904,0.0,0.0,-0.6076,-0.6749,-0.6844,-0.6049,-0.6645,-0.6955,-0.6853,-0.6241,-0.6276,-0.705,-0.658,-0.6409,-0.6518,-0.6654,-0.6736,-0.6742,-0.6864,-0.7272,0.0,0.0,0.0,0.0,0.0,0.0,0.0,0.0,0.0,0.0,0.0,0.0,0.0,0.0,0.0,-0.8101,-0.841,-0.862,-0.8736,-0.8908,-0.9284,-0.9975,-1.0216,-1.0346,-1.0385,-1.1275,-1.1464,-1.0543,-1.1328,-1.1464,-1.0515,-1.1355,-1.1837,-1.1837,-1.2832,-1.3372,-1.3372,-1.3426,-1.3426,-1.3372,0.0,0.0,-1.1584,-1.1393,-1.0707,-0.9673,-0.9054,-0.8755,-0.8676,-0.8187,-0.7988,-0.8013,-0.8063,-0.8088,-0.8063,-0.8013,-0.7988,-0.7988,-0.7988,-0.7912,-0.7814,-0.7814,-0.7611,-0.7396,-0.7396,-0.7265,0.0,-0.7098,-0.7098,-0.7098,-0.7098,-0.7098,-0.7024,-0.677,-0.6702,-0.662,-0.6361,-0.63,-0.63,-0.63,-0.63,-0.63,-0.63,-0.63,-0.6377,-0.6563,-0.6435,-0.6363,-0.6501,-0.6367,-0.6296,-0.6433,-0.6461,-0.6482,-0.6482,-0.6487,-0.6358,-0.603,-0.6289,-0.6489,-0.657,-0.6544,-0.66,-0.6769,-0.6682,-0.6627,-0.6654,-0.6789,-0.6924,-0.7033,-0.7052,-0.7138,0.0,0.0,0.0,0.0,0.0,0.0,0.0,0.0,0.0,0.0,0.0,-0.6837,-0.7263,0.0,-0.7918,-0.829,-0.8534,-0.871,-0.8784,-0.8798,-0.8907,-0.9172,-0.9227,-0.929,-0.934,-0.9864,-0.9974,-0.9403,-0.9891,-0.9946,-0.9375,-0.9891,-1.0186,-1.0186,-1.0945,-1.1355,-1.1355,-1.1492,-1.1492,-1.1355,-1.1355,-1.0895,-1.0101,-0.9844,-0.9395,-0.877,-0.8384,-0.8212,-0.8187,-0.8063,-0.7988,-0.7988,-0.7988,-0.7988,-0.7988,-0.7988,-0.7988,-0.7988,-0.7988,-0.7912,-0.7814,-0.7814,-0.7611,-0.7396,-0.7396,-0.7265,-0.7098,-0.7098,-0.7098,-0.7098,-0.7098,-0.7098,-0.7024,-0.677,-0.6702,-0.662,-0.6361,-0.63,-0.63,-0.63,-0.63,-0.63,-0.63,-0.63,-0.63,-0.63,-0.63,-0.63,-0.63,-0.63,-0.6338,-0.6428,-0.6447,-0.6447,-0.6447,-0.6428,-0.6363,-0.6254,-0.6416,-0.6532,-0.66,-0.6661,-0.6736,-0.6789,-0.6796,-0.6885,-0.7056,-0.7115,-0.7224,-0.735,-0.7418,-0.7452,0.0,0.0,0.0,0.0,0.0,0.0,0.0,-0.643,-0.6627,-0.7033,-0.7235,-0.7459,-0.7868,-0.804,-0.827,-0.8662,-0.873,-0.877,-0.8892,-0.8912,-0.8899,-0.8872,-0.8784,-0.8777,-0.8899,-0.8912,-0.8912,-0.8912,-0.8912,-0.8912,-0.8912,-0.8912,-0.8912,-0.8912,-0.9161,-0.9299,-0.9299,-0.9513,-0.9513,-0.9299,-0.9299,-0.9161,-0.8899,-0.8655,-0.8539,-0.8492,-0.8142,-0.7988,-0.7988,-0.7988,-0.7988,-0.7988,-0.7988,-0.7988,-0.7988,-0.7988,-0.7988,-0.7988,-0.7988,-0.7912,-0.7807,-0.778,-0.759,-0.7389,-0.7355,-0.7238,-0.7098,-0.7098,-0.7098,-0.7098,-0.7098,-0.7098,-0.7024,-0.677,-0.6702,-0.662,-0.6361,-0.63,-0.63,-0.63,-0.63,-0.63,-0.63,-0.63,-0.63,-0.63,-0.63,-0.63,-0.63,-0.63,-0.63,-0.63,-0.63,-0.6313,-0.634,-0.645,-0.6518,-0.658,-0.6675,-0.6756,-0.6783,-0.679,-0.6823,-0.6945,-0.6979,-0.7129,-0.7396,-0.7423,-0.7403,-0.7337,-0.7441,-0.759,-0.5827,-0.5779,-0.5901,-0.6424,-0.6396,-0.6477,0.0,-0.7421,-0.7396,-0.7797,-0.8038,-0.8226,-0.8403,-0.8533,-0.8669,-0.8852,-0.8885,-0.8892,-0.8912,-0.8912,-0.8858,-0.8723,-0.8811,-0.8892,-0.8912,-0.8912,-0.8912,-0.8912,-0.8912,-0.8912,-0.8912,-0.8912,-0.8912,-0.8912,-0.894,-0.8968,-0.8968,-0.8995,-0.8995,-0.8968,-0.8968,-0.894,-0.8906,-0.8737,-0.8608,-0.8492,-0.8142,-0.7988,-0.7988,-0.7988,-0.7988,-0.7988,-0.7988,-0.7988,-0.7988,-0.7988,-0.7988,-0.7988,-0.7988,-0.7912,-0.7787,-0.7665,-0.7532,-0.7369,-0.7188,-0.7112,-0.7098,-0.7098,-0.7098,-0.7098,-0.7098,-0.7098,-0.7024,-0.677,-0.6702,-0.662,-0.6361,-0.63,-0.63,-0.63,-0.63,-0.63,-0.63,-0.63,-0.63,-0.63,-0.63,-0.63,-0.63,-0.63,-0.63,-0.63,-0.63,-0.6354,-0.6457,-0.6484,-0.6607,-0.6837,-0.687,-0.6938,-0.7045,-0.7045,-0.7058,-0.7071,-0.7251,-0.7362,-0.7396,-0.7532,-0.7148,-0.6357,-0.6368,-0.6882,-0.6166,-0.6254,-0.6403,-0.6728,-0.6871,-0.7069,-0.757,-0.7658,-0.7753,-0.8208,-0.835,-0.8492,-0.8703,-0.877,-0.8838,-0.8899,-0.8912,-0.8912,-0.8912,-0.8831,-0.8757,-0.8716,-0.8737,-0.8777,-0.8777,-0.8858,-0.8912,-0.8912,-0.8912,-0.8912,-0.8912,-0.8912,-0.8912,-0.8912,-0.8912,-0.8912,-0.8912,-0.8912,-0.8912,-0.8912,-0.8912,-0.8912,-0.8906,-0.875,-0.8628,-0.8498,-0.8262,-0.8174,-0.8167,-0.8054,-0.7988,-0.7988,-0.7988,-0.7988,-0.7988,-0.7988,-0.7988,-0.7988,-0.7988,-0.7912,-0.7787,-0.7645,-0.7519,-0.7369,-0.7161,-0.7098,-0.7098,-0.7098,-0.6694,-0.6273,-0.6273,-0.5869,-0.5428,-0.5229,-0.5188,-0.5125,-0.49,-0.4834,-0.4847,-0.4847,-0.4854,-0.4846,-0.4846,-0.4846,-0.4846,-0.4846,-0.5673,-0.63,-0.63,-0.63,-0.63,-0.63,-0.6375,-0.645,-0.6484,-0.6634,-0.6769,-0.6897,-0.6964,-0.6997,-0.6977,-0.6524,-0.626,-0.6182,-0.5795,-0.565,-0.5769,-0.5836,-0.5683,-0.5387,-0.5387,-0.5634,-0.6423,-0.6573,-0.6633,-0.6583,-0.6751,-0.6917,-0.6893,-0.6967,-0.7217,-0.7923,-0.8059,-0.8216,-0.8743,-0.8845,-0.8865,-0.8906,-0.8912,-0.8912,-0.8912,-0.8777,-0.871,-0.871,-0.8413,-0.8332,-0.8656,-0.8825,-0.8912,-0.8912,-0.8912,-0.8912,-0.8912,-0.8912,-0.8912,-0.8912,-0.8912,-0.8912,-0.8912,-0.8912,-0.8912,-0.8912,-0.8912,-0.8912,-0.8878,-0.8424,-0.7973,-0.7549,-0.7423,-0.737,-0.7354,-0.7207,-0.7141,-0.711,-0.711,-0.711,-0.711,-0.711,-0.731,-0.7565,-0.7565,-0.7291,-0.6942,-0.6816,-0.6708,-0.6592,-0.6391,-0.632,-0.6334,-0.6334,-0.5847,-0.5319,-0.5319,-0.4803,-0.4267,-0.4138,-0.4096,-0.405,-0.3832,-0.3808,-0.3802,-0.3802,-0.379,-0.3806,-0.3806,-0.3806,-0.3806,-0.3806,-0.4822,-0.5613,-0.5611,-0.5605,-0.5605,-0.5605,-0.5689,-0.5773,-0.5831,-0.6002,-0.6111,-0.6141,-0.6253,-0.6259,-0.6147,-0.562,-0.5258,-0.5178,-0.4657,-0.4462,-0.4598,-0.4639,-0.4542,-0.435,-0.435,-0.42,-0.647,-0.6498,-0.6383,-0.5867,-0.5741,-0.564,-0.5183,-0.5068,-0.5431,-0.6689,-0.6948,-0.7305,-0.8501,-0.8716,-0.8737,-0.8885,-0.8912,-0.8912,-0.8912,-0.8777,-0.871,-0.871,-0.7678,-0.7402,-0.8575,-0.8825,-0.8912,-0.8912,-0.8912,-0.8912,-0.8912,-0.8912,-0.8912,-0.8912,-0.8912,-0.8912,-0.8912,-0.8912,-0.8912,-0.8912,-0.8912,-0.8912,-0.885,-0.7547,-0.6315,-0.5195,-0.5053,-0.5017,-0.5012,-0.5008,-0.4955,-0.4897,-0.4897,-0.4897,-0.4897,-0.4897,-0.5552,-0.6462,-0.6462,-0.5752,-0.4881,-0.4745,-0.4678,-0.4658,-0.4447,-0.4379,-0.4376,-0.4376,-0.4354,-0.4332,-0.4332,-0.431,-0.4267,-0.4138,-0.4096,-0.405,-0.3832,-0.3792,-0.3809,-0.3809,-0.3809,-0.3805,-0.3805,-0.3805,-0.3805,-0.3805,-0.3847,-0.3882,-0.3875,-0.3883,-0.3883,-0.3883,-0.3887,-0.3961,-0.4158,-0.4121,-0.4147,-0.4278,-0.4286,-0.4286,-0.4282,-0.4324,-0.4349,-0.4345,-0.4498,-0.4594,-0.4594,-0.4728,-0.4271,-0.3249,-0.3249,-0.2698,-0.4797,-0.4863,-0.4906,-0.4908,-0.4931,-0.4965,-0.489,-0.4856,-0.5035,-0.5601,-0.5681,-0.5814,-0.6336,-0.6451,-0.6465,-0.6496,-0.6543,-0.6589,-0.6589,-0.6411,-0.632,-0.632,-0.5967,-0.5854,-0.6266,-0.6468,-0.6894,-0.7654,-0.701,-0.6589,-0.6589,-0.6589,-0.6589,-0.6589,-0.6589,-0.6589,-0.6589,-0.6589,-0.6589,-0.6589,-0.6589,-0.6589,-0.6561,-0.6107,-0.5675,-0.5285,-0.5118,-0.5035,-0.5026,-0.4932,-0.4889,-0.4857,-0.4822,-0.4797,-0.4797,-0.4797,-0.4576,-0.4379,-0.5102,-0.5102,-0.4785,-0.4651,-0.461,-0.4568,-0.4358,-0.4293,-0.431,-0.431,-0.3846,-0.3377,-0.3377,-0.2864,-0.237,-0.231,-0.2305,-0.2301,-0.2217,-0.2211,-0.2211,-0.2211,-0.2163,-0.2144,-0.2144,-0.2144,-0.2155,-0.2204,-0.3113,-0.3802,-0.3795,-0.3791,-0.3791,-0.3791,-0.3874,-0.3964,-0.4025,-0.4084,-0.4147,-0.4192,-0.4196,-0.4177,-0.4128,-0.3636,-0.3322,-0.323,-0.2834,-0.2598,-0.2598,-0.2648,-0.2496,-0.2145,-0.2145,-0.1943,-0.4002,-0.4071,-0.4069,-0.3981,-0.3982,-0.3924,-0.3686,-0.3635,-0.3785,-0.4274,-0.4354,-0.4493,-0.5061,-0.5158,-0.5197,-0.5291,-0.5339,-0.5374,-0.5409,-0.5233,-0.5134,-0.5193,-0.4787,-0.4675,-0.5166,-0.4554,-0.478,-0.6366,-0.581,-0.5389,-0.5389,-0.5389,-0.5389,-0.5389,-0.5389,-0.5389,-0.5389,-0.5389,-0.5389,-0.5389,-0.5389,-0.5166,-0.4749,-0.4749,-0.4526,-0.4108,-0.3981,-0.3923,-0.392,-0.3806,-0.3745,-0.3746,-0.3675,-0.3648,-0.3648,-0.3648,-0.3224,-0.2773,-0.3848,-0.3974,-0.3642,-0.3552,-0.3515,-0.3496,-0.3357,-0.331,-0.3297,-0.3272,-0.2819,-0.2352,-0.2352,-0.1882,-0.1391,-0.1391,-0.1391,-0.1391,-0.1391,-0.1398,-0.1406,-0.1406,-0.137,-0.1337,-0.1337,-0.1337,-0.1342,-0.1403,-0.2276,-0.2934,-0.2931,-0.2932,-0.2896,-0.2896,-0.298,-0.3039,-0.3043,-0.3109,-0.3167,-0.3169,-0.3194,-0.3172,-0.3129,-0.2687,-0.2385,-0.2314,-0.1831,-0.1612,-0.1588,-0.1607,-0.1592,-0.1592,-0.1592,-0.1541,-0.3916,-0.3961,-0.3803,-0.309,-0.2886,-0.2604,-0.171,-0.155,-0.1866,-0.2818,-0.3021,-0.3364,-0.4517,-0.4718,-0.4821,-0.5074,-0.5122,-0.5138,-0.5222,-0.5037,-0.499,-0.5182,-0.4082,-0.3823,-0.5103,-0.3134,-0.2744,-0.5055,-0.5222,-0.5222,-0.5222,-0.5222,-0.5222,-0.5222,-0.5222,-0.5222,-0.5222,-0.5222,-0.5222,-0.5222,-0.5222,-0.4609,-0.3497,-0.3497,-0.2884,-0.1795,-0.1795,-0.1779,-0.1776,-0.1719,-0.1664,-0.1662,-0.1605,-0.1593,-0.1592,-0.1592,-0.1592,-0.1743,-0.2773,-0.2446,-0.1592,-0.1592,-0.1596,-0.1591,-0.1514,-0.1508,-0.1476,-0.1424,-0.1416,-0.1414,-0.1391,-0.1391,-0.1391,-0.1391,-0.1391,-0.1391,-0.1391,-0.1391,-0.1391,-0.1391,-0.1391,-0.1391,-0.1391,-0.1368,-0.1368,-0.137,-0.1371,-0.1381,-0.1396,-0.1347,-0.131,-0.131,-0.1304,-0.1298,-0.1305,-0.1306,-0.1307,-0.131,-0.136,-0.1392,-0.142,-0.1525,-0.1572,-0.1575,-0.1577,-0.1566,-0.1566,-0.1566,-0.1566,-0.1566,-0.1566,-0.1415,-0.214,-0.2157,-0.2116,-0.1925,-0.1878,-0.1797,-0.162,-0.1549,-0.1606,-0.1849,-0.1877,-0.1935,-0.2229,-0.2385,-0.2473,-0.2523,-0.2621,-0.2694,-0.2717,-0.2684,-0.2667,-0.2712,-0.2429,-0.2344,-0.2688,-0.2158,-0.2046,-0.266,-0.2716,-0.2716,-0.2716,-0.2716,-0.2716,-0.2716,-0.2716,-0.2716,-0.2716,-0.2716,-0.2716,-0.2716,-0.2716,-0.2548,-0.227,-0.227,-0.2102,-0.1795,-0.1542,-0.1426,-0.1419,-0.1422,-0.129,-0.111,-0.1298,-0.1355,-0.1314,-0.1314,-0.144,-0.1642,-0.1918,-0.1817,-0.1592,-0.1592,-0.1596,-0.1595,-0.1587,-0.1539,-0.1484,-0.1478,-0.147,-0.1464,-0.1418,-0.1391,-0.1391,-0.1391,-0.1391,-0.1391,-0.1391,-0.1391,-0.1391,-0.1391,-0.1279,-0.1166,-0.1166,-0.1008,-0.0879,-0.087,-0.0872,-0.1002,-0.136,-0.1396,-0.1368,-0.1368,-0.1385,-0.137,-0.1378,-0.1338,-0.1323,-0.1366,-0.1383,-0.1443,-0.1534,-0.1389,-0.131,-0.1304,-0.1109,-0.1011,-0.1011,-0.1011,-0.1011,-0.1011,-0.1011,-0.096,-0.1499,-0.1502,-0.1506,-0.1542,-0.1534,-0.1547,-0.1553,-0.1528,-0.1484,-0.1418,-0.1389,-0.135,-0.1358,-0.144,-0.1533,-0.1587,-0.1675,-0.1757,-0.181,-0.1805,-0.1808,-0.1812,-0.1804,-0.1795,-0.1795,-0.1795,-0.1795,-0.1795,-0.1795,-0.1795,-0.1795,-0.1795,-0.1795,-0.1795,-0.1795,-0.1795,-0.1795,-0.1795,-0.1795,-0.1795,-0.1795,-0.1795,-0.1795,-0.1655,-0.157,-0.157,0.0,-0.1121,-0.112,-0.1128,-0.1033,-0.0914,-0.1023,-0.1058,-0.1022,-0.1013,-0.1112,-0.1238,-0.1238,-0.1238,-0.1289,-0.1516,-0.1606,-0.159,-0.1601,-0.1486,-0.1395,-0.1486,-0.1337,-0.1166,-0.1257,-0.1182,-0.1091,-0.1091,-0.1091,-0.1094,-0.1104,-0.1083,-0.1083,-0.1083,-0.0991,-0.0922,-0.0922,-0.0807,-0.0694,-0.0702,-0.0703,-0.0794,-0.1061,-0.1097,-0.1091,-0.1091,-0.1071,-0.1057,-0.1057,-0.1033,-0.1043,-0.109,-0.111,-0.1162,-0.125,-0.1114,-0.1025,-0.1035,-0.0884,-0.0808,-0.0808,-0.0808,-0.0808,-0.0808,-0.0808,-0.0736,-0.1468,-0.1488,-0.1515,-0.1594,-0.1589,-0.1566,-0.152,-0.1495,-0.1443,-0.1315,-0.1306,-0.129,-0.1302,-0.1351,-0.1431,-0.1566,-0.1642,-0.1728,-0.1785,-0.1809,-0.1806,-0.1808,-0.1789,-0.1801,-0.1801,-0.1797,-0.1795,-0.1795,-0.1795,-0.1795,-0.1795,-0.1795,-0.1795,-0.1795,-0.1795,-0.1795,-0.1795,-0.1795,-0.1795,-0.1795,-0.1795,-0.1767,-0.1711,-0.143,-0.129,-0.1234,-0.0953,-0.0841,-0.084,-0.0828,-0.0822,-0.079,-0.0767,-0.0756,-0.0751,-0.074,-0.0759,-0.0808,-0.0808,-0.0808,-0.0884,-0.1339,-0.1491,-0.1486,-0.1486,-0.1331,-0.1178,-0.1348,-0.1077,-0.0762,-0.0981,-0.0882,-0.0697,-0.0697,-0.0697,-0.07,-0.0689,-0.0691,-0.0691,-0.0691,-0.0668,-0.0668,-0.0668,-0.062,-0.0597,-0.0598,-0.0598,-0.0599,-0.06,-0.066,-0.0697,-0.0697,-0.064,-0.061,-0.061,-0.0667,-0.0697,-0.0723,-0.0771,-0.0811,-0.0789,-0.0776,-0.0757,-0.0757,-0.0709,-0.0685,-0.0685,-0.0686,-0.0687,-0.0687,-0.0687,-0.0565,-0.1258,-0.1413,-0.1595,-0.1602,-0.151,-0.1447,-0.1486,-0.1424,-0.1329,-0.1304,-0.1303,-0.1301,-0.129,-0.1354,-0.142,-0.1512,-0.1614,-0.1713,-0.1783,-0.181,-0.1806,-0.1808,-0.1808,-0.1804,-0.1804,-0.1809,-0.1795,-0.1795,-0.1795,-0.1795,-0.1795,-0.1795,-0.1795,-0.1795,-0.1795,-0.1795,-0.1795,-0.1795,-0.1795,-0.1795,-0.1795,-0.1655,-0.1374,-0.1318,-0.1177,-0.0953,-0.0617,0.0,-0.0477,-0.0475,-0.036,-0.0164,-0.0381,-0.048,-0.0467,-0.0466,-0.0614,-0.0808,-0.0808,-0.0808,-0.0808,-0.091,-0.0935,-0.0934,-0.0931,-0.0905,-0.0876,-0.0909,-0.0855,-0.0778,-0.0763,-0.0735,-0.0711,-0.0711,-0.0711,-0.0688,-0.0691,-0.0691,-0.0691,-0.0691,-0.0572,-0.0453,-0.0453,-0.0262,-0.012,-0.0122,-0.0122,-0.0123,-0.0125,-0.0461,-0.0711,-0.0711,-0.0686,-0.0684,-0.0684,-0.0686,-0.0716,-0.0776,-0.0783,-0.0791,-0.0804,-0.058,-0.048,-0.048,-0.0256,-0.0129,-0.0129,-0.0131,-0.0132,-0.0132,-0.0132,-0.0106,-0.0953,-0.1064,-0.1178,-0.1177,-0.1144,-0.1108,-0.1209,-0.1116,-0.1004,-0.1083,-0.1007,-0.0976,-0.1083,-0.1175,-0.1245,-0.1293,-0.1498,-0.1575,-0.1373,-0.1456,-0.1476,-0.1348,-0.1337,-0.1323,-0.1323,-0.1342,-0.1331,-0.1319,-0.1346,-0.1458,-0.1795,-0.1795,-0.1795,-0.1795,-0.1795,-0.1711,-0.1542,-0.1542,-0.1458,-0.1346,-0.1346,-0.1234,-0.1093,-0.0897,-0.0757,-0.0617,-0.0308,-0.0196,-0.0196,-0.0196,-0.0112,0.0,-0.0137,-0.019,-0.0187,-0.0185,-0.026,-0.0384,-0.0384,-0.0382,-0.0379,-0.0379,-0.0581,-0.0808,-0.0808,-0.0707,-0.063,-0.0749,-0.0598,-0.0397,-0.0511,-0.0436,-0.0339,-0.0339,-0.0342,-0.0344,-0.0344,-0.0344,-0.0344,-0.0344,-0.0246,-0.0197,-0.0197,-0.0074,0.0,0.0,0.0,0.0,0.0,-0.0199,-0.0344,-0.0344,-0.0344,-0.0344,-0.0344,-0.0344,-0.0345,-0.0374,-0.0374,-0.0375,-0.0379,-0.0255,-0.0179,-0.0179,-0.0078,0.0,0.0,0.0,0.0,0.0,0.0,0.0,-0.0654,-0.0719,-0.0812,-0.08,-0.0787,-0.0813,-0.0908,-0.081,-0.0698,-0.0811,-0.0707,-0.0649,-0.0811,-0.0936,-0.1027,-0.104,-0.1263,-0.1298,-0.0938,-0.1073,-0.1143,-0.0919,-0.0911,-0.09,-0.0896,-0.0893,-0.0886,-0.0903,-0.0899,-0.1093,-0.157,-0.1598,-0.1598,-0.1598,-0.1598,-0.1486,-0.1206,-0.1206,-0.1121,-0.0897,-0.0897,-0.0869,-0.0785,-0.0533,-0.0364,-0.0308,-0.0084,0.0,0.0,0.0,0.0,0.0,0.0,0.0,0.0,0.0,0.0,0.0,0.0,0.0,0.0,0.0,-0.028,-0.0631,-0.0631,-0.048,-0.0353,-0.0581,-0.0328,-0.005,-0.0248,-0.0148,0.0,0.0,0.0,0.0,0.0,0.0,0.0,0.0,0.0,0.0,0.0,0.0,0.0,0.0,0.0,0.0,0.0,0.0,0.0,0.0,0.0,0.0,0.0,0.0,0.0,0.0,0.0,0.0,0.0,0.0,0.0,0.0,0.0,0.0,0.0,0.0,0.0,0.0,0.027,0.038,-0.0428,-0.0611,-0.0806,-0.0804,-0.0762,-0.0721,-0.0717,-0.0673,-0.0612,-0.0629,-0.0609,-0.0613,-0.0626,-0.0684,-0.0759,-0.0819,-0.0859,-0.0874,-0.0897,-0.091,-0.0932,-0.0896,-0.0886,-0.0896,-0.0913,-0.0899,-0.0891,-0.089,-0.0905,-0.0925,-0.0981,-0.0981,-0.0981,-0.0981,-0.0981,-0.0981,-0.0925,-0.0925,-0.0925,-0.0897,-0.0897,-0.0729,-0.0449,-0.0421,-0.028,-0.0028,0.0,0.0,0.0,0.0,0.0,0.0,0.0,0.0,0.0,0.0,0.0,0.0,0.0,0.0,0.0,0.0,-0.0026,-0.0076,-0.0076,-0.005,-0.005,-0.0076,-0.005,0.0,-0.0025,-0.0025,0.0,0.0,0.0,0.0,0.0,0.0,0.0,0.0,0.0,0.0,0.0,0.0,0.0,0.0,0.0,0.0,0.0,0.0,0.0,0.0,0.0,0.0,0.0,0.0,0.0,0.0,0.0,0.0,0.0,0.0,0.0,0.0,0.0,0.0,0.0,0.0,0.0,0.0028,0.1115,0.1645,-0.0166,-0.0245,-0.0327,-0.0324,-0.031,-0.0318,-0.0421,-0.034,-0.0265,-0.0402,-0.0325,-0.0267,-0.0394,-0.0465,-0.0524,-0.0502,-0.0636,-0.0639,-0.0394,-0.0486,-0.0528,-0.0377,-0.0354,-0.0356,-0.0354,-0.0355,-0.0352,-0.0345,-0.0368,-0.0364,-0.0364,-0.0701,-0.0897,-0.0897,-0.0897,-0.0813,-0.0589,-0.0589,-0.0505,-0.0364,-0.0364,-0.028,-0.0168,-0.0168,-0.0112,0.0,0.0,0.0,0.0,0.0,0.0,0.0,0.0,0.0,0.0,0.0,0.0,0.0,0.0,0.0,0.0,0.0,0.0,0.0,0.0,0.0,0.0,0.0,0.0,0.0,0.0,0.0,0.0,0.0,0.0,0.0,0.0,0.0,0.0,0.0,0.0,0.0,0.0,0.0,0.0,0.0,0.0,0.0,0.0,0.0,0.0,0.0,0.0,0.0,0.0,0.0,0.0,0.0,0.0,0.0,0.0,0.0,0.0,0.0,0.0,0.0,0.0,0.0,0.0,0.0,0.0504,0.0728,0.0,0.0,0.0,0.0,0.0,-0.0046,-0.0177,-0.0107,-0.0042,-0.0186,-0.0104,-0.0042,-0.0191,-0.0258,-0.0264,-0.0228,-0.0372,-0.0387,-0.0052,-0.0158,-0.0217,-0.0029,0.0,0.0,0.0,0.0,0.0,0.0,0.0,0.0,0.0,-0.0393,-0.0645,-0.0645,-0.0645,-0.0533,-0.028,-0.028,-0.0196,0.0,0.0,0.0,0.0,0.0,0.0,0.0,0.0,0.0,0.0,0.0,0.0,0.0,0.0,0.0,0.0,0.0,0.0,0.0,0.0,0.0,0.0054,0.0406,0.0541,0.0593,0.0953,0.0577,0.0,0.0,0.023,0.056,0.0915,0.0988,0.096,0.099,0.1017,0.1018,0.1049,0.1076,0.1076,0.1076,0.1076,0.1076,0.1076,0.1062,0.1072,0.1072,0.1057,0.1067,0.1073,0.1074,0.1074,0.1074,0.1062,0.0785,0.0051,0.0,0.0,0.0,0.0346,0.0376,0.0027,0.0355,0.0358,0.0,0.0362,0.0364,0.0,0.0728,0.0868,0.056,0.126,0.1791,0.0,0.0,0.0,0.0,0.0,0.0,0.0,0.0,0.0,0.0,0.0,0.0,0.0,0.0,0.0,0.0,0.0,0.0,0.0,0.0,0.0,0.0,0.0,0.0,0.0,0.0,0.0,0.0,0.0,0.0,0.0,0.0,0.0,0.0,0.0,0.0,0.0,0.0,0.0,0.0,0.0,0.0,0.0,0.0,0.0,0.0,0.0,0.0,0.0,0.0,0.0,0.0,0.0,0.0,0.0,0.0,0.0,0.0,0.0,0.0,0.0196,0.14,0.1791,0.2007,0.3206,0.1888,0.0,0.0,0.0762,0.1865,0.305,0.3264,0.3212,0.3346,0.336,0.3402,0.3543,0.3557,0.3557,0.3557,0.3557,0.3557,0.3557,0.3557,0.3557,0.3557,0.3557,0.3553,0.3564,0.3569,0.3569,0.3569,0.3569,0.2598,0.0214,0.0,0.0,0.0,0.1109,0.1256,0.0055,0.1138,0.1232,0.0028,0.1176,0.1204,0.0,0.2407,0.2938,0.1847,0.4222,0.5982,0.0,0.0,0.0,0.0,0.0,0.0,0.0,0.0,0.0,0.0,0.0,0.0,0.0,0.0,0.0,0.0,0.0,0.0,0.0,0.0,0.0,0.0,0.0,0.0,0.0,0.0,0.0,0.0,0.0,0.0,0.0,0.0,0.0,0.0,0.0,0.0,0.0,0.0,0.0,0.0,0.0,0.0,0.0,0.0,0.0,0.0,0.0,0.0,0.0,0.0,0.0476,0.1149,0.0308,0.0504,0.1232,0.1232,0.1232,0.1345,0.2183,0.2463,0.2519,0.291,0.3022,0.3103,0.3475,0.3071,0.2457,0.2453,0.27,0.3055,0.345,0.3514,0.3479,0.3523,0.3528,0.356,0.3581,0.3613,0.3613,0.3613,0.3613,0.3613,0.3613,0.3594,0.3596,0.3596,0.3605,0.3614,0.3603,0.3606,0.3606,0.3606,0.3606,0.3291,0.2531,0.2473,0.2463,0.2463,0.2832,0.286,0.2472,0.2817,0.2854,0.2463,0.2826,0.2854,0.2463,0.3217,0.3413,0.305,0.3804,0.4808,0.0,0.0,0.0,0.0,0.0,0.0,0.0,0.0,0.0,0.0,0.0,0.0,0.0,0.0,0.0,0.0,0.0,0.0,0.0,0.0,0.0,0.0,0.0,0.0,0.0,0.0,0.0,0.0,0.0,0.0,0.0,0.0,0.0,0.0,0.0,0.0,0.0,0.0,0.0,0.0,0.0,0.0,0.0,0.0,0.0,0.0,0.0,0.0252,0.0,0.0672,0.14,0.2407,0.1651,0.1819,0.2491,0.2491,0.2491,0.2574,0.3329,0.3608,0.3664,0.4139,0.4585,0.4947,0.4947,0.4329,0.3707,0.4158,0.4233,0.432,0.4775,0.4858,0.4816,0.4874,0.4882,0.4889,0.4947,0.4955,0.4955,0.4955,0.4955,0.4955,0.4955,0.4971,0.4951,0.4951,0.4969,0.4947,0.4947,0.4947,0.4947,0.4947,0.4947,0.4961,0.4963,0.4129,0.3606,0.3606,0.4033,0.4083,0.3608,0.4027,0.4055,0.3608,0.4055,0.4055,0.3608,0.4055,0.4501,0.4947,0.4947,0.5365,0.0,0.0,0.0,0.0,0.0,0.0,0.0,0.0,0.0,0.0,0.0,0.0,0.0,0.0,0.0,0.0,0.0,0.0,0.0,0.0,0.0,0.0,0.0,0.0,0.0,0.0,0.0,0.0,0.0,0.0,0.0,0.0,0.0,0.0,0.0,0.0,0.0,0.0,0.0,0.0,0.0,0.0056,0.014,0.014,0.0168,0.0,0.0252,0.0896,0.1931,0.1931,0.263,0.372,0.3636,0.3664,0.372,0.372,0.372,0.3748,0.3832,0.386,0.4027,0.5174,0.6288,0.721,0.721,0.5644,0.4083,0.5202,0.5446,0.5596,0.672,0.691,0.6855,0.6997,0.7024,0.7051,0.716,0.721,0.721,0.721,0.721,0.721,0.721,0.721,0.721,0.721,0.721,0.721,0.721,0.721,0.721,0.721,0.721,0.721,0.721,0.5142,0.386,0.386,0.4895,0.5035,0.3916,0.4923,0.5007,0.3888,0.4951,0.4979,0.386,0.4979,0.6093,0.721,0.721,0.721,0.0,0.0,0.0,0.0,0.0,0.0,0.0,0.0,0.0,0.0,0.0,0.0,0.0,0.0,0.0,0.0,0.0,0.0,0.0,0.0,0.0,0.0,0.0,0.0,0.0,0.0,0.0,0.0,0.0,0.0,0.0,0.0,0.0,0.0,0.0,0.0,0.0,0.0,0.0,0.0,0.0,0.0476,0.1372,0.1372,0.1875,0.2742,0.2742,0.291,0.3189,0.3189,0.3888,0.4895,0.3971,0.4167,0.4979,0.4979,0.4979,0.5118,0.6038,0.6343,0.6399,0.6677,0.696,0.721,0.721,0.6816,0.6399,0.671,0.6745,0.6807,0.7083,0.7122,0.7106,0.7133,0.7144,0.7149,0.7204,0.721,0.721,0.721,0.721,0.721,0.721,0.721,0.721,0.721,0.721,0.721,0.721,0.721,0.721,0.721,0.721,0.721,0.721,0.6677,0.6343,0.6343,0.6626,0.6649,0.6371,0.6626,0.6649,0.6371,0.6626,0.6621,0.6343,0.6649,0.6932,0.721,0.721,0.721,0.1249,0.071,0.0,0.0,0.0,0.0,0.0,0.0,0.0,0.0,0.0,0.0,0.0,0.0,0.0,0.0,0.0,0.0,0.0,0.0,0.0,0.0,0.0,0.0,0.0,0.0,0.0,0.0,0.0,0.0,0.0,0.0,0.0,0.0,0.0,0.0,0.0,0.0,0.028,0.0812,0.0812,0.1456,0.263,0.263,0.2994,0.3608,0.3608,0.3916,0.4418,0.4418,0.5146,0.6149,0.5504,0.5648,0.6237,0.6237,0.6237,0.632,0.696,0.721,0.721,0.721,0.721,0.721,0.721,0.721,0.721,0.721,0.721,0.721,0.721,0.721,0.721,0.721,0.721,0.721,0.721,0.721,0.721,0.721,0.721,0.721,0.721,0.721,0.721,0.721,0.721,0.721,0.721,0.721,0.721,0.721,0.721,0.721,0.721,0.721,0.721,0.721,0.721,0.721,0.721,0.721,0.721,0.721,0.721,0.721,0.721,0.721,0.721,0.721,0.721,0.721,0.2787,0.1797,0.0517,0.0489,0.0502,0.0517,0.0491,0.0492,0.0443,0.0271,0.0374,0.0455,0.0305,0.0438,0.0496,0.0315,0.0108,0.0,0.0,0.0,0.0,0.0,0.0,0.0,0.0,0.0,0.0,0.0,0.0,0.0,0.0,0.0,0.0084,0.028,0.028,0.0364,0.056,0.0364,0.0868,0.2071,0.2071,0.2714,0.3888,0.3888,0.3971,0.4139,0.0,0.0,0.5676,0.5676,0.6288,0.721,0.721,0.721,0.721,0.721,0.721,0.721,0.721,0.721,0.721,0.721,0.721,0.721,0.721,0.721,0.721,0.721,0.721,0.721,0.721,0.721,0.721,0.721,0.721,0.721,0.721,0.721,0.721,0.721,0.721,0.721,0.721,0.721,0.721,0.721,0.721,0.721,0.721,0.721,0.721,0.721,0.721,0.721,0.721,0.721,0.721,0.721,0.721,0.721,0.721,0.721,0.721,0.721,0.721,0.721,0.721,0.721,0.721,0.721,0.721,0.721,0.307,0.3017,0.2841,0.2731,0.2804,0.2847,0.2727,0.2702,0.2458,0.1531,0.2088,0.2466,0.1678,0.235,0.2726,0.168,0.0676,0.0,0.0,0.0,0.0,0.0,0.0,0.0,0.0,0.0,0.0,0.0,0.0,0.0,0.0,0.0,0.0476,0.1484,0.1512,0.2015,0.305,0.2043,0.2127,0.3329,0.3329,0.3943,0.5118,0.5118,0.5676,0.6649,0.0,0.676,0.6932,0.6932,0.7043,0.721,0.721,0.721,0.721,0.721,0.721,0.721,0.721,0.721,0.721,0.721,0.721,0.721,0.721,0.721,0.721,0.721,0.721,0.721,0.721,0.721,0.721,0.721,0.721,0.721,0.721,0.721,0.721,0.721,0.721,0.721,0.721,0.721,0.721,0.721,0.721,0.721,0.721,0.721,0.721,0.721,0.721,0.721,0.721,0.721,0.721,0.721,0.721,0.721,0.721,0.721,0.721,0.721,0.721,0.721,0.721,0.721,0.721,0.721,0.721,0.721,0.4563,0.4858,0.5002,0.5123,0.4364,0.3586,0.3445,0.3425,0.3267,0.2775,0.3086,0.3283,0.2861,0.3291,0.3316,0.2117,0.084,0.0,0.0,0.0,0.0,0.0,0.0,0.0,0.0,0.0,0.0,0.0,0.0,0.0,0.0,0.0616,0.1232,0.1791,0.2435,0.3357,0.4561,0.4027,0.4027,0.4561,0.4561,0.5202,0.6376,0.6376,0.6682,0.721,0.0,0.721,0.721,0.721,0.721,0.721,0.721,0.721,0.721,0.721,0.721,0.721,0.721,0.721,0.721,0.721,0.721,0.721,0.721,0.721,0.721,0.721,0.721,0.721,0.721,0.721,0.721,0.721,0.721,0.721,0.721,0.721,0.721,0.721,0.721,0.721,0.721,0.721,0.721,0.721,0.721,0.721,0.721,0.721,0.721,0.721,0.721,0.721,0.721,0.721,0.721,0.721,0.721,0.721,0.721,0.721,0.721,0.721,0.721,0.721,0.721,0.721,0.721,0.721,0.721,0.721,0.5897,0.626,0.6445,0.6725,0.562,0.4453,0.4467,0.4422,0.434,0.4132,0.4287,0.4354,0.4085,0.4122,0.3913,0.3,0.1513,0.0481,0.0463,0.0185,0.0,0.0,0.0,0.0123,0.0391,0.042,0.0415,0.0432,0.0689,0.0713,0.0449,0.1567,0.2351,0.263,0.3553,0.4613,0.5815,0.5815,0.5815,0.5815,0.5815,0.632,0.721,0.721,0.721,0.721,0.721,0.721,0.721,0.721,0.721,0.721,0.721,0.721,0.721,0.721,0.721,0.721,0.721,0.721,0.721,0.721,0.721,0.721,0.721,0.721,0.721,0.721,0.721,0.721,0.721,0.721,0.721,0.721,0.721,0.721,0.721,0.721,0.721,0.721,0.721,0.721,0.721,0.721,0.721,0.721,0.721,0.721,0.721,0.721,0.721,0.721,0.721,0.721,0.721,0.721,0.721,0.721,0.721,0.721,0.721,0.721,0.721,0.721,0.721,0.721,0.721,0.721,0.721,0.721,0.721,0.721,0.6264,0.642,0.6601,0.6768,0.66,0.6506,0.6929,0.6883,0.6538,0.5721,0.6303,0.6629,0.5547,0.5382,0.5379,0.5417,0.3436,0.1853,0.1851,0.0799,0.0,0.0,0.0,0.0444,0.1561,0.1679,0.1667,0.1667,0.2696,0.2847,0.1737,0.2826,0.3971,0.5118,0.523,0.5843,0.7071,0.7071,0.7071,0.7071,0.7071,0.7127,0.721,0.721,0.721,0.721,0.721,0.721,0.721,0.721,0.721,0.721,0.721,0.721,0.721,0.721,0.721,0.721,0.721,0.721,0.721,0.721,0.721,0.721,0.721,0.721,0.721,0.721,0.721,0.721,0.721,0.721,0.721,0.721,0.721,0.721,0.721,0.721,0.721,0.721,0.721,0.721,0.721,0.721,0.721,0.721,0.721,0.721,0.721,0.721,0.721,0.721,0.721,0.721,0.721,0.721,0.721,0.721,0.721,0.721,0.721,0.721,0.721,0.721,0.721,0.721,0.721,0.721,0.721,0.721,0.721,0.721,0.6561,0.6672,0.6785,0.6988,0.6955,0.6931,0.7235,0.724,0.7127,0.6983,0.7261,0.7354,0.6848,0.6054,0.5546,0.5664,0.4295,0.3176,0.3131,0.2682,0.2322,0.2246,0.2235,0.2431,0.2869,0.2925,0.2932,0.2913,0.3334,0.3408,0.2938,0.4055,0.4923,0.5397,0.6121,0.6738,0.7182,0.721,0.721,0.721,0.721,0.721,0.721,0.721,0.721,0.721,0.721,0.721,0.721,0.721,0.721,0.721,0.721,0.721,0.721,0.721,0.721,0.721,0.721,0.721,0.721,0.721,0.721,0.721,0.721,0.721,0.721,0.721,0.721,0.721,0.721,0.721,0.721,0.721,0.721,0.721,0.721,0.721,0.721,0.721,0.721,0.721,0.721,0.721,0.721,0.721,0.721,0.721,0.721,0.721,0.721,0.721,0.721,0.721,0.721,0.721,0.721,0.721,0.721,0.721,0.721,0.721,0.721,0.721,0.721,0.721,0.721,0.721,0.721,0.721,0.721,0.721,0.685,0.6954,0.7065,0.7217,0.7155,0.7127,0.7372,0.7392,0.7446,0.7758,0.7725,0.7606,0.7457,0.673,0.6145,0.618,0.5241,0.445,0.4337,0.3978,0.3704,0.3615,0.3595,0.3747,0.4129,0.4154,0.4164,0.417,0.4529,0.4557,0.4195,0.5314,0.5959,0.5959,0.6765,0.721,0.721,0.721,0.721,0.721,0.721,0.721,0.721,0.721,0.721,0.721,0.721,0.721,0.721,0.721,0.721,0.721,0.721,0.721,0.721,0.721,0.721,0.721,0.721,0.721,0.721,0.721,0.721,0.721,0.721,0.721,0.721,0.721,0.721,0.721,0.721,0.721,0.721,0.721,0.721,0.721,0.721,0.721,0.721,0.721,0.721,0.721,0.721,0.721,0.721,0.721,0.721,0.721,0.721,0.721,0.721,0.721,0.721,0.721,0.721,0.721,0.721,0.721,0.722,0.722,0.721,0.722,0.722,0.721,0.722,0.722,0.721,0.721,0.721,0.721,0.721,0.721,0.7155,0.731,0.7484,0.743,0.7315,0.7283,0.7621,0.7606,0.7622,0.8012,0.7769,0.7452,0.7332,0.7408,0.7446,0.7327,0.6418,0.5677,0.5526,0.4431,0.3642,0.3642,0.3647,0.4111,0.5286,0.5429,0.5429,0.5425,0.6515,0.6682,0.5481,0.6543,0.721,0.721,0.721,0.721,0.721,0.721,0.721,0.721,0.721,0.721,0.721,0.721,0.721,0.721,0.721,0.721,0.721,0.721,0.721,0.721,0.721,0.721,0.721,0.721,0.721,0.721,0.721,0.721,0.721,0.721,0.721,0.721,0.721,0.721,0.721,0.721,0.721,0.721,0.721,0.721,0.721,0.721,0.721,0.721,0.721,0.721,0.721,0.721,0.721,0.721,0.721,0.721,0.721,0.721,0.721,0.721,0.721,0.721,0.721,0.721,0.721,0.721,0.721,0.721,0.7215,0.7215,0.7269,0.7285,0.7215,0.7274,0.7279,0.7215,0.7274,0.7279,0.721,0.721,0.721,0.721,0.721,0.721,0.7614,0.7704,0.7811,0.7581,0.7655,0.7721,0.7588,0.7611,0.7725,0.8028,0.7769,0.7479,0.7441,0.7392,0.7349,0.7311,0.7116,0.691,0.6796,0.6436,0.619,0.6144,0.6177,0.6313,0.6631,0.6697,0.6712,0.6659,0.6988,0.7043,0.6682,0.7015,0.721,0.721,0.721,0.721,0.721,0.721,0.721,0.721,0.721,0.721,0.721,0.721,0.721,0.721,0.721,0.721,0.721,0.721,0.721,0.721,0.721,0.721,0.721,0.721,0.721,0.721,0.721,0.721,0.721,0.721,0.721,0.721,0.721,0.721,0.721,0.721,0.721,0.721,0.721,0.721,0.721,0.721,0.721,0.721,0.721,0.721,0.721,0.721,0.721,0.721,0.721,0.721,0.721,0.721,0.721,0.721,0.721,0.721,0.721,0.721,0.721,0.7215,0.7274,0.7279,0.7317,0.7404,0.7442,0.7381,0.7285,0.737,0.7419,0.741,0.7419,0.7376,0.7279,0.7279,0.7236,0.721,0.721,0.721,0.8045,0.8208,0.8319,0.8156,0.8128,0.8067,0.7727,0.7714,0.7796,0.7924,0.7703,0.7473,0.7424,0.7354,0.7294,0.7274,0.7338,0.7376,0.7279,0.7263,0.7236,0.7221,0.7248,0.7236,0.7215,0.7248,0.7236,0.7215,0.721,0.721,0.721,0.721,0.721,0.721,0.721,0.721,0.721,0.721,0.721,0.721,0.721,0.721,0.721,0.721,0.721,0.721,0.721,0.721,0.721,0.721,0.721,0.721,0.721,0.721,0.721,0.721,0.721,0.721,0.721,0.721,0.721,0.721,0.721,0.721,0.721,0.721,0.721,0.721,0.721,0.721,0.721,0.721,0.721,0.721,0.721,0.721,0.721,0.721,0.721,0.721,0.721,0.721,0.721,0.721,0.721,0.721,0.722,0.7225,0.7225,0.7297,0.7329,0.7329,0.7329,0.7328,0.7376,0.7381,0.7408,0.7484,0.7562,0.7527,0.7457,0.7522,0.7568,0.7489,0.7568,0.75,0.7381,0.7381,0.7372,0.7329,0.7329,0.7329,0.8404,0.8703,0.8897,0.8903,0.868,0.8349,0.8035,0.7922,0.7889,0.7725,0.7595,0.7441,0.7327,0.73,0.7285,0.7198,0.7247,0.7279,0.7198,0.721,0.721,0.721,0.7193,0.7193,0.721,0.7221,0.7193,0.721,0.721,0.721,0.721,0.721,0.721,0.721,0.721,0.721,0.721,0.721,0.721,0.721,0.721,0.721,0.721,0.721,0.721,0.721,0.721,0.721,0.721,0.721,0.721,0.721,0.721,0.721,0.721,0.721,0.721,0.721,0.721,0.721,0.721,0.721,0.721,0.721,0.721,0.721,0.721,0.721,0.721,0.721,0.721,0.721,0.721,0.721,0.721,0.721,0.721,0.721,0.721,0.721,0.721,0.721,0.721,0.721,0.7215,0.7198,0.7263,0.7311,0.7322,0.7419,0.7489,0.7489,0.7489,0.7495,0.7506,0.7506,0.7511,0.7551,0.7655,0.772,0.772,0.772,0.7665,0.7551,0.766,0.7655,0.7506,0.7506,0.75,0.7489,0.7489,0.7489,0.8457,0.8703,0.8897,0.8903,0.8847,0.869,0.8355,0.82,0.806,0.7763,0.75,0.7338,0.7311,0.7258,0.7215,0.7215,0.7204,0.7209,0.7215,0.721,0.721,0.721,0.7236,0.7258,0.7193,0.7241,0.7258,0.7215,0.721,0.721,0.721,0.721,0.721,0.721,0.721,0.721,0.721,0.721,0.721,0.721,0.721,0.721,0.721,0.721,0.721,0.721,0.721,0.721,0.721,0.721,0.721,0.721,0.721,0.721,0.721,0.721,0.721,0.721,0.721,0.721,0.721,0.721,0.721,0.721,0.721,0.721,0.721,0.721,0.721,0.721,0.721,0.721,0.721,0.721,0.721,0.721,0.721,0.721,0.721,0.721,0.721,0.721,0.721,0.721,0.7215,0.7285,0.7289,0.7343,0.7435,0.7473,0.7489,0.7489,0.7489,0.7527,0.7655,0.766,0.7698,0.7821,0.7848,0.7864,0.7864,0.7864,0.7853,0.7826,0.7853,0.778,0.766,0.766,0.7611,0.7489,0.7489,0.7489,0.843,0.8757,0.9045,0.9091,0.9082,0.8958,0.8412,0.8206,0.7978,0.7599,0.7397,0.7289,0.7258,0.7226,0.721,0.721,0.721,0.721,0.721,0.721,0.721,0.721,0.7237,0.7225,0.7215,0.7242,0.7253,0.7215,0.721,0.721,0.721,0.721,0.721,0.721,0.721,0.721,0.721,0.721,0.721,0.721,0.721,0.721,0.721,0.721,0.721,0.721,0.721,0.721,0.721,0.721,0.721,0.721,0.721,0.721,0.721,0.721,0.721,0.721,0.721,0.721,0.721,0.721,0.721,0.721,0.721,0.721,0.721,0.721,0.721,0.721,0.721,0.721,0.721,0.721,0.721,0.721,0.721,0.721,0.721,0.721,0.721,0.721,0.721,0.7231,0.7285,0.7376,0.7446,0.7506,0.7595,0.7655,0.7687,0.7687,0.7687,0.7714,0.778,0.778,0.7837,0.7897,0.7903,0.7903,0.7903,0.7903,0.7903,0.7903,0.7903,0.787,0.778,0.778,0.7747,0.7687,0.7687,0.7687,0.8289,0.8798,0.9224,0.932,0.9323,0.9115,0.8444,0.8136,0.7858,0.739,0.7289,0.7274,0.7198,0.721,0.7204,0.7155,0.7155,0.7144,0.7122,0.7122,0.7122,0.7122,0.7122,0.7122,0.7122,0.7122,0.7122,0.7122,0.7138,0.7155,0.7155,0.7199,0.721,0.721,0.721,0.721,0.721,0.721,0.721,0.721,0.721,0.721,0.721,0.721,0.721,0.721,0.721,0.721,0.721,0.721,0.721,0.721,0.721,0.721,0.721,0.721,0.721,0.721,0.721,0.721,0.721,0.721,0.721,0.721,0.721,0.721,0.721,0.721,0.721,0.721,0.721,0.721,0.721,0.721,0.721,0.721,0.721,0.721,0.721,0.721,0.7198,0.7215,0.7215,0.7285,0.7381,0.75,0.7638,0.7709,0.7731,0.7842,0.7903,0.7903,0.7903,0.7903,0.7903,0.7903,0.7903,0.7903,0.7903,0.7903,0.7903,0.7903,0.7903,0.7903,0.7903,0.7903,0.7903,0.7903,0.7903,0.7903,0.7903,0.7903,0.7986,0.8615,0.926,0.9498,0.9433,0.9176,0.8737,0.8307,0.7858,0.739,0.7252,0.7204,0.7215,0.721,0.7149,0.7051,0.7035,0.6997,0.6866,0.685,0.685,0.685,0.685,0.685,0.685,0.685,0.685,0.685,0.6975,0.7035,0.7035,0.7128,0.721,0.721,0.721,0.721,0.721,0.721,0.721,0.721,0.721,0.721,0.721,0.721,0.721,0.721,0.721,0.721,0.721,0.721,0.721,0.721,0.721,0.721,0.721,0.721,0.721,0.721,0.721,0.721,0.721,0.721,0.721,0.721,0.721,0.721,0.721,0.721,0.721,0.721,0.721,0.721,0.721,0.721,0.721,0.721,0.721,0.721,0.721,0.721,0.7241,0.7284,0.7284,0.7387,0.7506,0.766,0.7693,0.7736,0.7864,0.7892,0.7903,0.7903,0.7903,0.7903,0.7903,0.7903,0.7903,0.7903,0.7903,0.7903,0.7903,0.7903,0.7903,0.7903,0.7903,0.7903,0.7903,0.7903,0.7903,0.7903,0.7903,0.7903,0.814,0.8587,0.9015,0.949,0.9324,0.8995,0.8667,0.8223,0.7778,0.7342,0.722,0.721,0.721,0.7128,0.7073,0.7018,0.6926,0.6866,0.6812,0.6801,0.6801,0.6801,0.6801,0.6801,0.6801,0.6801,0.6801,0.6801,0.6855,0.6883,0.6883,0.6958,0.6986,0.6986,0.6986,0.6986,0.6986,0.6986,0.7018,0.7089,0.7149,0.721,0.721,0.721,0.721,0.721,0.721,0.721,0.721,0.721,0.721,0.721,0.721,0.721,0.721,0.721,0.721,0.721,0.721,0.721,0.721,0.721,0.721,0.721,0.721,0.721,0.721,0.721,0.721,0.721,0.721,0.721,0.721,0.721,0.7231,0.7258,0.7258,0.7231,0.7204,0.7241,0.7273,0.7349,0.7489,0.7584,0.766,0.778,0.7826,0.7842,0.7892,0.7903,0.7903,0.7903,0.7903,0.7903,0.7903,0.7903,0.7903,0.7903,0.7903,0.7903,0.7903,0.7903,0.7903,0.7903,0.7903,0.7903,0.7903,0.7903,0.7903,0.7903,0.7903,0.7903,0.8119,0.8425,0.8656,0.9257,0.9062,0.8663,0.8483,0.8059,0.7579,0.7265,0.716,0.7138,0.7138,0.7068,0.6991,0.6904,0.6817,0.6747,0.6714,0.6709,0.6709,0.6709,0.6709,0.6709,0.6709,0.6709,0.6709,0.6709,0.6736,0.6757,0.6757,0.6785,0.6801,0.6801,0.6801,0.6817,0.685,0.6877,0.6964,0.7057,0.7138,0.721,0.721,0.721,0.721,0.721,0.721,0.721,0.721,0.721,0.721,0.721,0.721,0.721,0.721,0.721,0.721,0.721,0.721,0.721,0.721,0.721,0.721,0.721,0.721,0.721,0.721,0.721,0.721,0.721,0.721,0.721,0.7193,0.722,0.7269,0.7316,0.7349,0.7312,0.7302,0.7338,0.7381,0.7457,0.7671,0.7725,0.7774,0.7886,0.7903,0.7903,0.7903,0.7903,0.7903,0.7903,0.7903,0.7903,0.7903,0.7903,0.7903,0.7903,0.7903,0.7903,0.7903,0.7903,0.7903,0.7903,0.7903,0.7903,0.7903,0.7903,0.7903,0.7903,0.7903,0.7903,0.7685,0.7932,0.817,0.8798,0.8598,0.8262,0.829,0.78,0.7301,0.7209,0.7095,0.7018,0.7018,0.7018,0.691,0.665,0.6607,0.6563,0.6444,0.6428,0.6428,0.6428,0.6428,0.6428,0.6428,0.6428,0.6428,0.6428,0.6536,0.6601,0.6601,0.6741,0.6801,0.6801,0.6801,0.6861,0.7002,0.7111,0.7193,0.7199,0.7204,0.721,0.721,0.721,0.721,0.721,0.721,0.721,0.721,0.721,0.721,0.721,0.721,0.721,0.721,0.721,0.721,0.721,0.721,0.721,0.721,0.721,0.721,0.721,0.721,0.721,0.721,0.721,0.721,0.721,0.721,0.721,0.7209,0.7273,0.7305,0.7338,0.7457,0.7473,0.7473,0.7479,0.7606,0.7687,0.7698,0.779,0.7892,0.7903,0.7903,0.7903,0.7903,0.7903,0.7903,0.7903,0.7903,0.7903,0.7903,0.7903,0.7903,0.7903,0.7903,0.7903,0.7903,0.7903,0.7903,0.7903,0.7903,0.7903,0.7903,0.7903,0.7903,0.7903,0.7903,0.7903,0.7543,0.7712,0.7878,0.8499,0.8232,0.7853,0.8051,0.764,0.7237,0.7221,0.7089,0.6959,0.6883,0.6801,0.6719,0.6607,0.6525,0.646,0.6417,0.6412,0.6412,0.6412,0.6412,0.6412,0.6412,0.6412,0.6412,0.6412,0.645,0.6477,0.6477,0.652,0.6542,0.6542,0.6542,0.6601,0.6747,0.6975,0.7073,0.7073,0.7149,0.721,0.721,0.721,0.721,0.721,0.721,0.721,0.721,0.721,0.721,0.721,0.721,0.721,0.721,0.721,0.721,0.721,0.721,0.721,0.721,0.721,0.721,0.721,0.721,0.721,0.721,0.721,0.7237,0.7252,0.7204,0.7242,0.7301,0.7397,0.7484,0.7606,0.772,0.7627,0.7511,0.7622,0.7671,0.7725,0.7826,0.7875,0.7903,0.7903,0.7903,0.7903,0.7903,0.7903,0.7903,0.7903,0.7903,0.7903,0.7903,0.7903,0.7903,0.7903,0.7903,0.7903,0.7903,0.7903,0.7903,0.7903,0.7903,0.7903,0.7903,0.7903,0.7903,0.7903,0.7903,0.7903,0.7317,0.7482,0.7689,0.8287,0.7975,0.7651,0.806,0.7672,0.7221,0.7304,0.715,0.6948,0.6823,0.6703,0.658,0.6536,0.6466,0.6412,0.6412,0.6412,0.6412,0.6412,0.6412,0.6412,0.6412,0.6412,0.6412,0.6412,0.6412,0.6412,0.6412,0.6412,0.6428,0.6471,0.6515,0.659,0.6741,0.6969,0.7068,0.7073,0.7144,0.721,0.721,0.721,0.721,0.721,0.721,0.721,0.721,0.721,0.721,0.721,0.721,0.721,0.721,0.721,0.721,0.721,0.721,0.721,0.721,0.721,0.7209,0.7242,0.7242,0.7269,0.7302,0.7302,0.7334,0.7349,0.7324,0.7366,0.7452,0.7533,0.7671,0.778,0.7886,0.7747,0.766,0.7741,0.7758,0.778,0.7886,0.7903,0.7903,0.7903,0.7903,0.7903,0.7903,0.7903,0.7903,0.7903,0.7903,0.7903,0.7903,0.7903,0.7903,0.7903,0.7903,0.7903,0.7903,0.7903,0.7903,0.7903,0.7903,0.7903,0.7903,0.7903,0.7903,0.7903,0.7903,0.7903,0.0,0.0,0.0,0.8124,0.7826,0.7583,0.8304,0.7816,0.7287,0.7546,0.7281,0.6969,0.6828,0.6709,0.6558,0.6439,0.6412,0.6412,0.6412,0.6412,0.6412,0.6412,0.6412,0.6412,0.6412,0.6412,0.6412,0.6412,0.6412,0.6412,0.6412,0.6412,0.6466,0.659,0.6741,0.6861,0.7013,0.7128,0.721,0.721,0.721,0.721,0.721,0.721,0.721,0.721,0.721,0.721,0.721,0.721,0.721,0.721,0.721,0.721,0.721,0.721,0.7215,0.7215,0.7215,0.7221,0.7221,0.7221,0.7247,0.7311,0.7311,0.7397,0.7489,0.7489,0.7495,0.7495,0.7495,0.7611,0.7703,0.7703,0.7785,0.7903,0.7903,0.7903,0.7903,0.7903,0.7903,0.7903,0.7903,0.7903,0.7903,0.7903,0.7903,0.7903,0.7903,0.7903,0.7903,0.7903,0.7903,0.7903,0.7903,0.7903,0.7903,0.7903,0.7903,0.7903,0.7903,0.7903,0.7903,0.7903,0.7903,0.7903,0.7903,0.7903,0.7903,0.7903,0.7903,0.7903,0.7045,0.0,0.0,0.0,0.0,0.0,0.7737,0.7589,0.7415,0.7678,0.7415,0.7159,0.7216,0.6966,0.6714,0.6563,0.6466,0.6412,0.6412,0.6412,0.6412,0.6412,0.6412,0.6412,0.6412,0.6412,0.6412,0.0,0.6412,0.6412,0.6412,0.6412,0.6466,0.659,0.6741,0.6861,0.7013,0.7128,0.721,0.721,0.721,0.721,0.721,0.721,0.721,0.721,0.721,0.721,0.721,0.721,0.721,0.721,0.721,0.721,0.721,0.721,0.7237,0.7285,0.7285,0.7345,0.7415,0.7415,0.7442,0.7441,0.7441,0.7462,0.7489,0.7489,0.7584,0.7649,0.7649,0.7676,0.7703,0.7703,0.7785,0.7903,0.7903,0.7903,0.7903,0.7903,0.7903,0.7903,0.7903,0.7903,0.7903,0.7903,0.7903,0.7903,0.7903,0.7903,0.7903,0.7903,0.7903,0.7903,0.7903,0.7903,0.7903,0.7903,0.7903,0.7903,0.7903,0.7903,0.7903,0.7903,0.7903,0.7903,0.7903,0.7903,0.7903,0.7903,0.7903,0.7903,0.0,0.0,0.0,0.0,0.0,0.0,0.7862,0.7667,0.7471,0.7667,0.7476,0.7256,0.7172,0.6995,0.6839,0.6714,0.6612,0.6525,0.6423,0.6412,0.6412,0.6412,0.6412,0.6412,0.6412,0.6412,0.6412,0.6412,0.6412,0.6412,0.6412,0.6412,0.6493,0.6687,0.6763,0.6883,0.7084,0.7149,0.721,0.721,0.721,0.721,0.721,0.721,0.721,0.721,0.721,0.721,0.721,0.721,0.721,0.721,0.721,0.7215,0.723,0.723,0.7307,0.7381,0.7381,0.743,0.7489,0.7489,0.7522,0.7595,0.7595,0.7627,0.7665,0.7665,0.772,0.7774,0.7774,0.7774,0.7774,0.7774,0.7853,0.7903,0.7903,0.7903,0.7903,0.7903,0.7903,0.7903,0.7903,0.7903,0.7903,0.7903,0.7903,0.7903,0.7903,0.7903,0.7903,0.7903,0.7903,0.7903,0.7903,0.7903,0.7903,0.7903,0.7903,0.7903,0.7903,0.7903,0.7903,0.7903,0.7903,0.7903,0.7903,0.7903,0.7903,0.7903,0.7903,0.7903,0.0,0.0,0.0,0.0,0.0,0.0,0.8247,0.7904,0.7488,0.7607,0.7516,0.7298,0.6963,0.6967,0.7006,0.6842,0.6826,0.6746,0.646,0.6428,0.6428,0.6412,0.6412,0.6412,0.6412,0.6412,0.6412,0.6412,0.6412,0.6412,0.6412,0.6412,0.6515,0.6774,0.6796,0.691,0.7188,0.7204,0.721,0.721,0.721,0.721,0.721,0.721,0.721,0.721,0.721,0.721,0.721,0.721,0.721,0.721,0.721,0.723,0.7305,0.7305,0.7392,0.7511,0.7511,0.7516,0.7557,0.7557,0.7633,0.772,0.772,0.779,0.7903,0.7903,0.7903,0.7903,0.7903,0.7903,0.7903,0.7903,0.7903,0.7903,0.7903,0.7903,0.7903,0.7903,0.7903,0.7903,0.7903,0.7903,0.7903,0.7903,0.7903,0.7903,0.7903,0.7903,0.7903,0.7903,0.7903,0.7903,0.7903,0.7903,0.7903,0.7903,0.7903,0.7903,0.7903,0.7903,0.7903,0.7903,0.7903,0.7903,0.7903,0.7903,0.7903,0.7903,0.7903,0.7903,0.0,0.0,0.0,0.0,0.0,0.0,0.7661,0.7682,0.7738,0.7751,0.7575,0.7397,0.7434,0.7379,0.7238,0.7006,0.7047,0.6982,0.6605,0.6558,0.652,0.6423,0.6412,0.6412,0.6412,0.6412,0.6412,0.6412,0.6412,0.6412,0.6412,0.6412,0.6477,0.6623,0.6752,0.6872,0.7046,0.7138,0.721,0.721,0.721,0.721,0.721,0.721,0.721,0.721,0.721,0.721,0.721,0.721,0.721,0.721,0.721,0.723,0.7305,0.7305,0.7446,0.7665,0.7665,0.7725,0.7832,0.7832,0.7848,0.787,0.787,0.7886,0.7903,0.7903,0.7903,0.7903,0.7903,0.7903,0.7903,0.7903,0.7903,0.7903,0.7903,0.7903,0.7903,0.7903,0.7903,0.7903,0.7903,0.7903,0.7903,0.7903,0.7903,0.7903,0.7903,0.7903,0.7903,0.7903,0.7903,0.7903,0.7903,0.7903,0.7903,0.7903,0.7903,0.7903,0.7903,0.7903,0.7903,0.7903,0.7903,0.7903,0.7903,0.7903,0.7903,0.7903,0.7903,0.7903,0.0,0.0,0.0,0.8038,0.0,0.0,0.0,0.7645,0.7611,0.7687,0.7552,0.7425,0.7485,0.7451,0.7349,0.7216,0.7263,0.7197,0.6944,0.6787,0.6661,0.6601,0.6596,0.6596,0.6596,0.6536,0.6477,0.6417,0.6412,0.6412,0.6412,0.6412,0.6466,0.659,0.6741,0.6861,0.7013,0.7128,0.721,0.721,0.721,0.721,0.721,0.721,0.721,0.721,0.721,0.721,0.721,0.7354,0.741,0.7388,0.7276,0.7317,0.7403,0.7468,0.7633,0.7785,0.7785,0.7853,0.7903,0.7903,0.7903,0.7903,0.7903,0.7903,0.7903,0.7903,0.7903,0.7903,0.7903,0.7903,0.7903,0.7903,0.7903,0.7903,0.7903,0.7903,0.7903,0.7903,0.7903,0.7903,0.7903,0.7903,0.7903,0.7903,0.7903,0.7903,0.7903,0.7903,0.7903,0.7903,0.7903,0.7903,0.7903,0.7903,0.7903,0.7903,0.7903,0.7903,0.7903,0.7903,0.7903,0.7903,0.7903,0.7903,0.7903,0.7903,0.7903,0.7903,0.7903,0.7903,0.0,0.0,0.0,0.0,0.0,0.7936,0.0,0.0,0.0,0.7571,0.7521,0.7435,0.7441,0.7428,0.7421,0.7397,0.7431,0.7386,0.7211,0.7035,0.6909,0.6833,0.681,0.6816,0.6826,0.668,0.6536,0.6488,0.6417,0.6401,0.6444,0.6423,0.6455,0.6558,0.6725,0.685,0.6948,0.7111,0.7238,0.7265,0.7265,0.7293,0.7349,0.7349,0.7349,0.7349,0.7349,0.7349,0.7376,0.7576,0.7687,0.7643,0.746,0.7496,0.7676,0.7684,0.7865,0.8086,0.7933,0.7994,0.8086,0.7933,0.7903,0.7903,0.7903,0.7903,0.7903,0.7903,0.7903,0.7903,0.7903,0.7903,0.7903,0.7903,0.7903,0.7903,0.7903,0.7903,0.7903,0.7903,0.7903,0.7903,0.7903,0.7903,0.7903,0.7903,0.7903,0.7903,0.7903,0.7903,0.7903,0.7903,0.7903,0.7903,0.7903,0.7903,0.7903,0.7903,0.7903,0.7903,0.7903,0.7903,0.7903,0.7903,0.7903,0.7903,0.7903,0.7903,0.7903,0.7903,0.7903,0.7903,0.0,0.0,0.0,0.0,0.8248,0.0,0.0,0.0,0.7716,0.7617,0.0,0.7591,0.7577,0.0,0.0,0.7426,0.7495,0.7459,0.7155,0.7242,0.7255,0.6996,0.6867,0.6842,0.6964,0.663,0.6515,0.6747,0.6464,0.6377,0.6563,0.6471,0.6417,0.6428,0.6655,0.6812,0.6823,0.7073,0.7321,0.7549,0.7549,0.7687,0.7903,0.7903,0.7903,0.7903,0.7903,0.7903,0.7903,0.7937,0.7965,0.7949,0.7793,0.7979,0.8253,0.7862,0.8166,0.8702,0.8116,0.8299,0.8702,0.8086,0.7903,0.7903,0.7903,0.7903,0.7903,0.7903,0.7903,0.7903,0.7903,0.7903,0.7903,0.7903,0.7903,0.7903,0.7903,0.7903,0.7903,0.7903,0.7903,0.7903,0.7903,0.7903,0.7903,0.7903,0.7903,0.7903,0.7903,0.7903,0.7903,0.7903,0.7903,0.7903,0.7903,0.7903,0.7903,0.7903,0.7903,0.7903,0.7903,0.7903,0.7903,0.7903,0.7903,0.7903,0.7903,0.7903,0.7903,0.7903,0.7903,0.7903,0.0,0.0,0.0,0.0,0.0,0.0,0.774,0.0,0.7719,0.0,0.0,0.0,0.0,0.0,0.0,0.0,0.7493,0.7388,0.7129,0.7208,0.7234,0.7118,0.7147,0.7145,0.7116,0.6898,0.677,0.679,0.6661,0.6592,0.6611,0.6542,0.6563,0.6617,0.6878,0.7118,0.7249,0.7526,0.7709,0.7826,0.7826,0.7881,0.7992,0.7992,0.7992,0.7992,0.7992,0.7992,0.802,0.8208,0.8341,0.8401,0.8425,0.8425,0.8411,0.839,0.8624,0.8854,0.858,0.8671,0.8854,0.858,0.8482,0.8458,0.8244,0.8183,0.8152,0.7964,0.7903,0.7903,0.7903,0.7903,0.7903,0.7903,0.7903,0.7903,0.7903,0.7903,0.7903,0.7903,0.7903,0.7903,0.7903,0.7903,0.7903,0.7903,0.7903,0.7903,0.7903,0.7903,0.7903,0.7903,0.7903,0.7903,0.7903,0.7903,0.7903,0.7903,0.7903,0.7903,0.7903,0.7903,0.7903,0.7903,0.7903,0.7903,0.7903,0.7903,0.7903,0.7903,0.7903,0.7903,0.8662,0.0,0.0,0.0,0.0,0.0,0.0,0.0,0.0,0.0,0.0,0.0,0.0,0.0,0.0,0.0,0.0,0.7375,0.0,0.7199,0.7247,0.0,0.0,0.7466,0.7311,0.7121,0.6975,0.6966,0.6924,0.6863,0.6813,0.6868,0.6941,0.7053,0.7264,0.7487,0.7673,0.7904,0.8042,0.8125,0.8125,0.818,0.8242,0.8242,0.8242,0.8242,0.8242,0.8242,0.8269,0.8557,0.8747,0.8859,0.902,0.8945,0.8736,0.8859,0.9007,0.9129,0.8946,0.8885,0.8915,0.8976,0.8946,0.8824,0.8494,0.8464,0.8458,0.8116,0.8025,0.8025,0.8025,0.7964,0.7903,0.7903,0.7903,0.7903,0.7903,0.7903,0.7903,0.7903,0.7903,0.7903,0.7903,0.7903,0.7903,0.7903,0.7903,0.7903,0.7903,0.7903,0.7903,0.7903,0.7903,0.7903,0.7903,0.7903,0.7903,0.7903,0.7903,0.7903,0.7903,0.7903,0.7903,0.7903,0.7903,0.7903,0.7903,0.7903,0.7903,0.7903,0.7903,0.7903,0.0,0.0,0.0,0.841,0.0,0.0,0.0,0.0,0.7982,0.0,0.0,0.0,0.0,0.0,0.0,0.0,0.0,0.0,0.0,0.0,0.0,0.0,0.0,0.0,0.7606,0.724,0.7102,0.7367,0.7193,0.7172,0.7373,0.7552,0.7671,0.7665,0.7793,0.7888,0.7888,0.7974,0.8152,0.8484,0.8484,0.8629,0.8885,0.8885,0.8885,0.8885,0.8885,0.8885,0.8892,0.9089,0.9179,0.9213,0.9483,0.9575,0.9499,0.9078,0.9281,0.97,0.9098,0.8885,0.8946,0.9214,0.9129,0.8824,0.8494,0.861,0.8824,0.8488,0.8372,0.8372,0.8372,0.8152,0.7903,0.7903,0.7903,0.7903,0.7903,0.7903,0.7903,0.7903,0.7903,0.7903,0.7903,0.7903,0.7903,0.7903,0.7903,0.7903,0.7903,0.7903,0.7903,0.7903,0.7903,0.7903,0.7903,0.7903,0.7903,0.7903,0.7903,0.7903,0.7903,0.7903,0.7903,0.7903,0.7903,0.7903,0.7903,0.7903,0.7903,0.7903,0.7903,0.7903,0.0,0.0,0.7639,0.7328,0.0,0.0,0.0,0.0,0.0,0.0,0.0,0.0,0.0,0.0,0.0,0.0,0.0,0.0,0.0,0.0,0.0,0.0,0.0,0.0,0.0,0.7346,0.7329,0.7522,0.7483,0.7522,0.7708,0.7797,0.7869,0.7967,0.81,0.8251,0.844,0.853,0.8657,0.8768,0.8768,0.8823,0.8912,0.8912,0.8912,0.8912,0.8912,0.8912,0.8912,0.896,0.913,0.9342,0.9415,0.9578,0.9724,0.9559,0.964,0.9761,0.9579,0.9488,0.9518,0.9609,0.9579,0.9427,0.9098,0.9068,0.9068,0.8549,0.8403,0.8336,0.8122,0.7994,0.7903,0.7903,0.7903,0.7903,0.7903,0.7903,0.7903,0.7903,0.7903,0.7903,0.7903,0.7903,0.7903,0.7903,0.7903,0.7903,0.7903,0.7903,0.7903,0.7903,0.7903,0.7903,0.7903,0.7979,0.8023,0.8023,0.8023,0.8023,0.8023,0.7946,0.7903,0.7903,0.7903,0.7903,0.7903,0.7903,0.7903,0.7903,0.7903,0.7903,0.5278,0.595,0.0,0.6711,0.736,0.0,0.8086,0.0,0.8328,0.0,0.0,0.0,0.0,0.0,0.0,0.0,0.0,0.0,0.0,0.7038,0.0,0.0,0.0,0.0,0.0,0.0,0.7479,0.767,0.7725,0.7827,0.8037,0.8188,0.8283,0.8381,0.8473,0.8607,0.8764,0.8865,0.8912,0.8912,0.8912,0.8912,0.8912,0.8912,0.8912,0.8912,0.8912,0.8912,0.8912,0.8967,0.913,0.9342,0.9422,0.9578,0.9724,0.9771,0.9792,0.9792,0.9792,0.9792,0.9792,0.9792,0.9792,0.9731,0.9396,0.9396,0.9366,0.8854,0.8732,0.8671,0.8452,0.8238,0.8086,0.8086,0.7994,0.7903,0.7903,0.7903,0.7903,0.7903,0.7903,0.7903,0.7903,0.7903,0.7903,0.7903,0.7903,0.7903,0.7903,0.7903,0.7903,0.7903,0.7903,0.7903,0.7903,0.8017,0.8083,0.8083,0.8083,0.8083,0.8083,0.7968,0.7903,0.7903,0.7903,0.7903,0.7903,0.7903,0.7903,0.7903,0.7903,0.7903]},{"header":{"parameterUnit":"m.s-1","parameterCategory":1,"la1":30.6,"la2":29.2853,"lo1":-89.7004,"lo2":-87.6739,"dy":0.0162,"dx":0.0183,"nx":112,"ny":82,"refTime":"2024-09-28T06:00:00:Z","depth":0,"parameterNumber":3,"parameterNumberName":"V-component_of_WINDS"},"data":[0.0,0.0,0.0,0.0,0.0,0.0,0.0,0.0,0.0,0.0,0.0,0.0,0.0,0.0,0.0,0.0,0.0,0.0,0.0,0.0,0.0,0.0,0.0,0.0,0.0,0.0,0.0,0.0,0.0,0.0,0.0,0.0,0.0,0.0,0.0,0.0,0.0,0.0,0.0,0.0,0.0,0.0,0.0,0.0,0.0,0.0,0.0,0.0,0.0,0.0,0.0,0.0,0.0,0.0,0.0,0.0,0.0,0.0,0.0,0.0,0.0,0.0,0.0,0.0,0.0,0.0,0.0,0.0,0.0,0.0,0.0,0.0,0.0,0.0,0.0,0.0,0.0,0.0,0.0,0.0,0.0,0.0,0.0,0.0,0.0,0.0,0.0,0.0,0.0,0.0,2.568,2.6531,2.7316,2.7756,2.7655,2.7063,2.6057,2.4575,0.0,0.0,0.0,0.0,0.0,0.0,0.0,0.0,0.0,0.0,0.0,0.0,0.0,0.0,0.0,0.0,0.0,0.0,0.0,0.0,0.0,0.0,0.0,0.0,0.0,0.0,0.0,0.0,0.0,0.0,0.0,0.0,0.0,0.0,0.0,0.0,0.0,0.0,0.0,0.0,0.0,0.0,0.0,0.0,0.0,0.0,0.0,0.0,0.0,0.0,0.0,0.0,0.0,0.0,0.0,0.0,0.0,0.0,0.0,0.0,0.0,0.0,0.0,0.0,0.0,0.0,0.0,0.0,0.0,0.0,0.0,0.0,0.0,0.0,0.0,0.0,0.0,0.0,0.0,0.0,0.0,0.0,0.0,0.0,0.0,0.0,0.0,0.0,0.0,0.0,0.0,0.0,0.0,0.0,0.0,0.0,0.0,0.0,0.0,0.0,0.0,0.0,0.0,0.0,2.5169,2.6547,2.735,2.7553,2.6928,2.6767,2.6057,2.4575,0.0,0.0,0.0,0.0,0.0,0.0,0.0,0.0,0.0,0.0,0.0,0.0,0.0,0.0,0.0,0.0,0.0,0.0,0.0,0.0,0.0,0.0,0.0,0.0,0.0,0.0,0.0,0.0,0.0,0.0,0.0,0.0,0.0,0.0,0.0,0.0,0.0,0.0,0.0,0.0,0.0,0.0,0.0,0.0,0.0,0.0,0.0,0.0,0.0,0.0,0.0,0.0,0.0,0.0,0.0,0.0,0.0,0.0,0.0,0.0,0.0,0.0,0.0,0.0,0.0,0.0,0.0,0.0,0.0,0.0,0.0,0.0,0.0,0.0,0.0,0.0,0.0,0.0,0.0,0.0,0.0,0.0,0.0,0.0,0.0,0.0,0.0,0.0,0.0,0.0,0.0,0.0,0.0,0.0,0.0,0.0,0.0,0.0,0.0,0.0,0.0,0.0,0.0,2.4695,2.5507,2.6598,2.6996,2.7063,2.6733,2.67,2.6057,2.4575,2.3105,0.0,0.0,0.0,0.0,0.0,0.0,0.0,0.0,0.0,0.0,0.0,0.0,0.0,0.0,0.0,0.0,0.0,0.0,0.0,0.0,0.0,0.0,0.0,0.0,0.0,0.0,0.0,0.0,0.0,0.0,0.0,0.0,0.0,0.0,0.0,0.0,0.0,0.0,0.0,0.0,0.0,0.0,0.0,0.0,0.0,0.0,0.0,0.0,0.0,0.0,0.0,0.0,0.0,0.0,0.0,0.0,0.0,0.0,0.0,0.0,0.0,0.0,0.0,0.0,0.0,0.0,0.0,0.0,0.0,0.0,0.0,0.0,0.0,0.0,0.0,0.0,0.0,0.0,0.0,0.0,0.0,0.0,0.0,0.0,0.0,0.0,0.0,0.0,0.0,0.0,0.0,0.0,0.0,0.0,0.0,0.0,0.0,0.0,0.0,0.0,0.0,0.0,2.5642,2.6082,2.6632,2.67,2.67,2.67,2.6395,2.5617,2.4338,2.2699,0.0,0.0,0.0,0.0,0.0,0.0,0.0,0.0,0.0,0.0,0.0,0.0,0.0,0.0,0.0,0.0,0.0,0.0,0.0,0.0,0.0,0.0,0.0,0.0,0.0,0.0,0.0,0.0,0.0,0.0,0.0,0.0,0.0,0.0,0.0,0.0,0.0,0.0,0.0,0.0,0.0,0.0,0.0,0.0,0.0,0.0,0.0,0.0,0.0,0.0,0.0,0.0,0.0,0.0,0.0,0.0,0.0,0.0,0.0,0.0,0.0,0.0,0.0,0.0,0.0,0.0,0.0,0.0,0.0,0.0,0.0,0.0,0.0,0.0,0.0,0.0,0.0,0.0,0.0,0.0,0.0,0.0,0.0,0.0,0.0,0.0,0.0,0.0,0.0,0.0,0.0,0.0,0.0,0.0,0.0,0.0,0.0,0.0,0.0,0.0,0.0,0.0,2.5786,2.6632,2.6691,2.67,2.67,2.67,2.5455,2.4338,2.3519,2.14,0.0,0.0,0.0,0.0,0.0,0.0,0.0,0.0,0.0,0.0,0.0,0.0,0.0,0.0,0.0,0.0,0.0,0.0,0.0,0.0,0.0,0.0,0.0,0.0,0.0,0.0,0.0,0.0,0.0,0.0,0.0,0.0,0.0,0.0,0.0,0.0,0.0,0.0,0.0,0.0,0.0,0.0,0.0,0.0,0.0,0.0,0.0,0.0,0.0,0.0,0.0,0.0,0.0,0.0,0.0,0.0,0.0,0.0,0.0,0.0,0.0,0.0,0.0,0.0,0.0,0.0,0.0,0.0,0.0,0.0,0.0,0.0,0.0,0.0,0.0,0.0,0.0,0.0,0.0,0.0,0.0,0.0,0.0,0.0,0.0,0.0,0.0,0.0,0.0,0.0,0.0,0.0,0.0,0.0,0.0,0.0,0.0,0.0,0.0,0.0,0.0,0.0,2.538,2.6184,0.0,2.67,2.67,2.67,2.6192,2.5177,2.3511,0.0,0.0,0.0,0.0,0.0,0.0,0.0,0.0,0.0,0.0,0.0,0.0,0.0,0.0,0.0,0.0,0.0,0.0,0.0,0.0,0.0,0.0,0.0,0.0,0.0,0.0,0.0,0.0,0.0,0.0,0.0,0.0,0.0,0.0,0.0,0.0,0.0,0.0,0.0,0.0,0.0,0.0,0.0,0.0,0.0,0.0,0.0,0.0,0.0,0.0,0.0,0.0,0.0,0.0,0.0,0.0,0.0,0.0,0.0,0.0,0.0,0.0,0.0,0.0,0.0,0.0,0.0,0.0,0.0,0.0,0.0,0.0,0.0,0.0,0.0,0.0,0.0,0.0,0.0,0.0,0.0,0.0,0.0,0.0,0.0,0.0,0.0,0.0,0.0,0.0,0.0,0.0,0.0,0.0,0.0,0.0,0.0,0.0,0.0,0.0,0.0,0.0,2.4244,2.5404,2.6183,0.0,2.67,2.67,2.67,2.6284,2.5167,2.3173,0.0,0.0,0.0,0.0,0.0,0.0,0.0,0.0,0.0,0.0,0.0,0.0,0.0,0.0,0.0,0.0,0.0,0.0,0.0,0.0,0.0,0.0,0.0,0.0,0.0,0.0,0.0,0.0,0.0,0.0,0.0,0.0,0.0,0.0,0.0,0.0,0.0,0.0,0.0,0.0,0.0,0.0,0.0,0.0,0.0,0.0,0.0,0.0,0.0,0.0,0.0,0.0,0.0,0.0,0.0,0.0,0.0,0.0,0.0,0.0,0.0,0.0,0.0,0.0,0.0,0.0,0.0,0.0,0.0,0.0,0.0,0.0,0.0,0.0,0.0,0.0,0.0,0.0,0.0,0.0,0.0,0.0,0.0,0.0,0.0,0.0,0.0,0.0,0.0,0.0,0.0,0.0,0.0,0.0,0.0,0.0,0.0,0.0,0.0,0.0,0.0,0.0,2.4327,2.5917,2.6842,2.6716,2.6708,2.6708,2.6708,2.5433,2.398,0.0,0.0,0.0,0.0,0.0,0.0,0.0,0.0,0.0,0.0,0.0,0.0,0.0,0.0,0.0,0.0,0.0,0.0,0.0,0.0,0.0,0.0,0.0,0.0,0.0,0.0,0.0,0.0,0.0,0.0,0.0,0.0,0.0,0.0,0.0,0.0,0.0,0.0,0.0,0.0,0.0,0.0,0.0,0.0,0.0,0.0,0.0,0.0,0.0,0.0,0.0,0.0,0.0,0.0,0.0,0.0,0.0,0.0,0.0,0.0,0.0,0.0,0.0,0.0,0.0,0.0,0.0,0.0,0.0,0.0,0.0,0.0,0.0,0.0,0.0,0.0,0.0,0.0,0.0,0.0,0.0,0.0,0.0,0.0,0.0,0.0,0.0,0.0,0.0,0.0,0.0,0.0,0.0,0.0,0.0,0.0,0.0,0.0,0.0,0.0,0.0,0.0,0.0,2.4808,2.6523,2.7494,2.7225,2.7194,2.7194,2.7194,2.6811,2.5485,2.2905,0.0,0.0,0.0,0.0,0.0,0.0,0.0,0.0,0.0,0.0,0.0,0.0,0.0,0.0,0.0,0.0,0.0,0.0,0.0,0.0,0.0,0.0,0.0,0.0,0.0,0.0,0.0,0.0,0.0,0.0,0.0,0.0,0.0,0.0,0.0,0.0,0.0,0.0,0.0,0.0,0.0,0.0,0.0,0.0,0.0,0.0,0.0,0.0,0.0,0.0,0.0,0.0,0.0,0.0,0.0,0.0,0.0,0.0,0.0,0.0,0.0,0.0,0.0,0.0,0.0,0.0,0.0,0.0,0.0,0.0,0.0,0.0,0.0,0.0,0.0,0.0,0.0,0.0,0.0,0.0,0.0,0.0,0.0,0.0,0.0,0.0,0.0,0.0,0.0,0.0,0.0,0.0,0.0,0.0,0.0,0.0,0.0,0.0,0.0,0.0,0.0,0.0,2.5017,2.681,2.7855,2.7636,2.7614,2.7614,2.7614,2.7636,2.6465,2.3676,0.0,0.0,0.0,0.0,0.0,0.0,0.0,0.0,0.0,0.0,0.0,0.0,0.0,0.0,0.0,0.0,0.0,0.0,0.0,0.0,0.0,0.0,0.0,0.0,0.0,0.0,0.0,0.0,0.0,0.0,0.0,0.0,0.0,0.0,0.0,0.0,0.0,0.0,0.0,0.0,0.0,0.0,0.0,0.0,0.0,0.0,0.0,0.0,0.0,0.0,0.0,0.0,0.0,0.0,0.0,0.0,0.0,0.0,0.0,0.0,0.0,0.0,0.0,0.0,0.0,0.0,0.0,0.0,0.0,0.0,0.0,0.0,0.0,0.0,0.0,0.0,0.0,0.0,0.0,0.0,0.0,0.0,0.0,0.0,0.0,0.0,0.0,0.0,0.0,0.0,0.0,0.0,0.0,0.0,0.0,0.0,0.0,0.0,0.0,0.0,0.0,0.0,2.5092,2.6928,2.8058,2.7975,2.7968,2.7968,2.7968,2.8017,2.7077,2.4704,0.0,0.0,0.0,0.0,0.0,0.0,0.0,0.0,0.0,0.0,0.0,0.0,0.0,0.0,0.0,0.0,0.0,0.0,0.0,0.0,0.0,0.0,0.0,0.0,0.0,0.0,0.0,0.0,0.0,0.0,0.0,0.0,0.0,0.0,0.0,0.0,0.0,0.0,0.0,0.0,0.0,0.0,0.0,0.0,0.0,0.0,0.0,0.0,0.0,0.0,0.0,0.0,0.0,0.0,0.0,0.0,0.0,0.0,0.0,0.0,2.7145,0.0,0.0,0.0,0.0,0.0,0.0,0.0,0.0,0.0,0.0,0.0,0.0,0.0,0.0,0.0,0.0,0.0,0.0,0.0,0.0,0.0,0.0,0.0,0.0,0.0,0.0,0.0,0.0,0.0,0.0,0.0,0.0,0.0,0.0,0.0,0.0,0.0,0.0,0.0,0.0,0.0,2.5675,2.7537,2.8694,2.8481,2.8461,2.8461,2.8461,2.8474,2.7741,2.6018,2.5121,0.0,0.0,0.0,0.0,0.0,0.0,0.0,0.0,0.0,0.0,0.0,0.0,0.0,0.0,0.0,0.0,0.0,0.0,0.0,0.0,0.0,0.0,0.0,0.0,0.0,0.0,0.0,0.0,0.0,0.0,0.0,0.0,0.0,0.0,0.0,0.0,0.0,0.0,0.0,0.0,0.0,0.0,0.0,0.0,0.0,0.0,0.0,0.0,0.0,0.0,0.0,0.0,0.0,0.0,0.0,0.0,0.0,0.0,0.0,0.0,2.8884,0.0,0.0,0.0,0.0,0.0,0.0,0.0,0.0,0.0,0.0,0.0,0.0,0.0,0.0,0.0,0.0,0.0,0.0,0.0,0.0,0.0,0.0,0.0,0.0,0.0,0.0,0.0,0.0,0.0,0.0,0.0,0.0,0.0,0.0,0.0,0.0,0.0,0.0,0.0,0.0,2.6477,2.8026,2.894,2.8822,2.8804,2.8804,2.8804,2.8804,2.8274,2.7115,2.6193,0.0,0.0,0.0,0.0,0.0,0.0,0.0,0.0,0.0,0.0,0.0,0.0,0.0,0.0,0.0,0.0,0.0,0.0,0.0,0.0,0.0,0.0,0.0,0.0,0.0,0.0,0.0,0.0,0.0,0.0,0.0,0.0,0.0,0.0,0.0,0.0,0.0,0.0,0.0,0.0,0.0,0.0,0.0,0.0,0.0,0.0,0.0,0.0,0.0,0.0,0.0,0.0,0.0,3.4899,3.5768,3.6381,3.6381,3.6504,3.6594,3.439,3.3102,3.2487,3.0698,0.0,0.0,0.0,0.0,0.0,0.0,0.0,0.0,0.0,0.0,0.0,0.0,0.0,0.0,0.0,0.0,0.0,0.0,0.0,0.0,0.0,0.0,0.0,0.0,3.0479,3.0524,2.8976,0.0,0.0,0.0,0.0,0.0,0.0,0.0,0.0,0.0,0.0,0.0,2.7229,2.8352,2.8981,2.8981,2.8981,2.8981,2.8981,2.8981,2.873,2.8049,2.7115,2.6332,0.0,0.0,0.0,0.0,0.0,0.0,0.0,0.0,0.0,0.0,0.0,0.0,0.0,0.0,0.0,0.0,0.0,0.0,0.0,0.0,0.0,0.0,0.0,0.0,0.0,0.0,0.0,0.0,0.0,0.0,0.0,0.0,2.7328,2.6661,0.0,0.0,0.0,0.0,0.0,0.0,0.0,0.0,0.0,0.0,0.0,0.0,0.0,3.293,3.4643,3.6397,3.7349,3.7507,3.9317,4.0235,4.0337,4.0337,4.0362,4.0386,4.0032,0.0,3.4185,3.2753,0.0,0.0,0.0,0.0,0.0,0.0,0.0,0.0,0.0,0.0,0.0,0.0,0.0,0.0,0.0,0.0,0.0,0.0,0.0,0.0,0.0,0.0,3.332,3.2409,3.2279,3.2267,0.0,2.9769,2.7719,2.7389,2.6833,0.0,0.0,0.0,0.0,0.0,0.0,0.0,2.7392,2.8352,2.8981,2.8981,2.8981,2.8981,2.8981,2.8981,2.895,2.884,2.8058,2.755,2.7499,2.6015,0.0,0.0,0.0,0.0,0.0,0.0,0.0,0.0,0.0,0.0,0.0,0.0,0.0,0.0,0.0,0.0,0.0,0.0,0.0,0.0,0.0,0.0,0.0,0.0,0.0,0.0,0.0,0.0,0.0,2.7694,2.8806,2.8438,2.8436,2.8031,0.0,0.0,0.0,0.0,0.0,0.0,0.0,0.0,0.0,3.5784,3.6269,3.738,3.9232,4.0042,4.0701,4.1165,4.1567,4.2029,4.2433,4.2433,4.2433,4.2433,4.1984,4.0679,3.8724,3.634,3.4816,3.3846,0.0,0.0,0.0,0.0,3.2289,3.2302,3.2889,3.3029,3.2766,3.1849,0.0,0.0,0.0,0.0,0.0,0.0,0.0,0.0,0.0,0.0,3.4593,3.4549,3.4222,3.384,3.3698,3.2126,3.0397,0.0,2.8851,2.8338,2.742,0.0,0.0,0.0,0.0,2.7424,2.8206,2.8715,2.8981,2.8981,2.8981,2.8981,2.8981,2.8981,2.8981,2.8981,2.8662,2.8479,2.8479,2.7352,2.6597,0.0,0.0,0.0,0.0,0.0,0.0,0.0,0.0,0.0,0.0,0.0,0.0,0.0,0.0,0.0,0.0,0.0,0.0,0.0,0.0,0.0,0.0,0.0,0.0,0.0,0.0,0.0,0.0,2.9296,3.0516,3.0107,3.0563,3.0184,0.0,0.0,0.0,0.0,0.0,0.0,3.5313,3.6525,3.7973,3.9818,4.0454,4.1542,4.3204,4.3204,4.3534,4.4093,4.3497,4.3534,4.4093,4.4093,4.4093,4.4057,4.3277,4.291,4.2653,3.9431,3.7742,3.7081,3.5605,3.5055,3.5092,3.5488,3.5378,3.5165,3.6009,3.6009,3.5466,3.4325,3.4012,3.3695,3.1682,0.0,0.0,0.0,0.0,3.3724,3.5869,3.5984,3.5614,3.5947,3.5587,3.5013,3.4583,3.3734,3.2573,0.0,3.0404,2.9806,2.8631,0.0,0.0,0.0,0.0,2.7965,2.9133,2.9133,2.8981,2.8981,2.8981,2.8981,2.8981,2.8981,2.8981,2.8981,2.9004,2.9015,2.9015,2.8433,2.8062,2.7932,0.0,0.0,0.0,0.0,0.0,0.0,0.0,0.0,0.0,0.0,0.0,0.0,0.0,0.0,0.0,0.0,0.0,0.0,0.0,0.0,0.0,0.0,0.0,0.0,0.0,0.0,0.0,0.0,0.0,3.1482,3.3777,0.0,0.0,0.0,0.0,3.3944,3.6371,3.8238,3.9081,4.0901,4.2693,4.4315,4.4425,4.4838,4.57,4.57,4.5736,4.5773,4.5736,4.5736,4.5773,4.5773,4.5773,4.5736,4.492,4.459,4.4333,4.112,3.9761,3.9651,3.8799,3.8461,3.8358,3.7632,3.7815,3.8248,3.6817,3.6787,3.7404,3.7583,3.734,3.6831,3.594,3.5133,0.0,0.0,3.5955,3.6245,3.6896,3.7175,3.7043,3.6066,3.578,3.5512,3.4701,3.3853,3.2959,0.0,3.0908,3.0173,3.0099,0.0,3.0246,3.1097,3.054,3.0057,3.013,2.9464,2.8981,2.8981,2.8981,2.8981,2.8981,2.8981,2.8981,2.8981,2.905,2.9084,2.9084,2.9047,2.8712,2.8001,2.7974,0.0,0.0,0.0,0.0,0.0,0.0,0.0,0.0,0.0,0.0,0.0,0.0,0.0,0.0,0.0,0.0,0.0,0.0,0.0,0.0,0.0,0.0,0.0,0.0,0.0,0.0,0.0,0.0,3.4621,3.6406,0.0,3.503,3.6199,3.732,3.7838,4.0198,4.1967,4.2772,4.3959,4.4892,4.5443,4.5984,4.6379,4.6682,4.6682,4.6682,4.6645,4.5617,4.514,4.514,4.514,4.514,4.5104,4.481,4.47,4.4607,4.3123,4.2126,4.1445,4.0822,4.0577,4.0611,4.049,4.0631,4.0737,3.9651,3.947,3.9546,3.8701,3.7962,3.7371,3.7273,3.7007,3.6973,3.7766,3.8065,3.8273,3.9037,3.8842,3.8384,3.8009,3.7072,3.6178,3.5837,3.4628,3.3455,3.3096,3.1694,3.0772,3.1347,3.0405,3.0083,3.1439,3.0401,2.9616,3.013,2.95,2.8981,2.8981,2.8981,2.9207,2.9726,2.9317,2.9224,2.9791,2.9372,2.9173,2.9285,2.929,2.9237,2.9167,2.8666,2.7791,0.0,0.0,0.0,0.0,0.0,0.0,0.0,0.0,0.0,0.0,0.0,0.0,0.0,0.0,0.0,0.0,0.0,0.0,0.0,0.0,0.0,0.0,0.0,0.0,0.0,3.4954,3.6792,3.6728,3.8615,3.9276,3.7661,3.946,4.0956,4.1479,4.3497,4.4966,4.5471,4.6278,4.6728,4.6728,4.7232,4.7489,4.7489,4.7489,4.7489,4.748,4.6159,4.5507,4.5507,4.5507,4.536,4.5112,4.5226,4.5111,4.4813,4.4384,4.3789,4.3126,4.2742,4.2609,4.2646,4.2523,4.2485,4.2372,4.1584,4.1196,4.0881,3.9906,3.9109,3.8567,3.8714,3.8785,3.89,3.9429,3.9571,3.9708,4.0279,3.9981,3.9414,3.884,3.7806,3.6798,3.6229,3.4911,3.3835,3.3835,3.246,3.1553,3.2395,3.1502,3.1117,3.2432,3.1403,3.0541,3.0712,3.0126,2.9561,2.9286,2.9482,2.9901,3.042,2.9882,2.9813,3.0474,2.9694,2.929,2.9519,2.9462,2.9547,2.9826,2.9312,2.8732,2.8125,0.0,0.0,0.0,0.0,0.0,0.0,0.0,0.0,0.0,0.0,0.0,0.0,0.0,0.0,0.0,0.0,0.0,0.0,0.0,0.0,0.0,0.0,0.0,3.4405,3.6508,3.796,3.7743,4.0491,4.1813,4.0278,4.2936,4.48,4.4809,4.626,4.7177,4.7187,4.7912,4.8316,4.8316,4.8306,4.8296,4.8296,4.8296,4.8296,4.8296,4.748,4.7085,4.7095,4.7095,4.6627,4.591,4.6252,4.5956,4.5183,4.4766,4.4657,4.4688,4.4572,4.4526,4.4426,4.3643,4.3334,4.3221,4.244,4.1797,4.1365,4.1365,4.0989,4.0554,4.0554,4.0516,4.0516,4.0516,4.0484,4.0486,4.0486,4.0449,3.9989,3.8341,3.7919,3.742,3.5691,3.4702,3.4096,3.4134,3.3113,3.2524,3.3294,3.3403,3.3602,3.4157,3.3735,0.0,3.1965,3.1358,3.0693,2.9875,3.0534,3.1042,3.1076,3.0784,3.075,3.1029,3.002,2.9523,2.9843,2.9644,2.9699,3.0005,2.9945,3.0034,3.023,0.0,0.0,0.0,0.0,0.0,0.0,0.0,0.0,0.0,0.0,0.0,0.0,0.0,0.0,0.0,0.0,0.0,0.0,0.0,0.0,0.0,3.721,3.9231,3.825,4.0209,4.1938,4.2441,4.4363,4.5447,4.5006,4.6062,4.6904,4.7164,4.7887,4.8438,4.8679,4.8659,4.8649,4.8649,4.8411,4.8296,4.8296,4.8296,4.8296,4.8296,4.748,4.6921,4.6587,4.6587,4.6248,4.5677,4.5836,4.5767,4.554,4.5086,4.4896,4.4908,4.4925,4.496,4.4984,4.4985,4.459,4.3972,4.3786,4.3215,4.2612,4.2612,4.2074,4.1431,4.1431,4.1012,4.0516,4.0516,4.0504,4.0496,4.0496,4.0499,4.0193,3.9114,3.8342,3.7605,3.647,3.5133,3.4358,3.4937,3.428,3.3692,3.3865,3.3743,3.3892,3.4652,3.3994,0.0,3.3017,3.2331,3.1764,3.1534,3.1723,3.2095,3.2675,3.1562,3.1125,3.1891,3.0529,3.0082,3.0914,3.0917,3.1245,3.2053,3.1353,3.1018,0.0,0.0,0.0,0.0,0.0,0.0,0.0,0.0,0.0,0.0,0.0,0.0,0.0,0.0,0.0,0.0,0.0,0.0,0.0,0.0,0.0,0.0,4.0734,4.2742,4.3123,4.3623,4.4354,4.5406,4.6389,4.7097,4.7443,4.8048,4.8496,4.8686,4.8924,4.9193,4.9356,4.9216,4.9105,4.9105,4.8873,4.8781,4.8781,4.8746,4.8746,4.8744,4.7964,4.7429,4.7168,4.6816,4.6315,4.5676,4.5859,4.5748,4.5439,4.5312,4.5248,0.0,0.0,0.0,0.0,0.0,4.5282,4.4859,4.4859,4.4321,4.3585,4.3585,4.2777,4.1812,4.1812,4.12,4.0516,4.0516,4.0516,4.0516,4.0516,4.0496,4.0203,3.8969,3.8312,3.7613,3.6404,3.5399,3.4885,3.5357,3.5067,0.0,3.4683,3.4561,3.4579,3.4979,3.4628,3.4103,3.3622,3.3249,3.2884,3.2512,3.2817,3.3232,3.3709,3.2724,0.0,0.0,0.0,3.1282,3.1912,3.2015,0.0,0.0,0.0,0.0,0.0,0.0,0.0,0.0,3.4018,3.4442,0.0,0.0,0.0,0.0,0.0,0.0,0.0,0.0,0.0,0.0,0.0,0.0,0.0,0.0,0.0,0.0,4.4072,4.5677,4.7943,4.664,4.594,4.7187,4.7362,4.7689,4.8466,4.9167,4.9561,4.9596,4.9568,4.9561,4.9596,0.0,0.0,0.0,0.0,4.9401,4.9401,4.9333,4.9333,4.9401,4.8693,4.8343,4.8335,4.7446,4.6628,4.5893,4.613,4.5786,4.5175,4.5462,4.5594,4.559,4.5546,4.5528,4.5532,4.5577,4.5594,4.5594,4.5594,0.0,0.0,4.4316,4.3162,4.1812,4.1812,4.12,4.0516,4.0516,4.0516,4.0516,4.0516,4.0516,4.0092,3.8392,3.8007,3.7546,3.5846,3.55,3.55,3.55,3.55,3.55,3.55,3.55,3.5405,3.5186,3.5354,3.5136,3.4117,3.4214,3.4045,3.3269,0.0,0.0,3.4349,3.4025,3.3926,3.4196,3.3408,3.2986,3.3127,3.3367,3.3757,3.4362,3.529,3.6115,3.685,3.7738,3.82,3.8238,3.5833,3.635,0.0,0.0,0.0,0.0,0.0,0.0,0.0,0.0,0.0,0.0,0.0,0.0,0.0,0.0,0.0,4.4662,4.6948,4.8577,4.9072,4.8803,4.8613,4.8756,4.9384,4.9876,5.0067,4.9954,5.0031,5.0274,5.0062,5.0031,5.0279,5.0056,4.9904,4.9904,4.9617,4.9475,4.9475,4.946,4.946,4.9475,0.0,0.0,4.8599,4.7801,4.7079,4.6505,4.5912,4.5573,4.5429,4.5559,4.5594,4.559,4.5581,4.5577,4.5581,4.559,4.5594,4.5594,4.5594,4.5013,4.4316,4.4316,4.3162,4.1812,4.1812,4.12,0.0,4.0516,4.0516,4.0516,4.0516,4.0516,4.0092,3.8392,3.8007,3.7546,3.5846,3.55,3.55,3.55,3.55,3.55,3.55,3.55,3.5486,3.5412,3.5476,3.5409,3.5186,3.521,3.5144,3.492,3.5074,3.5189,3.5189,3.4473,3.41,3.4199,3.4669,3.5228,3.5888,3.6647,3.7073,3.7202,3.7416,3.7584,3.7738,3.8627,3.9396,4.0012,3.9492,3.9596,0.0,0.0,0.0,0.0,0.0,0.0,0.0,0.0,0.0,0.0,0.0,3.8777,4.132,0.0,4.5051,4.7167,4.8552,4.9553,4.9976,5.0053,5.0034,4.9946,4.9936,5.0123,5.055,5.0451,5.0429,5.0579,5.0446,5.0435,5.0584,5.0446,5.0347,5.0347,5.0147,5.0056,5.0056,5.0025,5.0025,5.0056,5.0056,4.9918,4.9647,4.8384,4.7637,4.7319,4.6079,4.5555,4.5559,4.5581,4.5594,4.5594,4.5594,4.5594,4.5594,4.5594,4.5594,4.5594,4.5594,4.5013,4.4316,4.4316,4.3162,4.1812,4.1812,4.12,4.0516,4.0516,4.0516,4.0516,4.0516,4.0516,4.0092,3.8392,3.8007,3.7546,3.5846,3.55,3.55,3.55,3.55,3.55,3.55,3.55,3.55,3.55,3.55,3.55,3.55,3.55,3.5493,3.5437,3.5434,3.5434,3.5434,3.5437,3.5409,3.5468,3.6273,3.6927,3.7311,3.7777,3.82,3.8627,3.8665,3.9046,3.9888,4.0354,4.0969,4.182,4.2205,4.2397,0.0,0.0,0.0,0.0,0.0,0.0,0.0,3.6469,3.7465,4.0012,4.1166,4.2435,4.4624,4.5744,4.7052,4.9283,4.9668,4.9899,5.0592,5.0707,5.063,5.0476,4.9976,4.9938,5.063,5.0707,5.0707,5.0707,5.0707,5.0707,5.0707,5.0707,5.0707,5.0707,5.0663,5.0637,5.0637,5.0558,5.0558,5.0637,5.0637,5.0663,5.063,4.9086,4.8274,4.8005,4.6321,4.5594,4.5594,4.5594,4.5594,4.5594,4.5594,4.5594,4.5594,4.5594,4.5594,4.5594,4.5594,4.5013,4.4278,4.4124,4.3047,4.1773,4.1581,4.1046,4.0516,4.0516,4.0516,4.0516,4.0516,4.0516,4.0092,3.8392,3.8007,3.7546,3.5846,3.55,3.55,3.55,3.55,3.55,3.55,3.55,3.55,3.55,3.55,3.55,3.55,3.55,3.55,3.55,3.55,3.5577,3.5731,3.6346,3.685,3.7196,3.7853,3.8315,3.8469,3.8507,3.8819,3.9511,3.9704,4.0431,4.1812,4.1966,4.2524,4.3408,4.4024,4.4316,3.3045,3.2776,3.3468,3.643,3.6157,3.6619,0.0,4.2085,4.1812,4.4359,4.5586,4.6504,4.7505,4.8394,4.9322,5.0361,5.0553,5.0592,5.0707,5.0707,5.0399,4.963,5.013,5.0592,5.0707,5.0707,5.0707,5.0707,5.0707,5.0707,5.0707,5.0707,5.0707,5.0707,5.0702,5.0697,5.0697,5.0692,5.0692,5.0697,5.0697,5.0702,5.0668,4.9707,4.8817,4.8005,4.6321,4.5594,4.5594,4.5594,4.5594,4.5594,4.5594,4.5594,4.5594,4.5594,4.5594,4.5594,4.5594,4.5013,4.4162,4.347,4.2581,4.1658,4.0896,4.0593,4.0516,4.0516,4.0516,4.0516,4.0516,4.0516,4.0092,3.8392,3.8007,3.7546,3.5846,3.55,3.55,3.55,3.55,3.55,3.55,3.55,3.55,3.55,3.55,3.55,3.55,3.55,3.55,3.55,3.55,3.5808,3.6504,3.6657,3.735,3.8896,3.9088,3.9473,4.0208,4.0208,4.0285,4.0362,4.1123,4.1619,4.1812,4.2581,4.3439,4.4351,4.4429,4.4391,3.4968,3.5468,3.6315,3.828,3.8969,3.9965,4.2931,4.3431,4.397,4.6547,4.7355,4.8005,4.9356,4.9899,5.0284,5.063,5.0707,5.0707,5.0707,5.0245,4.9822,4.9433,4.9707,4.9938,4.9938,5.0399,5.0707,5.0707,5.0707,5.0707,5.0707,5.0707,5.0707,5.0707,5.0707,5.0707,5.0707,5.0707,5.0707,5.0707,5.0707,5.0707,5.0668,4.9784,4.8933,4.8043,4.6855,4.6355,4.6317,4.5821,4.5594,4.5594,4.5594,4.5594,4.5594,4.5594,4.5594,4.5594,4.5594,4.5013,4.4162,4.3355,4.2504,4.1658,4.0743,4.0516,4.0516,4.0516,4.0545,4.0612,4.0612,4.0633,4.0379,3.9223,3.8913,3.8606,3.7375,3.6714,3.6358,3.6358,3.5963,3.5609,3.5609,3.5609,3.5609,3.5609,3.5566,3.55,3.55,3.55,3.55,3.55,3.5923,3.6346,3.6657,3.7623,3.8511,3.9242,3.9746,3.9938,3.9823,4.0335,4.0377,3.9875,4.1235,4.2202,4.2737,4.3595,4.4482,4.5306,4.5306,4.5276,3.6311,3.7157,3.798,3.9336,4.0615,4.1894,4.352,4.4299,4.5406,4.7666,4.8158,4.8607,5.0062,5.0322,5.0438,5.0668,5.0707,5.0707,5.0707,4.9938,4.9394,4.9394,4.9446,4.9459,4.9404,5.0207,5.0707,5.0707,5.0707,5.0707,5.0707,5.0707,5.0707,5.0707,5.0707,5.0707,5.0707,5.0707,5.0707,5.0707,5.0707,5.0707,5.0673,4.984,4.9123,4.8518,4.7707,4.7201,4.6927,4.6318,4.5893,4.57,4.57,4.57,4.57,4.57,4.5669,4.5667,4.5667,4.5236,4.4619,4.3809,4.2956,4.2065,4.1226,4.0763,4.0563,4.0563,4.0636,4.0748,4.0748,4.0773,4.0597,3.9785,3.9593,3.9362,3.8481,3.7816,3.7346,3.7346,3.6837,3.6403,3.6403,3.6403,3.6403,3.6403,3.6322,3.6208,3.5932,3.5893,3.5893,3.5893,3.6433,3.6974,3.7479,3.844,3.9135,3.9328,3.9904,3.9942,3.9367,4.0471,4.0795,4.0175,4.189,4.3129,4.3743,4.4603,4.5359,4.5966,4.5966,4.598,3.6462,3.6734,3.7389,4.0002,4.0691,4.1612,4.5054,4.5814,4.6323,4.7973,4.8292,4.8516,4.9312,4.9433,4.9707,5.0553,5.0707,5.0707,5.0707,4.9938,4.9394,4.9394,4.9525,4.9528,4.9418,5.0207,5.0707,5.0707,5.0707,5.0707,5.0707,5.0707,5.0707,5.0707,5.0707,5.0707,5.0707,5.0707,5.0707,5.0707,5.0707,5.0707,5.0678,4.9941,4.9639,4.969,4.8841,4.7981,4.7195,4.7157,4.6652,4.5872,4.5872,4.5872,4.5872,4.5872,4.5837,4.5796,4.5796,4.5812,4.5717,4.4906,4.4049,4.3187,4.2306,4.1449,4.0781,4.0781,4.0784,4.0786,4.0786,4.0788,4.0597,3.9785,3.9593,3.9362,3.8481,3.8289,3.8248,3.8248,3.8248,3.8209,3.8209,3.8209,3.8209,3.8209,3.8205,3.7927,3.7064,3.6945,3.6945,3.6945,3.6984,3.7683,3.9351,3.8805,3.8645,3.9456,3.9534,3.9534,3.9495,4.114,4.2041,4.2002,4.3714,4.4647,4.4647,4.5458,4.5935,4.6096,4.6096,4.6171,3.7546,3.8562,3.9777,4.1272,4.2056,4.2956,4.4655,4.5484,4.6211,4.7326,4.712,4.7143,4.8533,4.8794,4.9107,4.997,5.0555,5.0903,5.0903,5.0178,4.9678,4.9678,4.9721,4.9695,4.9684,5.0407,5.0863,5.0833,5.0886,5.0903,5.0903,5.0903,5.0903,5.0903,5.0903,5.0903,5.0903,5.0903,5.0903,5.0903,5.0903,5.0903,5.0907,5.0649,5.0542,5.0545,4.9737,4.9196,4.8844,4.7675,4.7012,4.6701,4.6116,4.5883,4.5883,4.5883,4.5944,4.6003,4.5889,4.5889,4.5766,4.4955,4.4095,4.3236,4.2354,4.1497,4.0788,4.0788,4.0874,4.0915,4.0915,4.0955,4.0947,4.0677,4.0599,4.0521,4.0212,3.9704,3.9313,3.9313,3.8846,3.8495,3.8495,3.8495,3.869,3.9196,3.8742,3.817,3.7896,3.7857,3.7857,3.7857,3.7849,3.8115,3.8697,3.8456,3.8645,3.9465,3.9504,3.9742,4.0336,4.156,4.2213,4.222,4.3971,4.4886,4.4886,4.5744,4.6182,4.6239,4.6239,4.6248,3.8896,3.9989,4.1088,4.2313,4.2823,4.3221,4.4065,4.4931,4.5546,4.5424,4.522,4.5364,4.6444,4.663,4.7215,4.9051,4.9753,5.0339,5.0924,5.0314,4.9893,5.0201,5.0006,4.9977,5.0204,5.0773,5.1105,5.0932,5.0998,5.1005,5.1005,5.1005,5.1005,5.1005,5.1005,5.1005,5.1005,5.1005,5.1005,5.1005,5.1005,5.1028,5.1069,5.1069,5.1089,5.1124,5.0586,5.0198,4.9807,4.8366,4.7587,4.7274,4.6378,4.6027,4.6027,4.6027,4.6098,4.6167,4.6011,4.6,4.595,4.5447,4.4666,4.3806,4.2955,4.2057,4.1314,4.1002,4.0958,4.1026,4.1026,4.1051,4.1109,4.1109,4.1109,4.1109,4.1109,4.0679,4.0249,4.0249,3.9859,3.9509,3.9509,3.9509,3.9665,4.0171,3.97,3.9187,3.8874,3.86,3.8406,3.8406,3.8126,3.8082,3.8395,3.8429,3.862,3.9169,3.9755,4.0305,4.0896,4.2415,4.3254,4.3258,4.4728,4.544,4.548,4.6027,4.6301,4.6301,4.6301,4.6302,4.0436,4.0902,4.1388,4.3171,4.295,4.2577,4.3521,4.4387,4.4414,4.2641,4.2862,4.3346,4.3202,4.3298,4.4466,4.7778,4.848,4.9146,5.0748,5.0295,5.0104,5.0909,5.046,5.0324,5.0956,5.1232,5.1294,5.1039,5.1022,5.1022,5.1022,5.1022,5.1022,5.1022,5.1022,5.1022,5.1022,5.1022,5.1022,5.1022,5.1022,5.1081,5.1209,5.1209,5.1286,5.1414,5.1414,5.0945,5.0086,4.9228,4.8409,4.7588,4.6691,4.634,4.6301,4.6301,4.6301,4.6295,4.6167,4.6185,4.6301,4.6301,4.5714,4.4855,4.4036,4.3177,4.2279,4.1421,4.1187,4.1147,4.1109,4.1109,4.1109,4.1109,4.1109,4.1109,4.1109,4.1109,4.1109,4.1109,4.1109,4.1109,4.1109,4.111,4.111,4.1149,4.1188,4.0836,3.9976,3.9196,3.8728,3.8728,3.7946,3.7751,3.8572,3.8611,3.865,3.8728,4.0211,4.1148,4.1304,4.3684,4.5012,4.509,4.5871,4.6302,4.6302,4.6302,4.6302,4.6302,4.6302,4.6306,4.1703,4.2484,4.3073,4.3551,4.3006,4.2775,4.4306,4.4348,4.3916,4.3437,4.2458,4.1713,4.1659,4.3254,4.4854,4.5751,4.8014,4.9849,5.0278,5.0163,5.0359,5.1217,5.1153,5.1118,5.1297,5.1361,5.1365,5.1298,5.1295,5.1295,5.1295,5.1295,5.1295,5.1295,5.1295,5.1295,5.1295,5.1295,5.1295,5.1295,5.1295,5.1304,5.1356,5.1356,5.1363,5.1414,5.1383,5.1269,5.0996,5.0136,4.928,4.8464,4.7599,4.6855,4.6309,4.6309,4.6306,4.6299,4.6249,4.6253,4.6301,4.6301,4.5714,4.4972,4.4737,4.4075,4.3178,4.2318,4.2084,4.1927,4.1265,4.1109,4.1109,4.1109,4.1109,4.1109,4.1109,4.1109,4.1109,4.1109,4.1113,4.1116,4.1116,4.1081,4.1319,4.1983,4.2061,4.1746,4.0876,4.0601,4.0446,4.0446,3.9663,3.9234,3.9468,3.8922,3.9118,4.0367,4.0875,4.1967,4.3918,4.4666,4.5293,4.5958,4.6198,4.6317,4.6317,4.6317,4.6317,4.6317,4.6317,4.6318,4.2278,4.3021,4.3802,4.4153,4.3918,4.3605,4.38,4.3762,4.3178,4.1265,4.0406,3.9899,3.9508,4.1225,4.3215,4.4737,4.7236,4.9539,5.1022,5.0905,5.0983,5.1882,5.1648,5.1414,5.1414,5.1414,5.1414,5.1414,5.1414,5.1414,5.1414,5.1414,5.1414,5.1414,5.1414,5.1414,5.1414,5.1414,5.1414,5.1414,5.1414,5.1414,5.1414,5.1419,5.1382,5.1382,0.0,5.1394,5.1316,5.0456,4.9833,4.9288,4.8075,4.7293,4.6825,4.6434,4.6315,4.6311,4.6311,4.6311,4.631,4.6303,4.5987,4.5519,4.5128,4.4663,4.4079,4.3217,4.2987,4.2757,4.1895,4.1663,4.1665,4.1665,4.1665,4.1782,4.2173,4.2252,4.2252,4.2252,4.2254,4.2255,4.2255,4.2258,4.2416,4.2885,4.2963,4.2805,4.2291,4.19,4.1665,4.1665,4.0884,4.0377,4.0377,4.0299,4.069,4.1626,4.2407,4.3461,4.4943,4.5377,4.5809,4.6277,4.6281,4.6282,4.6282,4.6282,4.6282,4.6282,4.6282,4.6518,4.2709,4.3295,4.4075,4.4933,4.4815,4.4152,4.2864,4.2825,4.1967,3.8259,3.7985,3.8142,3.7282,3.8687,4.0991,4.4152,4.6299,4.8719,5.1922,5.1804,5.1726,5.2586,5.2039,5.157,5.157,5.1453,5.1414,5.1414,5.1414,5.1414,5.1414,5.1414,5.1414,5.1414,5.1414,5.1414,5.1414,5.1414,5.1414,5.1414,5.1414,5.1415,5.1417,5.1386,5.139,5.1391,5.1397,5.1399,5.1321,5.0579,5.0228,4.9955,4.8509,4.7806,4.7494,4.6752,4.64,4.6282,4.6282,4.6282,4.6281,4.6309,4.6304,4.6148,4.5405,4.5176,4.4984,4.412,4.3854,4.3665,4.2801,4.2569,4.2572,4.2572,4.2572,4.2768,4.3549,4.3705,4.3705,4.3705,4.3706,4.3706,4.3706,4.3706,4.3746,4.3863,4.3863,4.3902,4.4019,4.3198,4.2572,4.2572,4.1909,4.1441,4.1441,4.2143,4.2611,4.2728,4.4173,4.5032,4.5188,4.5892,4.6283,4.6283,4.6401,4.6479,4.6479,4.6596,4.6635,4.6635,4.6635,4.7067,4.4357,4.4665,4.4972,4.587,4.3919,4.2084,4.3217,4.1421,3.9274,3.8533,3.7907,3.7243,3.6383,3.8765,4.1304,4.2629,4.5518,4.829,5.0281,5.1022,5.1726,5.2586,5.2586,5.2469,5.2469,5.1804,5.1414,5.1414,5.1414,5.1414,5.1414,5.1414,5.1414,5.1414,5.1414,5.1414,5.1414,5.1414,5.1414,5.1414,5.1414,5.1419,5.1388,5.1389,5.1393,5.1397,5.1402,0.0,5.1404,5.1248,5.078,5.0156,4.9842,4.8865,4.7576,4.7419,4.691,4.6282,4.6282,4.6282,4.6282,4.6319,4.6319,4.628,4.6123,4.6085,4.589,4.503,4.4757,4.4563,4.3704,4.347,4.3471,4.3471,4.3471,4.351,4.3666,4.3705,4.3705,4.3705,4.3707,4.3708,4.3708,4.371,4.3945,4.4687,4.4765,4.5039,4.5742,4.4451,4.3471,4.3471,4.3354,4.3237,4.3237,4.3393,4.3783,4.4485,4.4837,4.5305,4.6048,4.6207,4.6286,4.6286,4.6991,4.7383,4.7383,4.8086,4.8437,4.8437,4.8437,4.8515,4.3661,4.4323,4.4984,4.4945,4.3696,4.2329,4.1818,4.0102,3.8346,3.7445,3.69,3.651,3.6077,3.8459,4.0762,4.1581,4.4271,4.7317,5.0333,5.0369,5.1033,5.3733,5.3264,5.2718,5.2718,5.2326,5.1897,5.1428,5.1389,5.1385,5.1414,5.1414,5.1414,5.1414,5.1414,5.1417,5.1383,5.1383,5.1385,5.1389,5.1389,5.1391,5.1395,5.1398,5.1401,5.1402,5.1405,5.1406,5.1406,5.1406,5.1172,5.0781,5.0351,4.9687,4.8906,4.8437,4.7734,4.6991,4.6991,4.6678,4.6287,4.6287,4.6285,4.6282,4.6282,4.6284,4.6207,4.5775,4.5699,4.5467,4.4606,4.4373,4.4374,4.4374,4.4725,4.5038,4.5038,4.5038,4.5038,4.5038,4.5038,4.5039,4.5039,4.5039,4.5195,4.5625,4.5664,4.582,4.625,4.5585,4.5038,4.5038,4.5038,4.5038,4.5038,4.5038,4.5233,4.5662,4.5662,4.5858,4.6287,4.6757,4.6992,4.6992,4.7812,4.8281,4.8281,4.8711,4.8906,4.8906,4.8906,4.9141,4.2846,4.3939,4.511,4.4446,4.3704,4.2609,4.0615,3.9054,3.765,3.628,3.6009,3.6049,3.6241,3.8113,4.0065,4.1432,4.3693,4.6662,5.0577,5.0418,5.112,5.4367,5.3859,5.3195,5.3,5.2805,5.2414,5.1711,5.1515,5.1395,5.1382,5.1381,5.1381,5.1381,5.1381,5.1385,5.1392,5.1392,5.1394,5.1398,5.1398,5.1399,5.14,5.1403,5.1405,5.1405,5.1406,5.1406,5.1406,5.1406,5.1406,5.1328,5.0703,5.0351,5.0117,4.9414,4.8633,4.7891,4.7891,4.7422,4.6875,4.6875,4.6601,4.6285,4.6285,4.6286,4.6288,4.6285,4.6288,4.6133,4.5468,4.5273,4.5273,4.5273,4.5781,4.6289,4.6289,4.6289,4.6289,4.6289,4.6289,4.6289,4.6289,4.6289,4.6289,4.6289,4.6289,4.6367,4.6562,4.6562,4.6562,4.6562,4.6406,4.6289,4.6289,4.6289,4.6289,4.6289,4.6484,4.6562,4.6562,4.7422,4.7891,4.7891,4.8711,4.918,4.918,4.9336,4.9453,4.9453,4.9413,4.9764,4.3592,4.4839,4.6165,4.6087,4.3665,4.1283,4.1048,3.8549,3.6206,3.6049,3.601,3.6245,3.7026,3.8002,3.9758,4.2922,4.4992,4.714,4.9836,5.214,5.339,5.3,5.4172,5.4758,5.3977,5.3156,5.2688,5.261,5.1867,5.1398,5.1397,5.1397,5.1397,5.1397,5.1397,5.1397,5.1398,5.1398,5.1398,5.1398,5.1398,5.1401,5.1404,5.1404,5.1405,5.1406,5.1406,5.1406,0.0,5.1406,5.1406,5.1406,5.1328,5.0859,5.0195,5.0117,4.9531,4.8789,4.8789,4.8711,4.8672,4.8672,4.7578,4.6289,4.6289,4.6289,4.6289,4.6289,4.6289,4.6289,4.6211,4.6172,4.6172,4.6172,4.625,4.6289,4.6289,4.6289,4.6289,4.6289,4.6289,4.6289,4.6289,4.6289,4.6289,4.6289,4.6289,4.6601,4.7383,4.7461,4.7461,4.7461,4.6758,4.6289,4.6289,4.6289,4.6289,4.6289,4.7031,4.7461,4.7461,4.832,4.8789,4.8789,4.9648,5.0078,5.0078,5.082,5.1172,5.1172,5.1121,5.1106,4.3554,4.496,4.6171,4.5663,4.3671,4.1639,4.0623,3.8905,3.7421,3.6873,3.7186,3.7655,3.8006,3.8786,3.9996,4.1872,4.3198,4.5034,4.8162,4.949,5.0974,5.3202,5.41,5.4374,5.4022,5.4178,5.3827,5.2772,5.1874,5.1405,5.1405,5.1401,5.1398,5.1398,5.1398,5.14,5.1403,5.1403,5.1404,5.1405,5.1405,5.1405,5.1406,5.1406,5.1406,5.1406,5.1406,5.1406,0.0,5.1406,5.1406,5.1406,5.1406,5.1211,5.0937,5.0937,5.0391,4.9687,4.9687,4.9336,4.8906,4.8906,4.8437,4.7773,4.7226,4.707,4.6953,4.6445,4.6289,4.6289,4.6289,4.6289,4.6289,4.6289,4.6289,4.6289,4.6289,4.6289,4.6289,4.6289,4.6289,4.6289,4.6289,4.6758,4.707,4.707,4.7539,4.8008,4.8359,4.8398,4.8398,4.8398,4.7617,4.6875,4.6328,4.6797,4.707,4.707,4.7891,4.8398,4.8398,4.9219,4.9687,4.9687,5.0508,5.0937,5.0937,5.125,5.1406,5.1406,5.1365,5.1362,4.3086,4.4609,4.5781,4.5156,4.3672,4.2031,4.0625,3.9414,3.8437,3.7812,3.8164,3.8672,3.8945,3.9491,4.0351,4.1718,4.2615,4.4295,4.7539,4.8398,4.9843,5.2851,5.3672,5.3906,5.3633,5.418,5.4023,5.2773,5.1875,5.1406,5.1406,5.1405,5.1402,5.1402,5.1402,5.1403,5.1405,5.1405,5.1406,5.1406,5.1406,5.1406,5.1406,5.1406,5.1406,5.1406,5.1406,5.1406,0.0,5.1406,5.1406,5.1406,5.1406,5.1406,5.1406,5.1406,5.1055,5.0547,5.0547,5.0156,4.9648,4.9608,4.9606,4.9449,4.8545,4.8121,4.7851,4.7226,4.6874,4.6637,4.6592,4.6435,4.6318,4.6552,4.659,4.6668,4.6902,4.698,4.698,4.698,4.698,4.698,4.698,4.7488,4.7918,4.7918,4.8426,4.8895,4.9168,4.9207,4.9207,4.9207,4.866,4.7962,4.7148,4.7617,4.7969,4.7969,4.8788,4.9256,4.9297,5.0077,5.0545,5.0547,5.1092,5.1366,5.1406,5.1362,5.136,5.1364,5.1313,5.1297,4.2187,4.3672,4.5,4.5,4.3672,4.2187,4.1367,3.9844,3.8594,3.8594,3.8594,3.8867,3.9726,3.9883,4.0742,4.3242,4.4414,4.5898,4.8516,5.0312,5.1367,5.1406,5.2969,5.3672,5.2812,5.2734,5.2734,5.2695,5.1875,5.1406,5.1406,5.1406,5.1406,5.1406,5.1406,5.1406,5.1406,5.1406,5.1406,5.1406,5.1406,5.1406,5.1406,5.1406,5.1406,5.1406,5.1406,5.1406,0.0,5.1406,5.1406,5.1406,5.1406,5.1406,5.1406,5.1406,5.1406,5.1406,5.1406,5.1367,5.1367,5.1309,5.1297,5.1093,5.0171,4.9417,4.8867,4.8867,4.8197,4.7463,4.7324,4.6683,4.6295,4.7108,4.7303,4.7535,4.8386,4.8581,4.8581,4.8581,4.8581,4.8581,4.8581,4.8581,4.8581,4.8581,4.8581,4.8894,4.9794,4.9872,4.9872,4.9872,4.9872,4.958,4.8945,4.8867,4.8906,4.8906,4.9597,5.0062,5.0195,5.0886,5.1313,5.1406,5.1315,5.1314,5.1406,5.1272,5.1244,5.1295,5.1154,5.1018,4.0625,4.1914,4.3086,4.2539,4.1992,4.1367,4.0508,4.0351,4.0391,4.0391,4.082,4.1445,4.2344,4.25,4.3164,4.5156,4.5703,4.6601,4.8633,5.0351,5.1836,5.3047,5.4726,5.5664,5.539,5.4297,5.3594,5.3594,5.2773,5.2031,5.1445,5.1406,5.1406,5.1406,5.1406,5.1406,5.1406,5.1406,5.1406,5.1406,5.1406,5.1406,5.1406,5.1406,5.1406,5.1406,5.1406,5.1406,5.1406,5.1406,5.1365,5.1354,5.1366,5.1365,5.1313,5.1313,5.1313,5.1349,5.1282,5.1269,5.1266,5.1245,5.1239,5.1195,5.0897,5.0219,4.947,4.8845,4.8479,4.8224,4.8197,4.7996,4.7881,4.8113,4.8191,4.8267,4.854,4.8616,4.8616,4.8616,4.8616,4.8616,4.8616,4.9087,4.9479,4.9479,4.9987,5.0496,5.0731,5.077,5.077,5.077,5.077,5.0205,4.8801,4.9235,4.9587,4.9587,5.035,5.0857,5.0877,5.1094,5.1249,5.1269,5.125,5.1249,5.1269,5.1227,5.1214,5.1237,5.1187,5.1102,3.9492,4.0664,4.1836,4.1328,4.1445,4.1445,4.0586,4.1055,4.1641,4.1641,4.2305,4.3047,4.3594,4.3711,4.4141,4.5586,4.6094,4.6914,4.8633,5.0625,5.2539,5.4297,5.5469,5.6094,5.6094,5.4844,5.3984,5.3984,5.3203,5.2305,5.1445,5.1406,5.1406,5.1406,5.1406,5.1406,5.1406,5.1406,5.1406,5.1406,5.1406,5.1406,5.1406,5.1406,5.1406,5.1406,5.1406,5.1406,0.0,5.1363,5.1309,5.1272,5.1301,5.1296,5.1268,5.1268,5.1268,5.1263,5.122,5.1201,5.1197,5.1161,5.1123,5.1089,5.1089,5.0753,5.0254,4.9709,4.9311,4.9068,4.9026,4.8782,4.8629,4.8937,4.9015,4.9093,4.9401,4.9479,4.9479,4.9479,4.9479,4.9479,4.9479,4.9909,5.0264,5.0264,5.0734,5.1089,5.1089,5.1089,5.1089,5.1089,5.1089,5.0656,4.9557,5.0025,5.0379,5.0379,5.0895,5.1165,5.1201,5.117,5.1168,5.1201,5.1168,5.1168,5.1201,5.1168,5.113,5.1089,5.1089,5.1047,0.0,3.9844,4.1094,4.1016,4.168,4.2109,4.1367,4.1875,0.0,4.2578,4.3242,4.3828,4.3945,4.3945,4.418,4.5117,4.5976,4.707,4.875,5.1289,5.3594,5.5195,5.5508,5.5547,5.539,5.4648,5.4141,5.4023,5.3242,5.2383,5.1445,5.1406,5.1406,5.1406,5.1406,5.1406,5.1406,5.1406,5.1406,5.1406,5.1406,5.1406,5.1406,5.1406,5.1406,0.0,5.1406,5.1359,5.1292,5.1292,5.1261,5.1193,5.1199,5.1197,5.1193,5.1193,5.1193,5.1191,5.1185,5.1183,5.117,5.1106,5.0981,5.0898,5.0898,5.1017,5.1165,5.1103,5.0488,4.9843,4.9783,4.9165,4.8778,4.9587,4.978,4.9974,5.0747,5.0898,5.0898,5.0898,5.0898,5.0898,5.0898,5.0898,5.0898,5.0898,5.0898,5.0898,5.0898,5.0898,5.0898,5.0898,5.0898,5.0898,5.0898,5.107,5.1183,5.1183,5.1133,5.112,5.1178,5.1131,5.1122,5.1181,5.1128,5.1125,5.1183,5.1125,5.1004,5.0898,5.0898,5.0898,3.8672,0.0,4.0039,3.9375,4.0351,4.1445,0.0,4.2344,4.3594,4.4258,4.4531,4.5117,4.6445,4.6133,4.6172,4.7734,4.8164,4.8672,4.9726,5.3242,5.5859,5.625,5.7461,5.7773,5.6406,5.6094,5.543,5.4101,5.3828,5.3008,5.1484,5.1406,5.1406,5.1406,5.1406,5.1406,5.1406,5.1406,5.1406,5.1406,5.1406,5.1365,5.131,5.131,5.1294,5.1255,5.1255,5.1245,5.1229,5.1229,5.1181,5.1133,5.1174,5.1159,5.1125,5.1125,5.1125,5.1111,5.1011,5.0974,5.0967,5.0931,5.0933,5.0898,5.0898,5.0913,5.0967,5.0966,5.0804,5.0638,5.06,5.0476,5.036,5.0554,5.0631,5.067,5.0859,5.0898,5.0898,5.0898,5.0898,5.0898,5.0898,5.0898,5.0898,5.0898,5.0898,5.0898,5.0898,5.0898,5.0898,5.0898,5.0898,5.0898,5.0898,5.0931,5.0974,5.0974,5.0977,5.0935,5.097,5.0977,5.0935,5.097,5.0977,5.0939,5.0974,5.0935,5.0937,5.0898,5.0898,5.0898,4.0176,4.0658,4.0937,4.0469,4.1641,4.293,4.293,4.3633,4.4414,4.4883,4.5312,4.5898,4.6836,4.6953,4.7226,4.8164,4.8984,5.0195,5.2266,5.4883,5.6758,5.7148,5.8398,5.8515,5.6758,5.6601,5.5898,5.4141,5.3984,5.3242,5.1484,5.1406,5.1406,5.1406,5.1406,5.1406,5.1406,5.1406,5.1366,5.1361,5.1361,5.1307,5.1261,5.1261,5.1241,5.1201,5.1201,5.1178,5.1138,5.1138,5.1109,5.0998,5.1032,5.1056,5.1026,5.1026,5.1026,5.1016,5.0933,5.0898,5.0898,5.0898,5.0898,5.0898,5.0898,5.0898,5.0898,5.0898,5.0898,5.0898,5.0898,5.0898,5.0898,5.0898,5.0898,5.0898,5.0898,5.0898,5.0898,5.0898,5.0898,5.0898,5.0898,5.0898,5.0898,5.0898,5.0898,5.0898,5.0898,5.0898,5.0898,5.0898,5.0898,5.0898,5.0898,5.0898,5.0898,5.0898,5.0898,5.0898,5.0898,5.0898,5.0898,5.0898,5.0898,5.0898,5.0898,5.0898,5.0898,5.0898,5.0898,5.0898,4.2174,4.2775,4.3044,4.2653,4.3864,4.5114,4.4997,4.5075,4.5154,4.5194,4.5741,4.6365,4.66,4.7263,4.7849,4.8124,4.9531,5.1719,5.5039,5.6133,5.6914,5.7812,5.8555,5.8359,5.6758,5.6601,5.5898,5.4141,5.3984,5.3242,5.1484,5.1406,5.1406,5.1405,5.1366,5.1366,5.1364,5.1366,5.136,5.1286,5.1286,5.1256,5.1181,5.1181,5.1174,5.1161,0.0,0.0,5.1053,5.1053,5.0981,5.0898,5.0898,5.0898,5.0898,5.0898,5.0898,5.0898,5.0898,5.0898,5.0898,5.0898,5.0898,5.0898,5.0898,5.0898,5.0898,5.0898,5.0898,5.0898,5.0898,5.0898,5.0898,5.0898,5.0898,5.0898,5.0898,5.0898,5.0898,5.0898,5.0898,5.0898,5.0898,5.0898,5.0898,5.0898,5.0898,5.0898,5.0898,5.0898,5.0898,5.0898,5.0898,5.0898,5.0898,5.0898,5.0898,5.0898,5.0898,5.0898,5.0898,5.0898,5.0898,5.0898,5.0898,5.0898,5.0898,5.0898,5.0898,5.0898,5.0898,5.0898,4.2898,4.4899,4.6045,4.386,4.4639,4.5732,4.4995,4.5388,4.595,4.599,4.6085,4.6575,4.8057,4.838,4.8947,5.048,5.1636,5.3281,5.6015,5.6523,5.6914,5.7812,5.8008,5.7695,5.6719,5.6601,5.5898,5.4141,5.3984,5.3242,5.1484,5.1406,5.1365,5.1307,5.1306,5.1288,5.1237,5.1287,5.1284,5.122,5.122,5.1176,5.1111,5.1111,5.1053,5.0935,0.0,5.092,5.0937,5.0937,5.0921,5.0898,5.0898,5.0898,5.0898,5.0898,5.0898,5.0898,5.0898,5.0898,5.0898,5.0898,5.0898,5.0898,5.0898,5.0898,5.0898,5.0898,5.0898,5.0898,5.0898,5.0898,5.0898,5.0898,5.0898,5.0898,5.0898,5.0898,5.0898,5.0898,5.0898,5.0898,5.0898,5.0898,5.0898,5.0898,5.0898,5.0898,5.0898,5.0898,5.0898,5.0898,5.0898,5.0898,5.0898,5.0898,5.0898,5.0898,5.0898,5.0898,5.0898,5.0898,5.0898,5.0898,5.0898,5.0898,5.0898,5.0898,5.0898,5.0898,5.0898,5.0898,4.2961,4.458,4.59,4.6083,4.7495,4.8618,4.7766,4.7494,4.7466,4.7497,4.7478,4.77,4.8509,4.9383,5.0594,5.2418,5.3118,5.4141,5.6289,5.6601,5.6914,5.7812,5.789,5.7383,5.6015,5.5898,5.5156,5.3437,5.3281,5.2734,5.1484,5.1363,5.1313,5.1297,5.127,5.1218,5.1164,5.117,5.117,5.1164,5.1164,5.1103,5.1009,5.1009,5.097,5.0898,0.0,5.0898,5.0898,5.0898,5.0898,5.0898,5.0898,5.0898,5.0898,5.0898,5.0898,5.0898,5.0898,5.0898,5.0898,5.0898,5.0898,5.0898,5.0898,5.0898,5.0898,5.0898,5.0898,5.0898,5.0898,5.0898,5.0898,5.0898,5.0898,5.0898,5.0898,5.0898,5.0898,5.0898,5.0898,5.0898,5.0898,5.0898,5.0898,5.0898,5.0898,5.0898,5.0898,5.0898,5.0898,5.0898,5.0898,5.0898,5.0898,5.0898,5.0898,5.0898,5.0898,5.0898,5.0898,5.0898,5.0898,5.0898,5.0898,5.0898,5.0898,5.0898,5.0898,5.0898,5.0898,5.0898,4.3154,4.4365,4.568,4.785,4.9329,5.0272,5.0427,4.9608,4.8988,4.9398,4.9306,4.9143,4.9166,5.0614,5.2275,5.3862,5.4393,5.5115,5.6639,5.6523,5.6601,5.75,5.7226,5.6445,5.5116,5.4959,5.4334,5.2772,5.2652,5.2261,5.1404,5.1304,5.1274,5.1261,5.1205,5.112,5.1037,5.1037,5.1037,5.1037,5.1037,5.1016,5.0898,5.0898,5.0898,5.0898,5.0898,5.0898,5.0898,5.0898,5.0898,5.0898,5.0898,5.0898,5.0898,5.0898,5.0898,5.0898,5.0898,5.0898,5.0898,5.0898,5.0898,5.0898,5.0898,5.0898,5.0898,5.0898,5.0898,5.0898,5.0898,5.0898,5.0898,5.0898,5.0898,5.0898,5.0898,5.0898,5.0898,5.0898,5.0898,5.0898,5.0898,5.0898,5.0898,5.0898,5.0898,5.0898,5.0898,5.0898,5.0898,5.0898,5.0898,5.0898,5.0898,5.0898,5.0898,5.0898,5.0898,5.0898,5.0898,5.0898,5.0898,5.0898,5.0898,5.0898,5.0898,5.0898,5.0898,5.0898,5.0898,5.0898,4.4049,4.5684,4.7157,4.8159,4.7907,4.8196,5.1331,5.0786,5.0083,5.1716,5.1333,5.078,5.0909,5.2302,5.3716,5.4693,5.5675,5.661,5.7509,5.6322,5.5703,5.6601,5.5273,5.4217,5.4001,5.3997,5.3607,5.2669,5.2548,5.2149,5.1338,5.125,5.1174,5.1111,5.11,5.1034,5.0917,5.0917,5.0917,5.0917,5.0917,5.091,5.0898,5.0898,5.0898,5.0898,5.0898,5.0898,5.0898,5.0898,5.0898,5.0898,5.0898,5.0898,5.0898,5.0898,5.0898,5.0898,5.0898,5.0898,5.0898,5.0898,5.0898,5.0898,5.0898,5.0898,5.0898,5.0898,5.0898,5.0898,5.0898,5.0898,5.0898,5.0898,5.0898,5.0898,5.0898,5.0898,5.0898,5.0898,5.0898,5.0898,5.0898,5.0898,5.0898,5.0898,5.0898,5.0898,5.0898,5.0898,5.0898,5.0898,5.0898,5.0898,5.0898,5.0898,5.0898,5.0898,5.0898,5.0898,5.0898,5.0898,5.0898,5.0898,5.0898,5.0898,5.0898,5.0898,5.0898,5.0898,5.0898,5.0898,4.3255,4.4977,4.6618,4.801,4.8527,4.932,5.1683,5.1722,5.1738,5.3491,5.3573,5.3166,5.2682,5.3133,5.3895,5.4747,5.5733,5.6473,5.6789,5.5834,5.5264,5.5619,5.4603,5.3656,5.3086,5.3044,5.2653,5.1793,5.1728,5.1567,5.1244,5.1168,5.1131,5.1083,5.1001,5.0963,5.0902,5.0898,5.0898,5.0898,5.0898,5.0898,5.0898,5.0898,5.0898,5.0898,5.0898,5.0898,5.0898,5.0898,5.0898,5.0898,5.0898,5.0898,5.0898,5.0898,5.0898,5.0898,5.0898,5.0898,5.0898,5.0898,5.0898,5.0898,5.0898,5.0898,5.0898,5.0898,5.0898,5.0898,5.0898,5.0898,5.0898,5.0898,5.0898,5.0898,5.0898,5.0898,5.0898,5.0898,5.0898,5.0898,5.0898,5.0898,5.0898,5.0898,5.0898,5.0898,5.0898,5.0898,5.0898,5.0898,5.0898,5.0898,5.0898,5.0898,5.0898,5.0898,5.0898,5.0898,5.0898,5.0898,5.0898,5.0898,5.0898,5.0898,5.0898,5.0898,5.0898,5.0898,5.0898,5.0898,4.325,4.4855,4.6577,4.8292,4.8972,4.9923,5.2453,5.2805,5.3192,5.52,5.4967,5.4116,5.327,5.3366,5.3673,5.3983,5.5063,5.576,5.5495,5.4738,5.4249,5.4255,5.3512,5.2758,5.2102,5.2061,5.1825,5.1198,5.1128,5.1125,5.1156,5.1092,5.106,5.106,5.0959,5.0898,5.0898,5.0898,5.0898,5.0898,5.0898,5.0898,5.0898,5.0898,5.0898,5.0898,5.0898,5.0898,5.0898,5.0898,5.0898,5.0898,5.0898,5.0898,5.0898,5.0898,5.0898,5.0898,5.0898,5.0898,5.0898,5.0898,5.0898,5.0898,5.0898,5.0898,5.0898,5.0898,5.0898,5.0898,5.0898,5.0898,5.0898,5.0898,5.0898,5.0898,5.0898,5.0898,5.0898,5.0898,5.0898,5.0898,5.0898,5.0898,5.0898,5.0898,5.0898,5.0898,5.0898,5.0898,5.0898,5.0898,5.0898,5.0898,5.0898,5.0898,5.0898,5.0898,5.1173,5.1173,5.0898,5.1173,5.1173,5.0898,5.1173,5.1173,5.0898,5.0898,5.0898,5.0898,5.0898,5.0898,4.4388,4.5669,4.7421,4.9168,4.8948,4.9467,5.3799,5.4116,5.4233,5.6781,5.5277,5.3231,5.238,5.2921,5.3192,5.2341,5.3719,5.4588,5.3701,5.2979,5.2491,5.2491,5.1747,5.1163,5.1094,5.1119,5.1119,5.108,5.0992,5.097,5.1074,5.0988,5.0898,5.0898,5.0898,5.0898,5.0898,5.0898,5.0898,5.0898,5.0898,5.0898,5.0898,5.0898,5.0898,5.0898,5.0898,5.0898,5.0898,5.0898,5.0898,5.0898,5.0898,5.0898,5.0898,5.0898,5.0898,5.0898,5.0898,5.0898,5.0898,5.0898,5.0898,5.0898,5.0898,5.0898,5.0898,5.0898,5.0898,5.0898,5.0898,5.0898,5.0898,5.0898,5.0898,5.0898,5.0898,5.0898,5.0898,5.0898,5.0898,5.0898,5.0898,5.0898,5.0898,5.0898,5.0898,5.0898,5.0898,5.0898,5.0898,5.0898,5.0898,5.0898,5.0898,5.0898,5.0937,5.0937,5.1718,5.1834,5.0937,5.1757,5.1796,5.0937,5.1757,5.1796,5.0898,5.0898,5.0898,5.0898,5.0898,5.0898,4.4311,4.6039,4.7962,4.8552,5.028,5.2245,5.3567,5.4155,5.4967,5.6897,5.5277,5.3424,5.3153,5.2805,5.2496,5.2225,5.3158,5.3619,5.2728,5.2419,5.2055,5.1431,5.1703,5.1647,5.1016,5.152,5.1636,5.1012,5.0929,5.0921,5.097,5.0925,5.0898,5.0898,5.0898,5.0898,5.0898,5.0898,5.0898,5.0898,5.0898,5.0898,5.0898,5.0898,5.0898,5.0898,5.0898,5.0898,5.0898,5.0898,5.0898,5.0898,5.0898,5.0898,5.0898,5.0898,5.0898,5.0898,5.0898,5.0898,5.0898,5.0898,5.0898,5.0898,5.0898,5.0898,5.0898,5.0898,5.0898,5.0898,5.0898,5.0898,5.0898,5.0898,5.0898,5.0898,5.0898,5.0898,5.0898,5.0898,5.0898,5.0898,5.0898,5.0898,5.0898,5.0898,5.0898,5.0898,5.0898,5.0898,5.0898,5.0898,5.0898,5.1134,5.1757,5.1796,5.2066,5.2685,5.2956,5.2728,5.1834,5.2651,5.2999,5.2724,5.2999,5.2689,5.1796,5.1796,5.1486,5.0898,5.0898,5.0898,4.5624,4.7459,4.9382,5.0082,5.1867,5.3576,5.4336,5.489,5.547,5.6162,5.4813,5.3386,5.3037,5.2535,5.2109,5.1757,5.2418,5.2689,5.1796,5.1679,5.1486,5.0975,5.1366,5.1486,5.0937,5.1366,5.1486,5.0937,5.0898,5.0898,5.0898,5.0898,5.0898,5.0898,5.0898,5.0898,5.0898,5.0898,5.0898,5.0898,5.0898,5.0898,5.0898,5.0898,5.0898,5.0898,5.0898,5.0898,5.0898,5.0898,5.0898,5.0898,5.0898,5.0898,5.0898,5.0898,5.0898,5.0898,5.0898,5.0898,5.0898,5.0898,5.0898,5.0898,5.0898,5.0898,5.0898,5.0898,5.0898,5.0898,5.0898,5.0898,5.0898,5.0898,5.0898,5.0898,5.0898,5.0898,5.0898,5.0898,5.0898,5.0898,5.0898,5.0898,5.0898,5.0898,5.1173,5.1409,5.1409,5.1714,5.1946,5.1946,5.1946,5.2144,5.2689,5.2728,5.2921,5.3463,5.3807,5.3772,5.327,5.3734,5.3846,5.3502,5.3846,5.3579,5.2728,5.2728,5.2453,5.1946,5.1946,5.1946,4.7663,4.9356,5.1106,5.2849,5.348,5.4046,5.5633,5.5926,5.5694,5.4967,5.4039,5.3153,5.2341,5.2148,5.1834,5.1018,5.1563,5.1796,5.1018,5.0898,5.0898,5.0898,5.0979,5.0979,5.0898,5.0975,5.0979,5.0898,5.0898,5.0898,5.0898,5.0898,5.0898,5.0898,5.0898,5.0898,5.0898,5.0898,5.0898,5.0898,5.0898,5.0898,5.0898,5.0898,5.0898,5.0898,5.0898,5.0898,5.0898,5.0898,5.0898,5.0898,5.0898,5.0898,5.0898,5.0898,5.0898,5.0898,5.0898,5.0898,5.0898,5.0898,5.0898,5.0898,5.0898,5.0898,5.0898,5.0898,5.0898,5.0898,5.0898,5.0898,5.0898,5.0898,5.0898,5.0898,5.0898,5.0898,5.0898,5.0898,5.0898,5.0898,5.0898,5.0898,5.0937,5.1018,5.1679,5.2225,5.2302,5.2999,5.3502,5.3502,5.3502,5.354,5.3618,5.3618,5.3656,5.373,5.4465,5.4929,5.4929,5.4929,5.4542,5.373,5.4503,5.4465,5.3618,5.3618,5.3579,5.3502,5.3502,5.3502,4.7812,4.9356,5.1106,5.2849,5.4323,5.5456,5.5902,5.5491,5.4959,5.4804,5.3579,5.2418,5.2225,5.1641,5.1134,5.0937,5.1057,5.1095,5.0937,5.0898,5.0898,5.0898,5.1486,5.1641,5.0979,5.1525,5.1641,5.0937,5.0898,5.0898,5.0898,5.0898,5.0898,5.0898,5.0898,5.0898,5.0898,5.0898,5.0898,5.0898,5.0898,5.0898,5.0898,5.0898,5.0898,5.0898,5.0898,5.0898,5.0898,5.0898,5.0898,5.0898,5.0898,5.0898,5.0898,5.0898,5.0898,5.0898,5.0898,5.0898,5.0898,5.0898,5.0898,5.0898,5.0898,5.0898,5.0898,5.0898,5.0898,5.0898,5.0898,5.0898,5.0898,5.0898,5.0898,5.0898,5.0898,5.0898,5.0898,5.0898,5.0898,5.0898,5.0898,5.0898,5.1134,5.1834,5.207,5.2457,5.3115,5.3386,5.3502,5.3502,5.3502,5.3772,5.4465,5.4503,5.4774,5.5427,5.5621,5.5737,5.5737,5.5737,5.5659,5.5466,5.5659,5.5354,5.4503,5.4503,5.4155,5.3502,5.3502,5.3502,4.7658,4.9663,5.1794,5.3966,5.5195,5.5769,5.5459,5.47,5.3984,5.3644,5.2844,5.207,5.1641,5.1211,5.0898,5.0898,5.0898,5.0898,5.0898,5.0898,5.0898,5.0898,5.1289,5.1409,5.0937,5.1327,5.1405,5.0937,5.0898,5.0898,5.0898,5.0898,5.0898,5.0898,5.0898,5.0898,5.0898,5.0898,5.0898,5.0898,5.0898,5.0898,5.0898,5.0898,5.0898,5.0898,5.0898,5.0898,5.0898,5.0898,5.0898,5.0898,5.0898,5.0898,5.0898,5.0898,5.0898,5.0898,5.0898,5.0898,5.0898,5.0898,5.0898,5.0898,5.0898,5.0898,5.0898,5.0898,5.0898,5.0898,5.0898,5.0898,5.0898,5.0898,5.0898,5.0898,5.0898,5.0898,5.0898,5.0898,5.0898,5.0898,5.0898,5.125,5.1834,5.2689,5.3192,5.3618,5.4039,5.4465,5.4697,5.4697,5.4697,5.489,5.5354,5.5354,5.5543,5.5969,5.6008,5.6008,5.6008,5.6008,5.6008,5.6008,5.6008,5.5776,5.5354,5.5354,5.5122,5.4697,5.4697,5.4697,4.7009,4.9736,5.2477,5.4957,5.571,5.5586,5.4862,5.4039,5.3172,5.2372,5.207,5.1757,5.1018,5.0898,5.0859,5.0709,5.0709,5.0631,5.0476,5.0476,5.0476,5.0476,5.0476,5.0476,5.0476,5.0476,5.0476,5.0476,5.0593,5.0709,5.0709,5.0821,5.0898,5.0898,5.0898,5.0898,5.0898,5.0898,5.0898,5.0898,5.0898,5.0898,5.0898,5.0898,5.0898,5.0898,5.0898,5.0898,5.0898,5.0898,5.0898,5.0898,5.0898,5.0898,5.0898,5.0898,5.0898,5.0898,5.0898,5.0898,5.0898,5.0898,5.0898,5.0898,5.0898,5.0898,5.0898,5.0898,5.0898,5.0898,5.0898,5.0898,5.0898,5.0898,5.0898,5.0898,5.0898,5.0898,5.0898,5.0898,5.1018,5.1134,5.1134,5.1834,5.2728,5.3579,5.4349,5.4851,5.5006,5.5582,5.6008,5.6008,5.6008,5.6008,5.6008,5.6008,5.6008,5.6008,5.6008,5.6008,5.6008,5.6008,5.6008,5.6008,5.6008,5.6008,5.6008,5.6008,5.6008,5.6008,5.6008,5.6008,4.5436,4.8856,5.2351,5.4213,5.5255,5.5576,5.4776,5.3974,5.3172,5.2372,5.1602,5.1057,5.0937,5.0898,5.067,4.9974,4.9858,4.9587,4.8856,4.874,4.874,4.874,4.874,4.874,4.874,4.874,4.874,4.874,4.9432,4.9858,4.9858,5.0515,5.0898,5.0898,5.0898,5.0898,5.0898,5.0898,5.0898,5.0898,5.0898,5.0898,5.0898,5.0898,5.0898,5.0898,5.0898,5.0898,5.0898,5.0898,5.0898,5.0898,5.0898,5.0898,5.0898,5.0898,5.0898,5.0898,5.0898,5.0898,5.0898,5.0898,5.0898,5.0898,5.0898,5.0898,5.0898,5.0898,5.0898,5.0898,5.0898,5.0898,5.0898,5.0898,5.0898,5.0898,5.0898,5.0898,5.0898,5.0898,5.1525,5.2032,5.2032,5.2767,5.3618,5.4503,5.4735,5.5045,5.5737,5.593,5.6008,5.6008,5.6008,5.6008,5.6008,5.6008,5.6008,5.6008,5.6008,5.6008,5.6008,5.6008,5.6008,5.6008,5.6008,5.6008,5.6008,5.6008,5.6008,5.6008,5.6008,5.6008,4.6163,4.8702,5.1125,5.3818,5.4442,5.4299,5.3957,5.3236,5.2434,5.1629,5.1173,5.0898,5.0898,5.0515,5.0128,4.9742,4.9281,4.8856,4.8469,4.8392,4.8392,4.8392,4.8392,4.8392,4.8392,4.8392,4.8392,4.8392,4.8778,4.8972,4.8972,4.9316,4.9509,4.9509,4.9509,4.9509,4.9509,4.9509,4.9742,5.0244,5.067,5.0898,5.0898,5.0898,5.0898,5.0898,5.0898,5.0898,5.0898,5.0898,5.0898,5.0898,5.0898,5.0898,5.0898,5.0898,5.0898,5.0898,5.0898,5.0898,5.0898,5.0898,5.0898,5.0898,5.0898,5.0898,5.0898,5.0898,5.0898,5.0898,5.0898,5.0898,5.0898,5.0898,5.125,5.1641,5.1641,5.125,5.1057,5.1525,5.1954,5.2496,5.3502,5.3962,5.4503,5.5354,5.5466,5.5582,5.593,5.6008,5.6008,5.6008,5.6008,5.6008,5.6008,5.6008,5.6008,5.6008,5.6008,5.6008,5.6008,5.6008,5.6008,5.6008,5.6008,5.6008,5.6008,5.6008,5.6008,5.6008,5.6008,5.6008,4.6047,4.7778,4.9245,5.2669,5.3258,5.3008,5.2997,5.255,5.1871,5.1087,5.0747,5.0593,5.0593,5.009,4.9548,4.9126,4.8508,4.8005,4.7773,4.7734,4.7734,4.7734,4.7734,4.7734,4.7734,4.7734,4.7734,4.7734,4.7927,4.8082,4.8082,4.8275,4.8392,4.8392,4.8392,4.8508,4.874,4.8933,4.9355,5.0012,5.0593,5.0898,5.0898,5.0898,5.0898,5.0898,5.0898,5.0898,5.0898,5.0898,5.0898,5.0898,5.0898,5.0898,5.0898,5.0898,5.0898,5.0898,5.0898,5.0898,5.0898,5.0898,5.0898,5.0898,5.0898,5.0898,5.0898,5.0898,5.0898,5.0898,5.0898,5.0898,5.0979,5.1173,5.1718,5.2264,5.2496,5.2028,5.1753,5.2418,5.2728,5.327,5.4581,5.4967,5.5316,5.5892,5.6008,5.6008,5.6008,5.6008,5.6008,5.6008,5.6008,5.6008,5.6008,5.6008,5.6008,5.6008,5.6008,5.6008,5.6008,5.6008,5.6008,5.6008,5.6008,5.6008,5.6008,5.6008,5.6008,5.6008,5.6008,5.6008,4.3585,4.5128,4.6633,5.0053,5.1553,5.2162,5.2158,5.2194,5.195,5.1095,5.0283,4.9742,4.9742,4.9742,4.9165,4.7505,4.7196,4.6886,4.6035,4.5919,4.5919,4.5919,4.5919,4.5919,4.5919,4.5919,4.5919,4.5919,4.6693,4.7157,4.7157,4.7966,4.8392,4.8392,4.8392,4.8817,4.9626,5.0399,5.0782,5.0821,5.0859,5.0898,5.0898,5.0898,5.0898,5.0898,5.0898,5.0898,5.0898,5.0898,5.0898,5.0898,5.0898,5.0898,5.0898,5.0898,5.0898,5.0898,5.0898,5.0898,5.0898,5.0898,5.0898,5.0898,5.0898,5.0898,5.0898,5.0898,5.0898,5.0898,5.0898,5.0898,5.1095,5.1954,5.2186,5.2418,5.327,5.3386,5.3386,5.3424,5.4116,5.4697,5.4774,5.5432,5.593,5.6008,5.6008,5.6008,5.6008,5.6008,5.6008,5.6008,5.6008,5.6008,5.6008,5.6008,5.6008,5.6008,5.6008,5.6008,5.6008,5.6008,5.6008,5.6008,5.6008,5.6008,5.6008,5.6008,5.6008,5.6008,5.6008,5.6008,4.2777,4.3739,4.4821,4.8202,4.9357,4.9933,5.1009,5.1309,5.1289,5.0975,5.0244,4.9513,4.8972,4.8392,4.7811,4.7196,4.6616,4.6151,4.5842,4.5803,4.5803,4.5803,4.5803,4.5803,4.5803,4.5803,4.5803,4.5803,4.6074,4.6268,4.6268,4.6577,4.6732,4.6732,4.6732,4.7157,4.8005,4.9432,5.0128,5.0128,5.067,5.0898,5.0898,5.0898,5.0898,5.0898,5.0898,5.0898,5.0898,5.0898,5.0898,5.0898,5.0898,5.0898,5.0898,5.0898,5.0898,5.0898,5.0898,5.0898,5.0898,5.0898,5.0898,5.0898,5.0898,5.0898,5.0898,5.0898,5.1289,5.1602,5.1057,5.1327,5.195,5.2844,5.3463,5.4116,5.4929,5.4271,5.3656,5.4233,5.4581,5.4967,5.5466,5.5814,5.6008,5.6008,5.6008,5.6008,5.6008,5.6008,5.6008,5.6008,5.6008,5.6008,5.6008,5.6008,5.6008,5.6008,5.6008,5.6008,5.6008,5.6008,5.6008,5.6008,5.6008,5.6008,5.6008,5.6008,5.6008,5.6008,5.6008,5.6008,4.1627,4.2431,4.3466,4.6851,4.7341,4.7632,5.0177,5.0396,5.0186,5.0766,5.0275,4.9436,4.8546,4.7695,4.7003,4.6693,4.619,4.5803,4.5803,4.5803,4.5803,4.5803,4.5803,4.5803,4.5803,4.5803,4.5803,4.5803,4.5803,4.5803,4.5803,4.5803,4.5919,4.6229,4.6538,4.708,4.7966,4.9393,5.009,5.0128,5.0631,5.0898,5.0898,5.0898,5.0898,5.0898,5.0898,5.0898,5.0898,5.0898,5.0898,5.0898,5.0898,5.0898,5.0898,5.0898,5.0898,5.0898,5.0898,5.0898,5.0898,5.0898,5.1095,5.1327,5.1327,5.1521,5.1753,5.1753,5.2182,5.2496,5.1908,5.2414,5.3231,5.3811,5.4581,5.5354,5.5892,5.5122,5.4503,5.5084,5.52,5.5354,5.5892,5.6008,5.6008,5.6008,5.6008,5.6008,5.6008,5.6008,5.6008,5.6008,5.6008,5.6008,5.6008,5.6008,5.6008,5.6008,5.6008,5.6008,5.6008,5.6008,5.6008,5.6008,5.6008,5.6008,5.6008,5.6008,5.6008,5.6008,5.6008,5.6008,0.0,0.0,0.0,4.5928,4.5543,4.5466,4.9622,4.9346,4.8755,5.0494,5.0217,4.9393,4.8585,4.7734,4.6848,4.5997,4.5803,4.5803,4.5803,4.5803,4.5803,4.5803,4.5803,4.5803,4.5803,4.5803,4.5803,4.5803,4.5803,4.5803,4.5803,4.5803,4.619,4.708,4.7966,4.8817,4.9703,5.0515,5.0898,5.0898,5.0898,5.0898,5.0898,5.0898,5.0898,5.0898,5.0898,5.0898,5.0898,5.0898,5.0898,5.0898,5.0898,5.0898,5.0898,5.0898,5.0937,5.0937,5.0937,5.0975,5.0975,5.0975,5.1563,5.2225,5.2225,5.2844,5.3502,5.3502,5.354,5.354,5.354,5.4155,5.4813,5.4813,5.5393,5.6008,5.6008,5.6008,5.6008,5.6008,5.6008,5.6008,5.6008,5.6008,5.6008,5.6008,5.6008,5.6008,5.6008,5.6008,5.6008,5.6008,5.6008,5.6008,5.6008,5.6008,5.6008,5.6008,5.6008,5.6008,5.6008,5.6008,5.6008,5.6008,5.6008,5.6008,5.6008,5.6008,5.6008,5.6008,5.6008,5.6008,4.0208,0.0,0.0,0.0,0.0,0.0,4.6549,4.7246,4.7827,4.9525,4.9249,4.8814,4.92,4.8605,4.7773,4.6886,4.619,4.5803,4.5803,4.5803,4.5803,4.5803,4.5803,4.5803,4.5803,4.5803,4.5803,0.0,4.5803,4.5803,4.5803,4.5803,4.619,4.708,4.7966,4.8817,4.9703,5.0515,5.0898,5.0898,5.0898,5.0898,5.0898,5.0898,5.0898,5.0898,5.0898,5.0898,5.0898,5.0898,5.0898,5.0898,5.0898,5.0898,5.0898,5.0898,5.1289,5.1834,5.1834,5.226,5.2763,5.2763,5.2956,5.3153,5.3153,5.3308,5.3502,5.3502,5.3962,5.4426,5.4426,5.4619,5.4813,5.4813,5.5393,5.6008,5.6008,5.6008,5.6008,5.6008,5.6008,5.6008,5.6008,5.6008,5.6008,5.6008,5.6008,5.6008,5.6008,5.6008,5.6008,5.6008,5.6008,5.6008,5.6008,5.6008,5.6008,5.6008,5.6008,5.6008,5.6008,5.6008,5.6008,5.6008,5.6008,5.6008,5.6008,5.6008,5.6008,5.6008,5.6008,5.6008,0.0,0.0,0.0,0.0,0.0,0.0,4.6052,4.6283,4.6513,4.8578,4.8924,4.8918,4.9088,4.8995,4.8662,4.7773,4.7235,4.6616,4.5881,4.5803,4.5803,4.5803,4.5803,4.5803,4.5803,4.5803,4.5803,4.5803,4.5803,4.5803,4.5803,4.5803,4.6384,4.7579,4.8121,4.8972,5.0206,5.067,5.0898,5.0898,5.0898,5.0898,5.0898,5.0898,5.0898,5.0898,5.0898,5.0898,5.0898,5.0898,5.0898,5.0898,5.0898,5.1134,5.1447,5.1447,5.1989,5.2728,5.2728,5.3076,5.3502,5.3502,5.3734,5.4039,5.4039,5.4271,5.4542,5.4542,5.4929,5.5316,5.5316,5.5316,5.5316,5.5316,5.5659,5.6008,5.6008,5.6008,5.6008,5.6008,5.6008,5.6008,5.6008,5.6008,5.6008,5.6008,5.6008,5.6008,5.6008,5.6008,5.6008,5.6008,5.6008,5.6008,5.6008,5.6008,5.6008,5.6008,5.6008,5.6008,5.6008,5.6008,5.6008,5.6008,5.6008,5.6008,5.6008,5.6008,5.6008,5.6008,5.6008,5.6008,0.0,0.0,0.0,0.0,0.0,0.0,4.662,4.5847,4.5046,4.7362,4.8483,4.8833,4.8211,4.8802,4.9073,4.811,4.8191,4.7808,4.6151,4.5919,4.5919,4.5803,4.5803,4.5803,4.5803,4.5803,4.5803,4.5803,4.5803,4.5803,4.5803,4.5803,4.6538,4.8198,4.8353,4.9165,5.0743,5.0859,5.0898,5.0898,5.0898,5.0898,5.0898,5.0898,5.0898,5.0898,5.0898,5.0898,5.0898,5.0898,5.0898,5.0898,5.0898,5.1447,5.2186,5.2186,5.2805,5.3656,5.3656,5.3695,5.3768,5.3768,5.431,5.4929,5.4929,5.5432,5.6008,5.6008,5.6008,5.6008,5.6008,5.6008,5.6008,5.6008,5.6008,5.6008,5.6008,5.6008,5.6008,5.6008,5.6008,5.6008,5.6008,5.6008,5.6008,5.6008,5.6008,5.6008,5.6008,5.6008,5.6008,5.6008,5.6008,5.6008,5.6008,5.6008,5.6008,5.6008,5.6008,5.6008,5.6008,5.6008,5.6008,5.6008,5.6008,5.6008,5.6008,5.6008,5.6008,5.6008,5.6008,5.6008,0.0,0.0,0.0,0.0,0.0,0.0,4.3312,4.3705,4.4449,4.4962,4.5269,4.5575,4.6123,4.6923,4.7024,4.5519,4.6974,4.7971,4.6999,4.6848,4.6577,4.5881,4.5803,4.5803,4.5803,4.5803,4.5803,4.5803,4.5803,4.5803,4.5803,4.5803,4.6268,4.7312,4.8043,4.8894,4.9935,5.0593,5.0898,5.0898,5.0898,5.0898,5.0898,5.0898,5.0898,5.0898,5.0898,5.0898,5.0898,5.0898,5.0898,5.0898,5.0898,5.1447,5.2186,5.2186,5.3192,5.4542,5.4542,5.4967,5.5505,5.5505,5.5621,5.5776,5.5776,5.5892,5.6008,5.6008,5.6008,5.6008,5.6008,5.6008,5.6008,5.6008,5.6008,5.6008,5.6008,5.6008,5.6008,5.6008,5.6008,5.6008,5.6008,5.6008,5.6008,5.6008,5.6008,5.6008,5.6008,5.6008,5.6008,5.6008,5.6008,5.6008,5.6008,5.6008,5.6008,5.6008,5.6008,5.6008,5.6008,5.6008,5.6008,5.6008,5.6008,5.6008,5.6008,5.6008,5.6008,5.6008,5.6008,5.6008,0.0,0.0,0.0,4.5586,0.0,0.0,0.0,4.3355,4.344,4.4735,4.4679,4.4819,4.6115,4.6714,4.673,4.5881,4.7534,4.8334,4.6634,4.717,4.7583,4.7157,4.7119,4.7119,4.7119,4.6693,4.6268,4.5842,4.5803,4.5803,4.5803,4.5803,4.619,4.708,4.7966,4.8817,4.9703,5.0515,5.0898,5.0898,5.0898,5.0898,5.0898,5.0898,5.0898,5.0898,5.0898,5.0898,5.0898,5.0917,5.0909,5.0951,5.1362,5.2066,5.2883,5.3347,5.431,5.5393,5.5393,5.5659,5.6008,5.6008,5.6008,5.6008,5.6008,5.6008,5.6008,5.6008,5.6008,5.6008,5.6008,5.6008,5.6008,5.6008,5.6008,5.6008,5.6008,5.6008,5.6008,5.6008,5.6008,5.6008,5.6008,5.6008,5.6008,5.6008,5.6008,5.6008,5.6008,5.6008,5.6008,5.6008,5.6008,5.6008,5.6008,5.6008,5.6008,5.6008,5.6008,5.6008,5.6008,5.6008,5.6008,5.6008,5.6008,5.6008,5.6008,5.6008,5.6008,5.6008,5.6008,5.6008,0.0,0.0,0.0,0.0,0.0,4.5009,0.0,0.0,0.0,4.4794,4.4644,4.4579,4.6004,4.6243,4.6205,4.605,4.7587,4.7989,4.5526,4.6897,4.8021,4.7677,4.8075,4.831,4.8191,4.7343,4.6693,4.6345,4.5842,4.5726,4.6035,4.5881,4.6113,4.6848,4.785,4.874,4.9436,5.0399,5.0894,5.089,5.089,5.0886,5.0878,5.0878,5.0878,5.0878,5.0878,5.0878,5.0874,5.0884,5.0868,5.0953,5.1849,5.2712,5.3554,5.446,5.5303,5.5981,5.6003,5.5995,5.5981,5.6003,5.6008,5.6008,5.6008,5.6008,5.6008,5.6008,5.6008,5.6008,5.6008,5.6008,5.6008,5.6008,5.6008,5.6008,5.6008,5.6008,5.6008,5.6008,5.6008,5.6008,5.6008,5.6008,5.6008,5.6008,5.6008,5.6008,5.6008,5.6008,5.6008,5.6008,5.6008,5.6008,5.6008,5.6008,5.6008,5.6008,5.6008,5.6008,5.6008,5.6008,5.6008,5.6008,5.6008,5.6008,5.6008,5.6008,5.6008,5.6008,5.6008,5.6008,0.0,0.0,0.0,0.0,4.6778,0.0,0.0,0.0,4.3897,4.3478,0.0,4.3324,4.3525,0.0,0.0,4.252,4.449,4.5486,4.3636,4.5561,4.6626,4.5125,4.7001,4.811,4.7303,4.6443,4.6538,4.8005,4.5993,4.5374,4.6886,4.6229,4.5842,4.5919,4.7544,4.8469,4.8546,5.0128,5.0882,5.0888,5.0888,5.0868,5.0795,5.0795,5.0795,5.0795,5.0795,5.0795,5.0795,5.0829,5.0825,5.0906,5.176,5.2601,5.3429,5.4435,5.5259,5.5929,5.5977,5.595,5.5929,5.5981,5.6008,5.6008,5.6008,5.6008,5.6008,5.6008,5.6008,5.6008,5.6008,5.6008,5.6008,5.6008,5.6008,5.6008,5.6008,5.6008,5.6008,5.6008,5.6008,5.6008,5.6008,5.6008,5.6008,5.6008,5.6008,5.6008,5.6008,5.6008,5.6008,5.6008,5.6008,5.6008,5.6008,5.6008,5.6008,5.6008,5.6008,5.6008,5.6008,5.6008,5.6008,5.6008,5.6008,5.6008,5.6008,5.6008,5.6008,5.6008,5.6008,5.6008,0.0,0.0,0.0,0.0,0.0,0.0,4.3893,0.0,4.3778,0.0,0.0,0.0,0.0,0.0,0.0,0.0,4.3896,4.4152,4.1898,4.4261,4.5997,4.5264,4.6603,4.7631,4.7793,4.7036,4.7054,4.8314,4.6478,4.5817,4.7038,4.6732,4.6334,4.5814,4.7434,4.8346,4.8326,4.9983,5.0825,5.0846,5.0846,5.0838,5.0821,5.0821,5.0821,5.0821,5.0821,5.0821,5.0816,5.0747,5.1042,5.1586,5.2453,5.3006,5.3483,5.4909,5.5624,5.5905,5.5947,5.5933,5.5905,5.5947,5.5923,5.5966,5.5998,5.6007,5.6011,5.5999,5.6008,5.6008,5.6008,5.6008,5.6008,5.6008,5.6008,5.6008,5.6008,5.6008,5.6008,5.6008,5.6008,5.6008,5.6008,5.6008,5.6008,5.6008,5.6008,5.6008,5.6008,5.6008,5.6008,5.6008,5.6008,5.6008,5.6008,5.6008,5.6008,5.6008,5.6008,5.6008,5.6008,5.6008,5.6008,5.6008,5.6008,5.6008,5.6008,5.6008,5.6008,5.6008,5.6008,5.6008,4.9759,0.0,0.0,0.0,0.0,0.0,0.0,0.0,0.0,0.0,0.0,0.0,0.0,0.0,0.0,0.0,0.0,4.3203,0.0,4.2876,4.465,0.0,0.0,4.7305,4.8199,4.7121,4.7024,4.8605,4.6677,4.6093,4.7719,4.7553,4.7148,4.6499,4.789,4.8646,4.8617,5.0083,5.0773,5.076,5.076,5.0751,5.0781,5.0781,5.0781,5.0781,5.0781,5.0781,5.0776,5.0966,5.1409,5.2064,5.3186,5.3634,5.3827,5.535,5.588,5.586,5.589,5.59,5.5895,5.5885,5.589,5.5909,5.6,5.6005,5.5966,5.5977,5.599,5.599,5.599,5.5999,5.6008,5.6008,5.6008,5.6008,5.6008,5.6008,5.6008,5.6008,5.6008,5.6008,5.6008,5.6008,5.6008,5.6008,5.6008,5.6008,5.6008,5.6008,5.6008,5.6008,5.6008,5.6008,5.6008,5.6008,5.6008,5.6008,5.6008,5.6008,5.6008,5.6008,5.6008,5.6008,5.6008,5.6008,5.6008,5.6008,5.6008,5.6008,5.6008,5.6008,0.0,0.0,0.0,4.7543,0.0,0.0,0.0,0.0,4.5556,0.0,0.0,0.0,0.0,0.0,0.0,0.0,0.0,0.0,0.0,0.0,0.0,0.0,0.0,0.0,4.8192,4.6036,4.5978,4.9296,4.6399,4.5928,4.9335,4.8715,4.8261,4.8223,4.9033,4.9453,4.9453,5.0349,5.0756,5.0701,5.0701,5.0716,5.0712,5.0712,5.0712,5.0712,5.0712,5.0712,5.075,5.1548,5.189,5.2082,5.378,5.4477,5.457,5.5552,5.5835,5.5724,5.5865,5.59,5.589,5.5807,5.586,5.5909,5.6,5.5943,5.5909,5.5961,5.6018,5.6018,5.6018,5.6011,5.6008,5.6008,5.6008,5.6008,5.6008,5.6008,5.6008,5.6008,5.6008,5.6008,5.6008,5.6008,5.6008,5.6008,5.6008,5.6008,5.6008,5.6008,5.6008,5.6008,5.6008,5.6008,5.6008,5.6008,5.6008,5.6008,5.6008,5.6008,5.6008,5.6008,5.6008,5.6008,5.6008,5.6008,5.6008,5.6008,5.6008,5.6008,5.6008,5.6008,0.0,0.0,5.0361,4.8314,0.0,0.0,0.0,0.0,0.0,0.0,0.0,0.0,0.0,0.0,0.0,0.0,0.0,0.0,0.0,0.0,0.0,0.0,0.0,0.0,0.0,4.495,4.5626,4.8522,4.659,4.6505,4.9363,4.923,4.8823,4.8253,4.9062,4.9473,4.9441,5.0297,5.0712,5.0693,5.0693,5.0683,5.0707,5.0707,5.0707,5.0707,5.0707,5.0707,5.0707,5.0976,5.1779,5.2813,5.3395,5.4318,5.5324,5.563,5.5735,5.5714,5.5745,5.5761,5.5756,5.574,5.5745,5.5771,5.5865,5.587,5.587,5.5952,5.6014,5.5984,5.6016,5.5995,5.6008,5.6008,5.6008,5.6008,5.6008,5.6008,5.6008,5.6008,5.6008,5.6008,5.6008,5.6008,5.6008,5.6008,5.6008,5.6008,5.6008,5.6008,5.6008,5.6008,5.6008,5.6008,5.6008,5.6549,5.6859,5.6859,5.6859,5.6859,5.6859,5.6317,5.6008,5.6008,5.6008,5.6008,5.6008,5.6008,5.6008,5.6008,5.6008,5.6008,5.1017,5.0982,0.0,4.9114,4.8705,0.0,4.645,0.0,4.7081,0.0,0.0,0.0,0.0,0.0,0.0,0.0,0.0,0.0,0.0,4.0169,0.0,0.0,0.0,0.0,0.0,0.0,4.4691,4.7589,4.6472,4.6771,4.935,4.976,4.9665,4.9094,4.9633,4.9927,4.9861,5.0438,5.0707,5.0707,5.0707,5.0707,5.0707,5.0707,5.0707,5.0707,5.0707,5.0707,5.0707,5.1015,5.1779,5.2813,5.3433,5.4318,5.5324,5.5593,5.5708,5.5708,5.5708,5.5708,5.5708,5.5708,5.5708,5.5719,5.5776,5.5776,5.5782,5.5905,5.5924,5.5933,5.5927,5.5959,5.5981,5.5981,5.5995,5.6008,5.6008,5.6008,5.6008,5.6008,5.6008,5.6008,5.6008,5.6008,5.6008,5.6008,5.6008,5.6008,5.6008,5.6008,5.6008,5.6008,5.6008,5.6008,5.6008,5.682,5.7284,5.7284,5.7284,5.7284,5.7284,5.6472,5.6008,5.6008,5.6008,5.6008,5.6008,5.6008,5.6008,5.6008,5.6008,5.6008]}]]